<?xml version='1.0' encoding='UTF-8'?><gpx version="1.1" creator="JPX - https://github.com/jenetics/jpx" xmlns="http://www.topografix.com/GPX/1/1"><trk><trkseg><trkpt lat="41.5534672" lon="2.0864916"><ele>210.0</ele><time>2026-04-03T18:02:00.907Z</time></trkpt><trkpt lat="41.553554" lon="2.0868428"><ele>211.0</ele><time>2026-04-03T18:02:08.195Z</time></trkpt><trkpt lat="41.5538678" lon="2.0875318"><ele>211.66666666666666</ele><time>2026-04-03T18:02:44.512Z</time></trkpt><trkpt lat="41.5537252" lon="2.0876473"><ele>212.33333333333331</ele><time>2026-04-03T18:02:51.146Z</time></trkpt><trkpt lat="41.5534835" lon="2.087769"><ele>213.0</ele><time>2026-04-03T18:02:53.146Z</time></trkpt><trkpt lat="41.5534438" lon="2.0878401"><ele>213.0</ele><time>2026-04-03T18:02:54.146Z</time></trkpt><trkpt lat="41.5533539" lon="2.0878856"><ele>213.0</ele><time>2026-04-03T18:02:55.146Z</time></trkpt><trkpt lat="41.5532782" lon="2.0879431"><ele>213.0</ele><time>2026-04-03T18:02:56.146Z</time></trkpt><trkpt lat="41.5531937" lon="2.0880401"><ele>213.0</ele><time>2026-04-03T18:02:58.305Z</time></trkpt><trkpt lat="41.553147" lon="2.0880977"><ele>213.0</ele><time>2026-04-03T18:02:59.344Z</time></trkpt><trkpt lat="41.5530594" lon="2.0881758"><ele>213.0</ele><time>2026-04-03T18:03:01.31Z</time></trkpt><trkpt lat="41.5529808" lon="2.0882501"><ele>213.0</ele><time>2026-04-03T18:03:03.305Z</time></trkpt><trkpt lat="41.5529204" lon="2.0883017"><ele>213.0</ele><time>2026-04-03T18:03:05.313Z</time></trkpt><trkpt lat="41.5528761" lon="2.0883877"><ele>213.0</ele><time>2026-04-03T18:03:08.357Z</time></trkpt><trkpt lat="41.5528675" lon="2.0884982"><ele>213.0</ele><time>2026-04-03T18:03:10.316Z</time></trkpt><trkpt lat="41.5528657" lon="2.0885851"><ele>213.0</ele><time>2026-04-03T18:03:11.393Z</time></trkpt><trkpt lat="41.5528909" lon="2.0887333"><ele>212.5</ele><time>2026-04-03T18:03:13.323Z</time></trkpt><trkpt lat="41.5529281" lon="2.0888984"><ele>212.0</ele><time>2026-04-03T18:03:15.439Z</time></trkpt><trkpt lat="41.5529485" lon="2.0890186"><ele>211.5</ele><time>2026-04-03T18:03:17.327Z</time></trkpt><trkpt lat="41.5529568" lon="2.089106"><ele>211.0</ele><time>2026-04-03T18:03:18.359Z</time></trkpt><trkpt lat="41.5529544" lon="2.0892042"><ele>210.5</ele><time>2026-04-03T18:03:19.346Z</time></trkpt><trkpt lat="41.5529515" lon="2.0893084"><ele>210.0</ele><time>2026-04-03T18:03:20.353Z</time></trkpt><trkpt lat="41.552964" lon="2.0893968"><ele>210.0</ele><time>2026-04-03T18:03:21.335Z</time></trkpt><trkpt lat="41.5529942" lon="2.0894759"><ele>210.0</ele><time>2026-04-03T18:03:22.357Z</time></trkpt><trkpt lat="41.5530553" lon="2.0896122"><ele>210.0</ele><time>2026-04-03T18:03:24.331Z</time></trkpt><trkpt lat="41.5531235" lon="2.08967"><ele>210.0</ele><time>2026-04-03T18:03:27.3Z</time></trkpt><trkpt lat="41.5531863" lon="2.0897614"><ele>210.0</ele><time>2026-04-03T18:03:31.398Z</time></trkpt><trkpt lat="41.5532261" lon="2.0898372"><ele>210.0</ele><time>2026-04-03T18:03:33.299Z</time></trkpt><trkpt lat="41.5532715" lon="2.0899498"><ele>211.0</ele><time>2026-04-03T18:03:35.319Z</time></trkpt><trkpt lat="41.5533263" lon="2.0900988"><ele>212.0</ele><time>2026-04-03T18:03:37.289Z</time></trkpt><trkpt lat="41.5533609" lon="2.0902017"><ele>213.0</ele><time>2026-04-03T18:03:38.378Z</time></trkpt><trkpt lat="41.553383" lon="2.0902963"><ele>214.0</ele><time>2026-04-03T18:03:39.284Z</time></trkpt><trkpt lat="41.5534077" lon="2.0904067"><ele>215.0</ele><time>2026-04-03T18:03:40.286Z</time></trkpt><trkpt lat="41.553431" lon="2.0905459"><ele>215.00000000000003</ele><time>2026-04-03T18:03:41.439Z</time></trkpt><trkpt lat="41.5534406" lon="2.0906511"><ele>215.0</ele><time>2026-04-03T18:03:42.341Z</time></trkpt><trkpt lat="41.5534523" lon="2.0907763"><ele>215.0</ele><time>2026-04-03T18:03:43.343Z</time></trkpt><trkpt lat="41.5534672" lon="2.0908943"><ele>215.0</ele><time>2026-04-03T18:03:44.331Z</time></trkpt><trkpt lat="41.5534772" lon="2.0910193"><ele>215.00000000000003</ele><time>2026-04-03T18:03:45.323Z</time></trkpt><trkpt lat="41.5534867" lon="2.0911377"><ele>215.0</ele><time>2026-04-03T18:03:46.344Z</time></trkpt><trkpt lat="41.5535047" lon="2.0912641"><ele>215.8</ele><time>2026-04-03T18:03:48.363Z</time></trkpt><trkpt lat="41.5535022" lon="2.0913972"><ele>216.6</ele><time>2026-04-03T18:03:53.33Z</time></trkpt><trkpt lat="41.5535234" lon="2.091565"><ele>217.39999999999998</ele><time>2026-04-03T18:03:55.336Z</time></trkpt><trkpt lat="41.5535424" lon="2.0916965"><ele>218.2</ele><time>2026-04-03T18:03:56.406Z</time></trkpt><trkpt lat="41.5535541" lon="2.0918392"><ele>219.0</ele><time>2026-04-03T18:03:57.339Z</time></trkpt><trkpt lat="41.5535612" lon="2.0919965"><ele>219.5</ele><time>2026-04-03T18:03:58.331Z</time></trkpt><trkpt lat="41.5535641" lon="2.0921641"><ele>220.0</ele><time>2026-04-03T18:03:59.329Z</time></trkpt><trkpt lat="41.5535701" lon="2.0923409"><ele>220.5</ele><time>2026-04-03T18:04:00.313Z</time></trkpt><trkpt lat="41.5535807" lon="2.0925275"><ele>221.0</ele><time>2026-04-03T18:04:01.353Z</time></trkpt><trkpt lat="41.5535924" lon="2.0926921"><ele>221.60000000000002</ele><time>2026-04-03T18:04:02.337Z</time></trkpt><trkpt lat="41.5536041" lon="2.092841"><ele>222.20000000000002</ele><time>2026-04-03T18:04:03.335Z</time></trkpt><trkpt lat="41.5536077" lon="2.0929769"><ele>222.79999999999998</ele><time>2026-04-03T18:04:04.312Z</time></trkpt><trkpt lat="41.5536175" lon="2.0931222"><ele>223.39999999999998</ele><time>2026-04-03T18:04:05.335Z</time></trkpt><trkpt lat="41.5536334" lon="2.093278"><ele>224.0</ele><time>2026-04-03T18:04:06.336Z</time></trkpt><trkpt lat="41.5536523" lon="2.0934461"><ele>224.0</ele><time>2026-04-03T18:04:07.315Z</time></trkpt><trkpt lat="41.5536727" lon="2.0936145"><ele>223.99999999999997</ele><time>2026-04-03T18:04:08.332Z</time></trkpt><trkpt lat="41.5536924" lon="2.0937595"><ele>223.99999999999997</ele><time>2026-04-03T18:04:09.332Z</time></trkpt><trkpt lat="41.5537076" lon="2.0938888"><ele>224.0</ele><time>2026-04-03T18:04:10.315Z</time></trkpt><trkpt lat="41.5537222" lon="2.0940312"><ele>224.0</ele><time>2026-04-03T18:04:11.314Z</time></trkpt><trkpt lat="41.5537376" lon="2.094183"><ele>222.79999999999998</ele><time>2026-04-03T18:04:12.319Z</time></trkpt><trkpt lat="41.553751" lon="2.0943347"><ele>221.59999999999997</ele><time>2026-04-03T18:04:13.334Z</time></trkpt><trkpt lat="41.553761" lon="2.0944785"><ele>220.4</ele><time>2026-04-03T18:04:14.309Z</time></trkpt><trkpt lat="41.553772" lon="2.0946232"><ele>219.2</ele><time>2026-04-03T18:04:15.321Z</time></trkpt><trkpt lat="41.5537838" lon="2.0947557"><ele>218.0</ele><time>2026-04-03T18:04:16.326Z</time></trkpt><trkpt lat="41.5537921" lon="2.0948746"><ele>217.2</ele><time>2026-04-03T18:04:17.326Z</time></trkpt><trkpt lat="41.5538027" lon="2.0949949"><ele>216.4</ele><time>2026-04-03T18:04:18.336Z</time></trkpt><trkpt lat="41.5538144" lon="2.0951049"><ele>215.59999999999997</ele><time>2026-04-03T18:04:19.331Z</time></trkpt><trkpt lat="41.553824" lon="2.0952313"><ele>214.79999999999998</ele><time>2026-04-03T18:04:20.322Z</time></trkpt><trkpt lat="41.5538301" lon="2.0953701"><ele>214.0</ele><time>2026-04-03T18:04:21.357Z</time></trkpt><trkpt lat="41.5538382" lon="2.0955069"><ele>214.0</ele><time>2026-04-03T18:04:22.315Z</time></trkpt><trkpt lat="41.5538534" lon="2.0956619"><ele>213.99999999999997</ele><time>2026-04-03T18:04:23.325Z</time></trkpt><trkpt lat="41.5538639" lon="2.0958093"><ele>213.99999999999997</ele><time>2026-04-03T18:04:24.336Z</time></trkpt><trkpt lat="41.5538745" lon="2.0959448"><ele>214.0</ele><time>2026-04-03T18:04:25.321Z</time></trkpt><trkpt lat="41.5538832" lon="2.0960798"><ele>214.0</ele><time>2026-04-03T18:04:26.347Z</time></trkpt><trkpt lat="41.5538918" lon="2.0961973"><ele>212.99999999999997</ele><time>2026-04-03T18:04:27.319Z</time></trkpt><trkpt lat="41.5538996" lon="2.0963124"><ele>212.0</ele><time>2026-04-03T18:04:28.343Z</time></trkpt><trkpt lat="41.5539037" lon="2.0964295"><ele>211.0</ele><time>2026-04-03T18:04:29.317Z</time></trkpt><trkpt lat="41.5539149" lon="2.0965513"><ele>210.0</ele><time>2026-04-03T18:04:30.311Z</time></trkpt><trkpt lat="41.5539229" lon="2.0966691"><ele>208.99999999999997</ele><time>2026-04-03T18:04:31.322Z</time></trkpt><trkpt lat="41.5539323" lon="2.0967736"><ele>208.0</ele><time>2026-04-03T18:04:32.327Z</time></trkpt><trkpt lat="41.5539375" lon="2.0968585"><ele>206.8</ele><time>2026-04-03T18:04:33.311Z</time></trkpt><trkpt lat="41.5539496" lon="2.0970035"><ele>205.60000000000002</ele><time>2026-04-03T18:04:35.333Z</time></trkpt><trkpt lat="41.553958" lon="2.0971012"><ele>204.39999999999998</ele><time>2026-04-03T18:04:38.322Z</time></trkpt><trkpt lat="41.5539305" lon="2.0972158"><ele>203.2</ele><time>2026-04-03T18:05:40.334Z</time></trkpt><trkpt lat="41.5538815" lon="2.0973493"><ele>202.0</ele><time>2026-04-03T18:05:42.308Z</time></trkpt><trkpt lat="41.5538399" lon="2.0974198"><ele>201.66666666666666</ele><time>2026-04-03T18:05:43.31Z</time></trkpt><trkpt lat="41.5537979" lon="2.0974844"><ele>201.33333333333331</ele><time>2026-04-03T18:05:44.325Z</time></trkpt><trkpt lat="41.5537405" lon="2.0975686"><ele>201.0</ele><time>2026-04-03T18:05:46.34Z</time></trkpt><trkpt lat="41.5536856" lon="2.0976164"><ele>200.66666666666669</ele><time>2026-04-03T18:05:47.342Z</time></trkpt><trkpt lat="41.5535939" lon="2.0976415"><ele>200.33333333333334</ele><time>2026-04-03T18:05:48.319Z</time></trkpt><trkpt lat="41.5534764" lon="2.0976639"><ele>200.0</ele><time>2026-04-03T18:05:49.323Z</time></trkpt><trkpt lat="41.5533461" lon="2.0976825"><ele>199.5</ele><time>2026-04-03T18:05:50.298Z</time></trkpt><trkpt lat="41.5532082" lon="2.0977129"><ele>199.0</ele><time>2026-04-03T18:05:51.325Z</time></trkpt><trkpt lat="41.5530772" lon="2.0977411"><ele>198.5</ele><time>2026-04-03T18:05:52.3Z</time></trkpt><trkpt lat="41.5529482" lon="2.0977659"><ele>198.0</ele><time>2026-04-03T18:05:53.268Z</time></trkpt><trkpt lat="41.5528162" lon="2.0977942"><ele>197.16666666666666</ele><time>2026-04-03T18:05:54.303Z</time></trkpt><trkpt lat="41.5527006" lon="2.0978109"><ele>196.33333333333331</ele><time>2026-04-03T18:05:55.323Z</time></trkpt><trkpt lat="41.5526099" lon="2.0978246"><ele>195.5</ele><time>2026-04-03T18:05:56.305Z</time></trkpt><trkpt lat="41.5525423" lon="2.0978445"><ele>194.66666666666666</ele><time>2026-04-03T18:05:57.364Z</time></trkpt><trkpt lat="41.5524748" lon="2.0978502"><ele>193.83333333333331</ele><time>2026-04-03T18:05:59.456Z</time></trkpt><trkpt lat="41.5524275" lon="2.0977944"><ele>193.0</ele><time>2026-04-03T18:06:35.328Z</time></trkpt><trkpt lat="41.5522986" lon="2.0978039"><ele>193.0</ele><time>2026-04-03T18:06:37.332Z</time></trkpt><trkpt lat="41.552216" lon="2.0978208"><ele>193.0</ele><time>2026-04-03T18:06:38.458Z</time></trkpt><trkpt lat="41.5520288" lon="2.0978449"><ele>193.0</ele><time>2026-04-03T18:06:40.306Z</time></trkpt><trkpt lat="41.5519217" lon="2.0978627"><ele>193.0</ele><time>2026-04-03T18:06:41.314Z</time></trkpt><trkpt lat="41.5518063" lon="2.0978821"><ele>192.25</ele><time>2026-04-03T18:06:42.303Z</time></trkpt><trkpt lat="41.5516782" lon="2.0979021"><ele>191.5</ele><time>2026-04-03T18:06:43.324Z</time></trkpt><trkpt lat="41.5515494" lon="2.0979208"><ele>190.75</ele><time>2026-04-03T18:06:44.297Z</time></trkpt><trkpt lat="41.5514067" lon="2.0979387"><ele>190.0</ele><time>2026-04-03T18:06:45.334Z</time></trkpt><trkpt lat="41.5512555" lon="2.0979599"><ele>190.0</ele><time>2026-04-03T18:06:46.425Z</time></trkpt><trkpt lat="41.5509952" lon="2.0979993"><ele>190.0</ele><time>2026-04-03T18:06:48.334Z</time></trkpt><trkpt lat="41.5508682" lon="2.0980223"><ele>190.0</ele><time>2026-04-03T18:06:49.31Z</time></trkpt><trkpt lat="41.5507441" lon="2.0980393"><ele>190.0</ele><time>2026-04-03T18:06:50.313Z</time></trkpt><trkpt lat="41.5506301" lon="2.0980457"><ele>190.0</ele><time>2026-04-03T18:06:51.319Z</time></trkpt><trkpt lat="41.5505248" lon="2.09804"><ele>190.0</ele><time>2026-04-03T18:06:52.307Z</time></trkpt><trkpt lat="41.5504219" lon="2.098007"><ele>190.0</ele><time>2026-04-03T18:06:53.321Z</time></trkpt><trkpt lat="41.5503293" lon="2.0979627"><ele>190.0</ele><time>2026-04-03T18:06:54.294Z</time></trkpt><trkpt lat="41.550245" lon="2.0979277"><ele>191.0</ele><time>2026-04-03T18:06:55.313Z</time></trkpt><trkpt lat="41.5501607" lon="2.0978998"><ele>192.0</ele><time>2026-04-03T18:06:56.306Z</time></trkpt><trkpt lat="41.5500716" lon="2.0978972"><ele>193.0</ele><time>2026-04-03T18:06:57.31Z</time></trkpt><trkpt lat="41.5499992" lon="2.0979208"><ele>194.0</ele><time>2026-04-03T18:06:58.334Z</time></trkpt><trkpt lat="41.5499389" lon="2.0979721"><ele>194.99999999999997</ele><time>2026-04-03T18:06:59.311Z</time></trkpt><trkpt lat="41.5498904" lon="2.0980467"><ele>196.0</ele><time>2026-04-03T18:07:00.327Z</time></trkpt><trkpt lat="41.5498489" lon="2.0981246"><ele>195.4</ele><time>2026-04-03T18:07:01.328Z</time></trkpt><trkpt lat="41.5498025" lon="2.0982702"><ele>194.8</ele><time>2026-04-03T18:07:03.309Z</time></trkpt><trkpt lat="41.5498017" lon="2.0983631"><ele>194.20000000000002</ele><time>2026-04-03T18:07:05.339Z</time></trkpt><trkpt lat="41.549847" lon="2.0984985"><ele>193.60000000000002</ele><time>2026-04-03T18:07:18.306Z</time></trkpt><trkpt lat="41.5499455" lon="2.0985832"><ele>193.0</ele><time>2026-04-03T18:07:20.292Z</time></trkpt><trkpt lat="41.5500048" lon="2.0986279"><ele>192.99999999999997</ele><time>2026-04-03T18:07:21.313Z</time></trkpt><trkpt lat="41.5500741" lon="2.0986941"><ele>193.0</ele><time>2026-04-03T18:07:22.312Z</time></trkpt><trkpt lat="41.550126" lon="2.0987728"><ele>193.0</ele><time>2026-04-03T18:07:23.294Z</time></trkpt><trkpt lat="41.5501657" lon="2.0988513"><ele>193.0</ele><time>2026-04-03T18:07:24.292Z</time></trkpt><trkpt lat="41.5501951" lon="2.0989515"><ele>192.99999999999997</ele><time>2026-04-03T18:07:25.302Z</time></trkpt><trkpt lat="41.5502251" lon="2.099083"><ele>193.0</ele><time>2026-04-03T18:07:26.296Z</time></trkpt><trkpt lat="41.5502613" lon="2.0992396"><ele>193.75</ele><time>2026-04-03T18:07:27.32Z</time></trkpt><trkpt lat="41.5503002" lon="2.0993992"><ele>194.5</ele><time>2026-04-03T18:07:28.286Z</time></trkpt><trkpt lat="41.550341" lon="2.0995714"><ele>195.25</ele><time>2026-04-03T18:07:29.301Z</time></trkpt><trkpt lat="41.5503785" lon="2.0997511"><ele>196.0</ele><time>2026-04-03T18:07:30.302Z</time></trkpt><trkpt lat="41.5504188" lon="2.0999468"><ele>197.66666666666666</ele><time>2026-04-03T18:07:31.302Z</time></trkpt><trkpt lat="41.5504486" lon="2.1001367"><ele>199.33333333333331</ele><time>2026-04-03T18:07:32.276Z</time></trkpt><trkpt lat="41.5504877" lon="2.1003298"><ele>201.0</ele><time>2026-04-03T18:07:33.248Z</time></trkpt><trkpt lat="41.5505248" lon="2.1005324"><ele>201.0</ele><time>2026-04-03T18:07:34.247Z</time></trkpt><trkpt lat="41.5505697" lon="2.1007192"><ele>201.0</ele><time>2026-04-03T18:07:35.257Z</time></trkpt><trkpt lat="41.5506108" lon="2.1008974"><ele>201.0</ele><time>2026-04-03T18:07:36.248Z</time></trkpt><trkpt lat="41.5506458" lon="2.1010362"><ele>201.0</ele><time>2026-04-03T18:07:37.241Z</time></trkpt><trkpt lat="41.5506588" lon="2.1011323"><ele>200.8</ele><time>2026-04-03T18:07:38.25Z</time></trkpt><trkpt lat="41.5506845" lon="2.1012441"><ele>200.60000000000002</ele><time>2026-04-03T18:07:40.255Z</time></trkpt><trkpt lat="41.5507449" lon="2.1012837"><ele>200.4</ele><time>2026-04-03T18:08:27.329Z</time></trkpt><trkpt lat="41.5507676" lon="2.1013794"><ele>200.2</ele><time>2026-04-03T18:08:28.459Z</time></trkpt><trkpt lat="41.5508163" lon="2.1015982"><ele>200.0</ele><time>2026-04-03T18:08:30.306Z</time></trkpt><trkpt lat="41.5508456" lon="2.1017182"><ele>199.6</ele><time>2026-04-03T18:08:31.284Z</time></trkpt><trkpt lat="41.5508778" lon="2.1018341"><ele>199.2</ele><time>2026-04-03T18:08:32.297Z</time></trkpt><trkpt lat="41.550916" lon="2.1019381"><ele>198.8</ele><time>2026-04-03T18:08:33.313Z</time></trkpt><trkpt lat="41.5509339" lon="2.102056"><ele>198.4</ele><time>2026-04-03T18:08:34.309Z</time></trkpt><trkpt lat="41.5509626" lon="2.1021994"><ele>198.0</ele><time>2026-04-03T18:08:35.309Z</time></trkpt><trkpt lat="41.5509953" lon="2.1023557"><ele>198.0</ele><time>2026-04-03T18:08:36.309Z</time></trkpt><trkpt lat="41.5510426" lon="2.1025539"><ele>198.0</ele><time>2026-04-03T18:08:37.411Z</time></trkpt><trkpt lat="41.5510817" lon="2.102722"><ele>198.0</ele><time>2026-04-03T18:08:38.318Z</time></trkpt><trkpt lat="41.551127" lon="2.1029013"><ele>198.0</ele><time>2026-04-03T18:08:39.309Z</time></trkpt><trkpt lat="41.5511663" lon="2.1030864"><ele>198.0</ele><time>2026-04-03T18:08:40.315Z</time></trkpt><trkpt lat="41.5512062" lon="2.1032743"><ele>198.0</ele><time>2026-04-03T18:08:41.301Z</time></trkpt><trkpt lat="41.5512481" lon="2.1034613"><ele>198.0</ele><time>2026-04-03T18:08:42.314Z</time></trkpt><trkpt lat="41.5512874" lon="2.1036509"><ele>198.0</ele><time>2026-04-03T18:08:43.33Z</time></trkpt><trkpt lat="41.5513314" lon="2.1038238"><ele>198.0</ele><time>2026-04-03T18:08:44.309Z</time></trkpt><trkpt lat="41.551366" lon="2.1040025"><ele>198.0</ele><time>2026-04-03T18:08:45.314Z</time></trkpt><trkpt lat="41.551406" lon="2.1041668"><ele>198.0</ele><time>2026-04-03T18:08:46.325Z</time></trkpt><trkpt lat="41.551448" lon="2.1043571"><ele>198.0</ele><time>2026-04-03T18:08:47.32Z</time></trkpt><trkpt lat="41.5514926" lon="2.1045349"><ele>197.75</ele><time>2026-04-03T18:08:48.326Z</time></trkpt><trkpt lat="41.5515437" lon="2.1047083"><ele>197.5</ele><time>2026-04-03T18:08:49.31Z</time></trkpt><trkpt lat="41.5515814" lon="2.1048739"><ele>197.25</ele><time>2026-04-03T18:08:50.307Z</time></trkpt><trkpt lat="41.5516202" lon="2.1050514"><ele>197.0</ele><time>2026-04-03T18:08:51.317Z</time></trkpt><trkpt lat="41.5516634" lon="2.1052271"><ele>197.5</ele><time>2026-04-03T18:08:52.296Z</time></trkpt><trkpt lat="41.5517177" lon="2.1054115"><ele>198.0</ele><time>2026-04-03T18:08:53.326Z</time></trkpt><trkpt lat="41.5517732" lon="2.1055912"><ele>198.5</ele><time>2026-04-03T18:08:54.31Z</time></trkpt><trkpt lat="41.5518327" lon="2.1057798"><ele>199.0</ele><time>2026-04-03T18:08:55.337Z</time></trkpt><trkpt lat="41.5518829" lon="2.1059593"><ele>199.0</ele><time>2026-04-03T18:08:56.328Z</time></trkpt><trkpt lat="41.5519375" lon="2.106137"><ele>199.0</ele><time>2026-04-03T18:08:57.336Z</time></trkpt><trkpt lat="41.5519915" lon="2.1063068"><ele>199.0</ele><time>2026-04-03T18:08:58.307Z</time></trkpt><trkpt lat="41.552048" lon="2.1064851"><ele>199.0</ele><time>2026-04-03T18:08:59.323Z</time></trkpt><trkpt lat="41.5521019" lon="2.1066655"><ele>199.0</ele><time>2026-04-03T18:09:00.305Z</time></trkpt><trkpt lat="41.5521596" lon="2.1068501"><ele>199.0</ele><time>2026-04-03T18:09:01.34Z</time></trkpt><trkpt lat="41.5522143" lon="2.1070389"><ele>199.0</ele><time>2026-04-03T18:09:02.343Z</time></trkpt><trkpt lat="41.5522726" lon="2.1072313"><ele>199.0</ele><time>2026-04-03T18:09:03.343Z</time></trkpt><trkpt lat="41.5523387" lon="2.1074226"><ele>199.0</ele><time>2026-04-03T18:09:04.382Z</time></trkpt><trkpt lat="41.5523985" lon="2.1076026"><ele>199.0</ele><time>2026-04-03T18:09:05.358Z</time></trkpt><trkpt lat="41.5524527" lon="2.107792"><ele>199.0</ele><time>2026-04-03T18:09:06.354Z</time></trkpt><trkpt lat="41.5524996" lon="2.1079734"><ele>199.0</ele><time>2026-04-03T18:09:07.318Z</time></trkpt><trkpt lat="41.5525476" lon="2.108152"><ele>199.0</ele><time>2026-04-03T18:09:08.312Z</time></trkpt><trkpt lat="41.5526008" lon="2.1083407"><ele>199.0</ele><time>2026-04-03T18:09:09.332Z</time></trkpt><trkpt lat="41.5526517" lon="2.1085176"><ele>199.25</ele><time>2026-04-03T18:09:10.32Z</time></trkpt><trkpt lat="41.5526984" lon="2.1086973"><ele>199.5</ele><time>2026-04-03T18:09:11.328Z</time></trkpt><trkpt lat="41.5527393" lon="2.1088574"><ele>199.75</ele><time>2026-04-03T18:09:12.326Z</time></trkpt><trkpt lat="41.5527717" lon="2.109011"><ele>200.0</ele><time>2026-04-03T18:09:13.305Z</time></trkpt><trkpt lat="41.5528029" lon="2.109161"><ele>200.2</ele><time>2026-04-03T18:09:14.323Z</time></trkpt><trkpt lat="41.5528347" lon="2.1092927"><ele>200.4</ele><time>2026-04-03T18:09:15.337Z</time></trkpt><trkpt lat="41.5528632" lon="2.1094105"><ele>200.60000000000002</ele><time>2026-04-03T18:09:16.305Z</time></trkpt><trkpt lat="41.5529015" lon="2.1095278"><ele>200.8</ele><time>2026-04-03T18:09:17.368Z</time></trkpt><trkpt lat="41.5529319" lon="2.1096393"><ele>201.0</ele><time>2026-04-03T18:09:18.309Z</time></trkpt><trkpt lat="41.5529627" lon="2.109754"><ele>201.16666666666666</ele><time>2026-04-03T18:09:19.316Z</time></trkpt><trkpt lat="41.5529896" lon="2.1098469"><ele>201.33333333333331</ele><time>2026-04-03T18:09:20.32Z</time></trkpt><trkpt lat="41.5530234" lon="2.1099487"><ele>201.5</ele><time>2026-04-03T18:09:21.328Z</time></trkpt><trkpt lat="41.5530577" lon="2.1100555"><ele>201.66666666666666</ele><time>2026-04-03T18:09:22.308Z</time></trkpt><trkpt lat="41.5530923" lon="2.1101653"><ele>201.83333333333331</ele><time>2026-04-03T18:09:23.33Z</time></trkpt><trkpt lat="41.5531277" lon="2.1102675"><ele>202.0</ele><time>2026-04-03T18:09:24.316Z</time></trkpt><trkpt lat="41.5531658" lon="2.1103852"><ele>202.0</ele><time>2026-04-03T18:09:25.348Z</time></trkpt><trkpt lat="41.553204" lon="2.1105066"><ele>202.0</ele><time>2026-04-03T18:09:26.36Z</time></trkpt><trkpt lat="41.5532393" lon="2.1106265"><ele>202.0</ele><time>2026-04-03T18:09:27.321Z</time></trkpt><trkpt lat="41.5532775" lon="2.1107507"><ele>202.0</ele><time>2026-04-03T18:09:28.334Z</time></trkpt><trkpt lat="41.5533155" lon="2.1108826"><ele>202.0</ele><time>2026-04-03T18:09:29.321Z</time></trkpt><trkpt lat="41.5533552" lon="2.1110363"><ele>202.0</ele><time>2026-04-03T18:09:30.311Z</time></trkpt><trkpt lat="41.5534068" lon="2.1112376"><ele>202.0</ele><time>2026-04-03T18:09:31.424Z</time></trkpt><trkpt lat="41.5534922" lon="2.1115235"><ele>202.0</ele><time>2026-04-03T18:09:33.339Z</time></trkpt><trkpt lat="41.5535223" lon="2.1116339"><ele>201.8</ele><time>2026-04-03T18:09:34.285Z</time></trkpt><trkpt lat="41.5535416" lon="2.1117261"><ele>201.6</ele><time>2026-04-03T18:09:35.33Z</time></trkpt><trkpt lat="41.5535666" lon="2.1118809"><ele>201.4</ele><time>2026-04-03T18:09:37.343Z</time></trkpt><trkpt lat="41.5535831" lon="2.1119843"><ele>201.20000000000002</ele><time>2026-04-03T18:09:40.321Z</time></trkpt><trkpt lat="41.5536707" lon="2.1120767"><ele>201.0</ele><time>2026-04-03T18:10:13.285Z</time></trkpt><trkpt lat="41.5537023" lon="2.1122895"><ele>201.0</ele><time>2026-04-03T18:10:16.301Z</time></trkpt><trkpt lat="41.5537224" lon="2.1123956"><ele>201.0</ele><time>2026-04-03T18:10:17.298Z</time></trkpt><trkpt lat="41.5537584" lon="2.1125287"><ele>201.0</ele><time>2026-04-03T18:10:18.299Z</time></trkpt><trkpt lat="41.5537963" lon="2.1126511"><ele>201.0</ele><time>2026-04-03T18:10:19.3Z</time></trkpt><trkpt lat="41.5538387" lon="2.1127769"><ele>201.0</ele><time>2026-04-03T18:10:20.321Z</time></trkpt><trkpt lat="41.5538772" lon="2.1128761"><ele>201.0</ele><time>2026-04-03T18:10:21.333Z</time></trkpt><trkpt lat="41.5539211" lon="2.1130095"><ele>201.0</ele><time>2026-04-03T18:10:22.329Z</time></trkpt><trkpt lat="41.5539451" lon="2.1131121"><ele>201.0</ele><time>2026-04-03T18:10:23.347Z</time></trkpt><trkpt lat="41.5539661" lon="2.1131967"><ele>201.0</ele><time>2026-04-03T18:10:24.366Z</time></trkpt><trkpt lat="41.5539886" lon="2.1132881"><ele>201.0</ele><time>2026-04-03T18:10:26.318Z</time></trkpt><trkpt lat="41.5540427" lon="2.113499"><ele>200.5</ele><time>2026-04-03T18:10:36.31Z</time></trkpt><trkpt lat="41.5540583" lon="2.113581"><ele>200.0</ele><time>2026-04-03T18:10:37.311Z</time></trkpt><trkpt lat="41.5540855" lon="2.1136849"><ele>199.5</ele><time>2026-04-03T18:10:38.348Z</time></trkpt><trkpt lat="41.5541192" lon="2.1137876"><ele>199.0</ele><time>2026-04-03T18:10:39.313Z</time></trkpt><trkpt lat="41.5541653" lon="2.1139016"><ele>198.5</ele><time>2026-04-03T18:10:40.33Z</time></trkpt><trkpt lat="41.5541948" lon="2.1140246"><ele>198.0</ele><time>2026-04-03T18:10:41.333Z</time></trkpt><trkpt lat="41.5541836" lon="2.1141528"><ele>196.25</ele><time>2026-04-03T18:10:42.325Z</time></trkpt><trkpt lat="41.5541334" lon="2.1142821"><ele>194.5</ele><time>2026-04-03T18:10:43.333Z</time></trkpt><trkpt lat="41.554048" lon="2.1143976"><ele>192.75</ele><time>2026-04-03T18:10:44.331Z</time></trkpt><trkpt lat="41.5539388" lon="2.1145141"><ele>191.0</ele><time>2026-04-03T18:10:45.311Z</time></trkpt><trkpt lat="41.5538226" lon="2.1146441"><ele>190.66666666666666</ele><time>2026-04-03T18:10:46.32Z</time></trkpt><trkpt lat="41.5536989" lon="2.1147873"><ele>190.33333333333334</ele><time>2026-04-03T18:10:47.305Z</time></trkpt><trkpt lat="41.5535681" lon="2.1149374"><ele>190.0</ele><time>2026-04-03T18:10:48.32Z</time></trkpt><trkpt lat="41.5534566" lon="2.1150761"><ele>190.0</ele><time>2026-04-03T18:10:49.307Z</time></trkpt><trkpt lat="41.5533273" lon="2.1152232"><ele>190.0</ele><time>2026-04-03T18:10:50.321Z</time></trkpt><trkpt lat="41.553226" lon="2.1153692"><ele>190.0</ele><time>2026-04-03T18:10:51.41Z</time></trkpt><trkpt lat="41.5531562" lon="2.1154677"><ele>190.0</ele><time>2026-04-03T18:10:52.318Z</time></trkpt><trkpt lat="41.5530789" lon="2.1155892"><ele>190.0</ele><time>2026-04-03T18:10:53.355Z</time></trkpt><trkpt lat="41.5530929" lon="2.1156926"><ele>190.0</ele><time>2026-04-03T18:10:54.316Z</time></trkpt><trkpt lat="41.5531208" lon="2.1157949"><ele>190.0</ele><time>2026-04-03T18:10:55.334Z</time></trkpt><trkpt lat="41.5531959" lon="2.1158919"><ele>190.0</ele><time>2026-04-03T18:10:56.322Z</time></trkpt><trkpt lat="41.5533063" lon="2.1159539"><ele>190.0</ele><time>2026-04-03T18:10:57.319Z</time></trkpt><trkpt lat="41.5534267" lon="2.1159606"><ele>190.0</ele><time>2026-04-03T18:10:58.341Z</time></trkpt><trkpt lat="41.5535309" lon="2.1159131"><ele>190.0</ele><time>2026-04-03T18:10:59.332Z</time></trkpt><trkpt lat="41.5536094" lon="2.1158127"><ele>190.0</ele><time>2026-04-03T18:11:00.319Z</time></trkpt><trkpt lat="41.5536779" lon="2.1156856"><ele>190.0</ele><time>2026-04-03T18:11:01.326Z</time></trkpt><trkpt lat="41.553761" lon="2.1155435"><ele>187.0</ele><time>2026-04-03T18:11:02.337Z</time></trkpt><trkpt lat="41.5538617" lon="2.1154119"><ele>184.0</ele><time>2026-04-03T18:11:03.328Z</time></trkpt><trkpt lat="41.5539694" lon="2.1153034"><ele>181.0</ele><time>2026-04-03T18:11:04.346Z</time></trkpt><trkpt lat="41.5540744" lon="2.1152464"><ele>178.0</ele><time>2026-04-03T18:11:05.329Z</time></trkpt><trkpt lat="41.5541834" lon="2.1152245"><ele>178.0</ele><time>2026-04-03T18:11:06.328Z</time></trkpt><trkpt lat="41.5542894" lon="2.1152317"><ele>178.0</ele><time>2026-04-03T18:11:07.314Z</time></trkpt><trkpt lat="41.5543889" lon="2.115266"><ele>178.0</ele><time>2026-04-03T18:11:08.318Z</time></trkpt><trkpt lat="41.5544839" lon="2.1153311"><ele>178.0</ele><time>2026-04-03T18:11:09.322Z</time></trkpt><trkpt lat="41.5545871" lon="2.1154064"><ele>178.0</ele><time>2026-04-03T18:11:10.297Z</time></trkpt><trkpt lat="41.5547019" lon="2.1155004"><ele>177.33333333333334</ele><time>2026-04-03T18:11:11.315Z</time></trkpt><trkpt lat="41.5548172" lon="2.1156039"><ele>176.66666666666666</ele><time>2026-04-03T18:11:12.289Z</time></trkpt><trkpt lat="41.5549516" lon="2.1157184"><ele>176.0</ele><time>2026-04-03T18:11:13.428Z</time></trkpt><trkpt lat="41.555179" lon="2.1159034"><ele>173.25</ele><time>2026-04-03T18:11:15.318Z</time></trkpt><trkpt lat="41.5552984" lon="2.1160024"><ele>170.5</ele><time>2026-04-03T18:11:16.322Z</time></trkpt><trkpt lat="41.5554131" lon="2.1160919"><ele>167.75</ele><time>2026-04-03T18:11:17.283Z</time></trkpt><trkpt lat="41.5555444" lon="2.1161947"><ele>165.0</ele><time>2026-04-03T18:11:18.311Z</time></trkpt><trkpt lat="41.5556712" lon="2.1162975"><ele>163.25</ele><time>2026-04-03T18:11:19.322Z</time></trkpt><trkpt lat="41.5557982" lon="2.1163988"><ele>161.5</ele><time>2026-04-03T18:11:20.327Z</time></trkpt><trkpt lat="41.5559215" lon="2.1165016"><ele>159.75</ele><time>2026-04-03T18:11:21.329Z</time></trkpt><trkpt lat="41.5560458" lon="2.116599"><ele>158.0</ele><time>2026-04-03T18:11:22.324Z</time></trkpt><trkpt lat="41.5561721" lon="2.1167019"><ele>154.5</ele><time>2026-04-03T18:11:23.338Z</time></trkpt><trkpt lat="41.5562998" lon="2.1168037"><ele>151.0</ele><time>2026-04-03T18:11:24.344Z</time></trkpt><trkpt lat="41.5564236" lon="2.1169008"><ele>147.5</ele><time>2026-04-03T18:11:25.33Z</time></trkpt><trkpt lat="41.5565482" lon="2.1169984"><ele>144.0</ele><time>2026-04-03T18:11:26.349Z</time></trkpt><trkpt lat="41.5566673" lon="2.1170932"><ele>144.0</ele><time>2026-04-03T18:11:27.341Z</time></trkpt><trkpt lat="41.5567829" lon="2.1171871"><ele>144.0</ele><time>2026-04-03T18:11:28.333Z</time></trkpt><trkpt lat="41.5568962" lon="2.1172808"><ele>144.0</ele><time>2026-04-03T18:11:29.347Z</time></trkpt><trkpt lat="41.5570016" lon="2.1173663"><ele>144.0</ele><time>2026-04-03T18:11:30.327Z</time></trkpt><trkpt lat="41.5571104" lon="2.1174547"><ele>146.5</ele><time>2026-04-03T18:11:31.355Z</time></trkpt><trkpt lat="41.557214" lon="2.1175404"><ele>149.0</ele><time>2026-04-03T18:11:32.338Z</time></trkpt><trkpt lat="41.5573228" lon="2.1176289"><ele>151.5</ele><time>2026-04-03T18:11:33.328Z</time></trkpt><trkpt lat="41.5574371" lon="2.1177166"><ele>154.0</ele><time>2026-04-03T18:11:34.339Z</time></trkpt><trkpt lat="41.5575606" lon="2.1177879"><ele>154.0</ele><time>2026-04-03T18:11:35.353Z</time></trkpt><trkpt lat="41.5576921" lon="2.1178323"><ele>154.0</ele><time>2026-04-03T18:11:36.349Z</time></trkpt><trkpt lat="41.5578266" lon="2.1178506"><ele>154.0</ele><time>2026-04-03T18:11:37.318Z</time></trkpt><trkpt lat="41.5579709" lon="2.1178485"><ele>154.0</ele><time>2026-04-03T18:11:38.316Z</time></trkpt><trkpt lat="41.5581138" lon="2.1178247"><ele>154.5</ele><time>2026-04-03T18:11:39.31Z</time></trkpt><trkpt lat="41.5582505" lon="2.1177869"><ele>155.0</ele><time>2026-04-03T18:11:40.317Z</time></trkpt><trkpt lat="41.5583915" lon="2.1177521"><ele>155.5</ele><time>2026-04-03T18:11:41.309Z</time></trkpt><trkpt lat="41.5585374" lon="2.117741"><ele>156.0</ele><time>2026-04-03T18:11:42.309Z</time></trkpt><trkpt lat="41.5586916" lon="2.1177682"><ele>158.33333333333334</ele><time>2026-04-03T18:11:43.332Z</time></trkpt><trkpt lat="41.5588476" lon="2.1178315"><ele>160.66666666666669</ele><time>2026-04-03T18:11:44.347Z</time></trkpt><trkpt lat="41.5589781" lon="2.1179166"><ele>163.0</ele><time>2026-04-03T18:11:45.309Z</time></trkpt><trkpt lat="41.5591209" lon="2.1180365"><ele>163.0</ele><time>2026-04-03T18:11:46.448Z</time></trkpt><trkpt lat="41.5593536" lon="2.1182323"><ele>163.0</ele><time>2026-04-03T18:11:48.33Z</time></trkpt><trkpt lat="41.5594816" lon="2.1183186"><ele>163.0</ele><time>2026-04-03T18:11:49.335Z</time></trkpt><trkpt lat="41.5596167" lon="2.1183783"><ele>165.75</ele><time>2026-04-03T18:11:50.33Z</time></trkpt><trkpt lat="41.5597636" lon="2.1184074"><ele>168.5</ele><time>2026-04-03T18:11:51.327Z</time></trkpt><trkpt lat="41.5599107" lon="2.1184181"><ele>171.25</ele><time>2026-04-03T18:11:52.334Z</time></trkpt><trkpt lat="41.5600587" lon="2.1184111"><ele>174.0</ele><time>2026-04-03T18:11:53.332Z</time></trkpt><trkpt lat="41.560213" lon="2.1184025"><ele>174.0</ele><time>2026-04-03T18:11:54.371Z</time></trkpt><trkpt lat="41.5603548" lon="2.1184"><ele>174.0</ele><time>2026-04-03T18:11:55.315Z</time></trkpt><trkpt lat="41.5605059" lon="2.1184169"><ele>174.0</ele><time>2026-04-03T18:11:56.311Z</time></trkpt><trkpt lat="41.560676" lon="2.1184671"><ele>177.0</ele><time>2026-04-03T18:11:57.459Z</time></trkpt><trkpt lat="41.5609277" lon="2.118633"><ele>180.0</ele><time>2026-04-03T18:11:59.341Z</time></trkpt><trkpt lat="41.5610388" lon="2.1187613"><ele>183.0</ele><time>2026-04-03T18:12:00.334Z</time></trkpt><trkpt lat="41.5611314" lon="2.118916"><ele>186.25</ele><time>2026-04-03T18:12:01.349Z</time></trkpt><trkpt lat="41.5612015" lon="2.1190814"><ele>189.5</ele><time>2026-04-03T18:12:02.337Z</time></trkpt><trkpt lat="41.5612475" lon="2.1192658"><ele>192.75</ele><time>2026-04-03T18:12:03.36Z</time></trkpt><trkpt lat="41.5612784" lon="2.1194663"><ele>196.0</ele><time>2026-04-03T18:12:04.351Z</time></trkpt><trkpt lat="41.561283" lon="2.1196853"><ele>196.66666666666666</ele><time>2026-04-03T18:12:05.467Z</time></trkpt><trkpt lat="41.5612217" lon="2.1200382"><ele>197.33333333333331</ele><time>2026-04-03T18:12:07.316Z</time></trkpt><trkpt lat="41.5611604" lon="2.1202158"><ele>198.0</ele><time>2026-04-03T18:12:08.322Z</time></trkpt><trkpt lat="41.5610931" lon="2.1203745"><ele>198.0</ele><time>2026-04-03T18:12:09.322Z</time></trkpt><trkpt lat="41.5610236" lon="2.1205042"><ele>198.0</ele><time>2026-04-03T18:12:10.311Z</time></trkpt><trkpt lat="41.5609451" lon="2.1206024"><ele>198.0</ele><time>2026-04-03T18:12:11.3Z</time></trkpt><trkpt lat="41.5608557" lon="2.1206624"><ele>198.0</ele><time>2026-04-03T18:12:12.313Z</time></trkpt><trkpt lat="41.560762" lon="2.1206965"><ele>198.0</ele><time>2026-04-03T18:12:13.308Z</time></trkpt><trkpt lat="41.5606573" lon="2.1207194"><ele>197.5</ele><time>2026-04-03T18:12:14.34Z</time></trkpt><trkpt lat="41.560552" lon="2.1207543"><ele>197.0</ele><time>2026-04-03T18:12:15.33Z</time></trkpt><trkpt lat="41.5604443" lon="2.1208006"><ele>196.5</ele><time>2026-04-03T18:12:16.322Z</time></trkpt><trkpt lat="41.5603361" lon="2.1208727"><ele>196.0</ele><time>2026-04-03T18:12:17.337Z</time></trkpt><trkpt lat="41.560243" lon="2.1209837"><ele>196.0</ele><time>2026-04-03T18:12:18.354Z</time></trkpt><trkpt lat="41.5601749" lon="2.1211214"><ele>196.0</ele><time>2026-04-03T18:12:19.339Z</time></trkpt><trkpt lat="41.5601424" lon="2.1212738"><ele>196.0</ele><time>2026-04-03T18:12:20.337Z</time></trkpt><trkpt lat="41.5601453" lon="2.1214383"><ele>196.0</ele><time>2026-04-03T18:12:21.328Z</time></trkpt><trkpt lat="41.5601877" lon="2.121603"><ele>198.75</ele><time>2026-04-03T18:12:22.349Z</time></trkpt><trkpt lat="41.5602645" lon="2.1217427"><ele>201.5</ele><time>2026-04-03T18:12:23.341Z</time></trkpt><trkpt lat="41.5603681" lon="2.1218306"><ele>204.25</ele><time>2026-04-03T18:12:24.323Z</time></trkpt><trkpt lat="41.5605042" lon="2.1218928"><ele>207.0</ele><time>2026-04-03T18:12:25.329Z</time></trkpt><trkpt lat="41.5606513" lon="2.1219243"><ele>208.0</ele><time>2026-04-03T18:12:26.314Z</time></trkpt><trkpt lat="41.5608189" lon="2.1219142"><ele>209.0</ele><time>2026-04-03T18:12:27.343Z</time></trkpt><trkpt lat="41.5609773" lon="2.1218713"><ele>210.0</ele><time>2026-04-03T18:12:28.315Z</time></trkpt><trkpt lat="41.561126" lon="2.1217895"><ele>210.33333333333331</ele><time>2026-04-03T18:12:29.325Z</time></trkpt><trkpt lat="41.5612692" lon="2.1216758"><ele>210.66666666666666</ele><time>2026-04-03T18:12:30.317Z</time></trkpt><trkpt lat="41.5614161" lon="2.1215458"><ele>211.0</ele><time>2026-04-03T18:12:31.324Z</time></trkpt><trkpt lat="41.5615662" lon="2.1214191"><ele>211.0</ele><time>2026-04-03T18:12:32.317Z</time></trkpt><trkpt lat="41.561743" lon="2.1213131"><ele>211.0</ele><time>2026-04-03T18:12:33.386Z</time></trkpt><trkpt lat="41.5619033" lon="2.1212554"><ele>211.0</ele><time>2026-04-03T18:12:34.305Z</time></trkpt><trkpt lat="41.5620825" lon="2.1212237"><ele>212.33333333333331</ele><time>2026-04-03T18:12:35.328Z</time></trkpt><trkpt lat="41.5622619" lon="2.1212348"><ele>213.66666666666669</ele><time>2026-04-03T18:12:36.319Z</time></trkpt><trkpt lat="41.56246" lon="2.1212625"><ele>215.0</ele><time>2026-04-03T18:12:37.414Z</time></trkpt><trkpt lat="41.562628" lon="2.1212854"><ele>215.0</ele><time>2026-04-03T18:12:38.322Z</time></trkpt><trkpt lat="41.562816" lon="2.1213118"><ele>215.0</ele><time>2026-04-03T18:12:39.319Z</time></trkpt><trkpt lat="41.5630023" lon="2.1213418"><ele>215.0</ele><time>2026-04-03T18:12:40.315Z</time></trkpt><trkpt lat="41.5631761" lon="2.1213644"><ele>215.33333333333334</ele><time>2026-04-03T18:12:41.319Z</time></trkpt><trkpt lat="41.5633528" lon="2.1213913"><ele>215.66666666666669</ele><time>2026-04-03T18:12:42.3Z</time></trkpt><trkpt lat="41.5635456" lon="2.1214229"><ele>216.0</ele><time>2026-04-03T18:12:43.31Z</time></trkpt><trkpt lat="41.5637478" lon="2.1214592"><ele>216.0</ele><time>2026-04-03T18:12:44.329Z</time></trkpt><trkpt lat="41.5639352" lon="2.1214909"><ele>216.0</ele><time>2026-04-03T18:12:45.327Z</time></trkpt><trkpt lat="41.564139" lon="2.1215307"><ele>216.0</ele><time>2026-04-03T18:12:46.389Z</time></trkpt><trkpt lat="41.5643227" lon="2.1215595"><ele>219.33333333333331</ele><time>2026-04-03T18:12:47.337Z</time></trkpt><trkpt lat="41.5645171" lon="2.1215928"><ele>222.66666666666666</ele><time>2026-04-03T18:12:48.32Z</time></trkpt><trkpt lat="41.5647129" lon="2.1216356"><ele>226.0</ele><time>2026-04-03T18:12:49.34Z</time></trkpt><trkpt lat="41.5649036" lon="2.1216743"><ele>226.0</ele><time>2026-04-03T18:12:50.335Z</time></trkpt><trkpt lat="41.5650894" lon="2.1217106"><ele>226.0</ele><time>2026-04-03T18:12:51.337Z</time></trkpt><trkpt lat="41.5652715" lon="2.1217455"><ele>226.0</ele><time>2026-04-03T18:12:52.342Z</time></trkpt><trkpt lat="41.5654426" lon="2.1217767"><ele>226.0</ele><time>2026-04-03T18:12:53.347Z</time></trkpt><trkpt lat="41.5655948" lon="2.1218071"><ele>226.0</ele><time>2026-04-03T18:12:54.329Z</time></trkpt><trkpt lat="41.5657427" lon="2.1218221"><ele>226.0</ele><time>2026-04-03T18:12:55.315Z</time></trkpt><trkpt lat="41.5659126" lon="2.1218207"><ele>224.0</ele><time>2026-04-03T18:12:56.461Z</time></trkpt><trkpt lat="41.5662245" lon="2.121724"><ele>222.0</ele><time>2026-04-03T18:12:58.489Z</time></trkpt><trkpt lat="41.5664782" lon="2.1215372"><ele>222.0</ele><time>2026-04-03T18:13:00.435Z</time></trkpt><trkpt lat="41.5666949" lon="2.1213502"><ele>222.0</ele><time>2026-04-03T18:13:02.327Z</time></trkpt><trkpt lat="41.5668046" lon="2.1212818"><ele>222.0</ele><time>2026-04-03T18:13:03.333Z</time></trkpt><trkpt lat="41.5669072" lon="2.1212569"><ele>222.0</ele><time>2026-04-03T18:13:04.345Z</time></trkpt><trkpt lat="41.5670135" lon="2.1212775"><ele>222.0</ele><time>2026-04-03T18:13:05.436Z</time></trkpt><trkpt lat="41.5671269" lon="2.1213458"><ele>222.0</ele><time>2026-04-03T18:13:06.357Z</time></trkpt><trkpt lat="41.5672259" lon="2.1214425"><ele>222.0</ele><time>2026-04-03T18:13:07.327Z</time></trkpt><trkpt lat="41.567336" lon="2.1215549"><ele>218.66666666666669</ele><time>2026-04-03T18:13:08.334Z</time></trkpt><trkpt lat="41.5674722" lon="2.1216463"><ele>215.33333333333334</ele><time>2026-04-03T18:13:09.339Z</time></trkpt><trkpt lat="41.5676161" lon="2.1217025"><ele>212.0</ele><time>2026-04-03T18:13:10.327Z</time></trkpt><trkpt lat="41.5677652" lon="2.121705"><ele>211.33333333333334</ele><time>2026-04-03T18:13:11.328Z</time></trkpt><trkpt lat="41.5679137" lon="2.1216633"><ele>210.66666666666669</ele><time>2026-04-03T18:13:12.347Z</time></trkpt><trkpt lat="41.5680568" lon="2.1216034"><ele>210.0</ele><time>2026-04-03T18:13:13.337Z</time></trkpt><trkpt lat="41.5682071" lon="2.1215583"><ele>210.0</ele><time>2026-04-03T18:13:14.352Z</time></trkpt><trkpt lat="41.5683581" lon="2.1215454"><ele>210.0</ele><time>2026-04-03T18:13:15.36Z</time></trkpt><trkpt lat="41.5685043" lon="2.1215667"><ele>210.0</ele><time>2026-04-03T18:13:16.355Z</time></trkpt><trkpt lat="41.5686488" lon="2.1215901"><ele>210.0</ele><time>2026-04-03T18:13:17.329Z</time></trkpt><trkpt lat="41.5687937" lon="2.1215898"><ele>210.25</ele><time>2026-04-03T18:13:18.331Z</time></trkpt><trkpt lat="41.568942" lon="2.1215644"><ele>210.5</ele><time>2026-04-03T18:13:19.346Z</time></trkpt><trkpt lat="41.5690749" lon="2.1215338"><ele>210.75</ele><time>2026-04-03T18:13:20.315Z</time></trkpt><trkpt lat="41.5692083" lon="2.1215131"><ele>211.0</ele><time>2026-04-03T18:13:21.339Z</time></trkpt><trkpt lat="41.5693332" lon="2.1215113"><ele>211.0</ele><time>2026-04-03T18:13:22.323Z</time></trkpt><trkpt lat="41.5694528" lon="2.121513"><ele>211.0</ele><time>2026-04-03T18:13:23.329Z</time></trkpt><trkpt lat="41.5695722" lon="2.1215215"><ele>211.0</ele><time>2026-04-03T18:13:24.362Z</time></trkpt><trkpt lat="41.5696807" lon="2.1215349"><ele>211.0</ele><time>2026-04-03T18:13:25.356Z</time></trkpt><trkpt lat="41.5697931" lon="2.1215476"><ele>209.75</ele><time>2026-04-03T18:13:26.361Z</time></trkpt><trkpt lat="41.5699095" lon="2.12156"><ele>208.5</ele><time>2026-04-03T18:13:27.356Z</time></trkpt><trkpt lat="41.5700326" lon="2.1215672"><ele>207.25</ele><time>2026-04-03T18:13:28.33Z</time></trkpt><trkpt lat="41.5701628" lon="2.1215821"><ele>206.0</ele><time>2026-04-03T18:13:29.34Z</time></trkpt><trkpt lat="41.5703022" lon="2.1215914"><ele>205.0</ele><time>2026-04-03T18:13:30.337Z</time></trkpt><trkpt lat="41.5704643" lon="2.1215885"><ele>204.0</ele><time>2026-04-03T18:13:31.33Z</time></trkpt><trkpt lat="41.5706038" lon="2.1215538"><ele>203.0</ele><time>2026-04-03T18:13:32.33Z</time></trkpt><trkpt lat="41.570737" lon="2.1214827"><ele>202.0</ele><time>2026-04-03T18:13:33.342Z</time></trkpt><trkpt lat="41.5708534" lon="2.1214044"><ele>202.0</ele><time>2026-04-03T18:13:34.319Z</time></trkpt><trkpt lat="41.570967" lon="2.1213274"><ele>202.0</ele><time>2026-04-03T18:13:35.316Z</time></trkpt><trkpt lat="41.5710784" lon="2.1212962"><ele>202.0</ele><time>2026-04-03T18:13:36.335Z</time></trkpt><trkpt lat="41.5711994" lon="2.1213125"><ele>202.0</ele><time>2026-04-03T18:13:37.335Z</time></trkpt><trkpt lat="41.571319" lon="2.1213608"><ele>200.75</ele><time>2026-04-03T18:13:38.324Z</time></trkpt><trkpt lat="41.5714447" lon="2.1214232"><ele>199.5</ele><time>2026-04-03T18:13:39.345Z</time></trkpt><trkpt lat="41.571572" lon="2.1214574"><ele>198.25</ele><time>2026-04-03T18:13:40.321Z</time></trkpt><trkpt lat="41.5717113" lon="2.1214512"><ele>197.0</ele><time>2026-04-03T18:13:41.336Z</time></trkpt><trkpt lat="41.5718436" lon="2.1213989"><ele>197.0</ele><time>2026-04-03T18:13:42.337Z</time></trkpt><trkpt lat="41.5719712" lon="2.1213213"><ele>197.0</ele><time>2026-04-03T18:13:43.335Z</time></trkpt><trkpt lat="41.5720783" lon="2.1212484"><ele>197.0</ele><time>2026-04-03T18:13:44.316Z</time></trkpt><trkpt lat="41.5721865" lon="2.1211875"><ele>197.0</ele><time>2026-04-03T18:13:45.339Z</time></trkpt><trkpt lat="41.5722875" lon="2.1211737"><ele>195.5</ele><time>2026-04-03T18:13:46.328Z</time></trkpt><trkpt lat="41.5724017" lon="2.1212055"><ele>194.0</ele><time>2026-04-03T18:13:47.322Z</time></trkpt><trkpt lat="41.5725154" lon="2.1212828"><ele>192.5</ele><time>2026-04-03T18:13:48.303Z</time></trkpt><trkpt lat="41.5726332" lon="2.1213972"><ele>191.0</ele><time>2026-04-03T18:13:49.314Z</time></trkpt><trkpt lat="41.5727331" lon="2.1215503"><ele>190.66666666666666</ele><time>2026-04-03T18:13:50.326Z</time></trkpt><trkpt lat="41.5728093" lon="2.1217186"><ele>190.33333333333334</ele><time>2026-04-03T18:13:51.326Z</time></trkpt><trkpt lat="41.5728595" lon="2.121928"><ele>190.0</ele><time>2026-04-03T18:13:52.34Z</time></trkpt><trkpt lat="41.5728888" lon="2.1221341"><ele>190.0</ele><time>2026-04-03T18:13:53.329Z</time></trkpt><trkpt lat="41.5729111" lon="2.1223608"><ele>190.0</ele><time>2026-04-03T18:13:54.354Z</time></trkpt><trkpt lat="41.5729254" lon="2.1225527"><ele>190.0</ele><time>2026-04-03T18:13:55.343Z</time></trkpt><trkpt lat="41.5729374" lon="2.1227287"><ele>190.0</ele><time>2026-04-03T18:13:56.331Z</time></trkpt><trkpt lat="41.572942" lon="2.1228882"><ele>190.2</ele><time>2026-04-03T18:13:57.344Z</time></trkpt><trkpt lat="41.5729528" lon="2.1230346"><ele>190.4</ele><time>2026-04-03T18:13:58.317Z</time></trkpt><trkpt lat="41.5729644" lon="2.1231811"><ele>190.60000000000002</ele><time>2026-04-03T18:13:59.334Z</time></trkpt><trkpt lat="41.5729794" lon="2.123329"><ele>190.8</ele><time>2026-04-03T18:14:00.329Z</time></trkpt><trkpt lat="41.5730114" lon="2.1234681"><ele>191.0</ele><time>2026-04-03T18:14:01.344Z</time></trkpt><trkpt lat="41.5730785" lon="2.1235919"><ele>190.5</ele><time>2026-04-03T18:14:02.322Z</time></trkpt><trkpt lat="41.5731837" lon="2.1236804"><ele>190.0</ele><time>2026-04-03T18:14:03.309Z</time></trkpt><trkpt lat="41.5733078" lon="2.123719"><ele>189.5</ele><time>2026-04-03T18:14:04.332Z</time></trkpt><trkpt lat="41.5734395" lon="2.1237171"><ele>189.0</ele><time>2026-04-03T18:14:05.319Z</time></trkpt><trkpt lat="41.5735788" lon="2.1236901"><ele>189.25</ele><time>2026-04-03T18:14:06.35Z</time></trkpt><trkpt lat="41.573714" lon="2.1236694"><ele>189.5</ele><time>2026-04-03T18:14:07.316Z</time></trkpt><trkpt lat="41.573843" lon="2.1236566"><ele>189.75</ele><time>2026-04-03T18:14:08.338Z</time></trkpt><trkpt lat="41.5739726" lon="2.1236651"><ele>190.0</ele><time>2026-04-03T18:14:09.34Z</time></trkpt><trkpt lat="41.5740881" lon="2.1237081"><ele>190.0</ele><time>2026-04-03T18:14:10.312Z</time></trkpt><trkpt lat="41.5742084" lon="2.1237904"><ele>190.0</ele><time>2026-04-03T18:14:11.336Z</time></trkpt><trkpt lat="41.574329" lon="2.1238726"><ele>190.0</ele><time>2026-04-03T18:14:12.299Z</time></trkpt><trkpt lat="41.5744502" lon="2.1239529"><ele>190.0</ele><time>2026-04-03T18:14:13.34Z</time></trkpt><trkpt lat="41.5745674" lon="2.1240197"><ele>191.75</ele><time>2026-04-03T18:14:14.333Z</time></trkpt><trkpt lat="41.5746773" lon="2.1240808"><ele>193.5</ele><time>2026-04-03T18:14:15.306Z</time></trkpt><trkpt lat="41.5747981" lon="2.1241426"><ele>195.25</ele><time>2026-04-03T18:14:16.322Z</time></trkpt><trkpt lat="41.5749167" lon="2.1242075"><ele>197.0</ele><time>2026-04-03T18:14:17.317Z</time></trkpt><trkpt lat="41.5750373" lon="2.1242727"><ele>197.0</ele><time>2026-04-03T18:14:18.318Z</time></trkpt><trkpt lat="41.5751609" lon="2.1243494"><ele>197.0</ele><time>2026-04-03T18:14:19.302Z</time></trkpt><trkpt lat="41.5752701" lon="2.12445"><ele>197.0</ele><time>2026-04-03T18:14:20.303Z</time></trkpt><trkpt lat="41.5753825" lon="2.1245624"><ele>197.0</ele><time>2026-04-03T18:14:21.305Z</time></trkpt><trkpt lat="41.5754964" lon="2.1246697"><ele>197.25</ele><time>2026-04-03T18:14:22.308Z</time></trkpt><trkpt lat="41.5756191" lon="2.1247476"><ele>197.5</ele><time>2026-04-03T18:14:23.309Z</time></trkpt><trkpt lat="41.5757561" lon="2.1248146"><ele>197.75</ele><time>2026-04-03T18:14:24.347Z</time></trkpt><trkpt lat="41.5758914" lon="2.124857"><ele>198.0</ele><time>2026-04-03T18:14:25.314Z</time></trkpt><trkpt lat="41.5760202" lon="2.1248987"><ele>199.25</ele><time>2026-04-03T18:14:26.33Z</time></trkpt><trkpt lat="41.5761409" lon="2.1249163"><ele>200.5</ele><time>2026-04-03T18:14:27.304Z</time></trkpt><trkpt lat="41.5762506" lon="2.1248966"><ele>201.75</ele><time>2026-04-03T18:14:28.291Z</time></trkpt><trkpt lat="41.5763552" lon="2.1248388"><ele>203.0</ele><time>2026-04-03T18:14:29.273Z</time></trkpt><trkpt lat="41.5764474" lon="2.1247693"><ele>203.0</ele><time>2026-04-03T18:14:30.28Z</time></trkpt><trkpt lat="41.5765304" lon="2.1247427"><ele>203.0</ele><time>2026-04-03T18:14:31.276Z</time></trkpt><trkpt lat="41.5766231" lon="2.1247145"><ele>203.0</ele><time>2026-04-03T18:14:32.281Z</time></trkpt><trkpt lat="41.5767256" lon="2.1247155"><ele>203.0</ele><time>2026-04-03T18:14:33.298Z</time></trkpt><trkpt lat="41.5768354" lon="2.1247504"><ele>203.0</ele><time>2026-04-03T18:14:34.304Z</time></trkpt><trkpt lat="41.5769332" lon="2.1248187"><ele>205.0</ele><time>2026-04-03T18:14:35.302Z</time></trkpt><trkpt lat="41.5770143" lon="2.1249247"><ele>207.0</ele><time>2026-04-03T18:14:36.315Z</time></trkpt><trkpt lat="41.577068" lon="2.1250617"><ele>209.0</ele><time>2026-04-03T18:14:37.362Z</time></trkpt><trkpt lat="41.5770946" lon="2.1252042"><ele>211.0</ele><time>2026-04-03T18:14:38.335Z</time></trkpt><trkpt lat="41.5771205" lon="2.1253532"><ele>211.0</ele><time>2026-04-03T18:14:39.334Z</time></trkpt><trkpt lat="41.5771595" lon="2.1254789"><ele>211.0</ele><time>2026-04-03T18:14:40.317Z</time></trkpt><trkpt lat="41.5772159" lon="2.1255896"><ele>211.0</ele><time>2026-04-03T18:14:41.339Z</time></trkpt><trkpt lat="41.5773" lon="2.125642"><ele>211.0</ele><time>2026-04-03T18:14:42.317Z</time></trkpt><trkpt lat="41.5774028" lon="2.1256484"><ele>211.0</ele><time>2026-04-03T18:14:43.333Z</time></trkpt><trkpt lat="41.5774974" lon="2.1255957"><ele>211.0</ele><time>2026-04-03T18:14:44.309Z</time></trkpt><trkpt lat="41.5775549" lon="2.1255093"><ele>211.0</ele><time>2026-04-03T18:14:45.328Z</time></trkpt><trkpt lat="41.5776034" lon="2.1253809"><ele>211.0</ele><time>2026-04-03T18:14:46.302Z</time></trkpt><trkpt lat="41.5776481" lon="2.1252459"><ele>211.0</ele><time>2026-04-03T18:14:47.327Z</time></trkpt><trkpt lat="41.5777134" lon="2.1251385"><ele>211.0</ele><time>2026-04-03T18:14:48.318Z</time></trkpt><trkpt lat="41.5777981" lon="2.1250547"><ele>210.25</ele><time>2026-04-03T18:14:49.308Z</time></trkpt><trkpt lat="41.5778999" lon="2.1249867"><ele>209.5</ele><time>2026-04-03T18:14:50.318Z</time></trkpt><trkpt lat="41.5780022" lon="2.1249261"><ele>208.75</ele><time>2026-04-03T18:14:51.312Z</time></trkpt><trkpt lat="41.5781167" lon="2.124863"><ele>208.0</ele><time>2026-04-03T18:14:52.356Z</time></trkpt><trkpt lat="41.5782166" lon="2.1248094"><ele>208.0</ele><time>2026-04-03T18:14:53.316Z</time></trkpt><trkpt lat="41.5783156" lon="2.1247573"><ele>208.0</ele><time>2026-04-03T18:14:54.301Z</time></trkpt><trkpt lat="41.578411" lon="2.1246999"><ele>208.0</ele><time>2026-04-03T18:14:55.331Z</time></trkpt><trkpt lat="41.5784968" lon="2.1246519"><ele>208.0</ele><time>2026-04-03T18:14:56.311Z</time></trkpt><trkpt lat="41.5785828" lon="2.1246186"><ele>208.0</ele><time>2026-04-03T18:14:57.316Z</time></trkpt><trkpt lat="41.5786706" lon="2.12461"><ele>209.8</ele><time>2026-04-03T18:14:58.308Z</time></trkpt><trkpt lat="41.5787562" lon="2.1246347"><ele>211.60000000000002</ele><time>2026-04-03T18:14:59.342Z</time></trkpt><trkpt lat="41.5788291" lon="2.124693"><ele>213.39999999999998</ele><time>2026-04-03T18:15:00.329Z</time></trkpt><trkpt lat="41.5788876" lon="2.124783"><ele>215.2</ele><time>2026-04-03T18:15:01.323Z</time></trkpt><trkpt lat="41.5789269" lon="2.1248988"><ele>217.0</ele><time>2026-04-03T18:15:02.349Z</time></trkpt><trkpt lat="41.5789548" lon="2.1250377"><ele>219.39999999999998</ele><time>2026-04-03T18:15:03.353Z</time></trkpt><trkpt lat="41.5789625" lon="2.1251709"><ele>221.79999999999998</ele><time>2026-04-03T18:15:04.349Z</time></trkpt><trkpt lat="41.5789594" lon="2.1252988"><ele>224.2</ele><time>2026-04-03T18:15:05.34Z</time></trkpt><trkpt lat="41.5789562" lon="2.1254209"><ele>226.6</ele><time>2026-04-03T18:15:06.322Z</time></trkpt><trkpt lat="41.5789554" lon="2.1255441"><ele>229.0</ele><time>2026-04-03T18:15:07.334Z</time></trkpt><trkpt lat="41.578968" lon="2.1256577"><ele>231.39999999999998</ele><time>2026-04-03T18:15:08.332Z</time></trkpt><trkpt lat="41.5790067" lon="2.1257652"><ele>233.79999999999998</ele><time>2026-04-03T18:15:09.325Z</time></trkpt><trkpt lat="41.5790757" lon="2.1258424"><ele>236.20000000000002</ele><time>2026-04-03T18:15:10.315Z</time></trkpt><trkpt lat="41.57918" lon="2.1258812"><ele>238.60000000000002</ele><time>2026-04-03T18:15:11.343Z</time></trkpt><trkpt lat="41.5792803" lon="2.1258657"><ele>241.0</ele><time>2026-04-03T18:15:12.343Z</time></trkpt><trkpt lat="41.5793712" lon="2.125801"><ele>239.8</ele><time>2026-04-03T18:15:13.338Z</time></trkpt><trkpt lat="41.5794333" lon="2.1257074"><ele>238.60000000000002</ele><time>2026-04-03T18:15:14.298Z</time></trkpt><trkpt lat="41.5794717" lon="2.1255893"><ele>237.4</ele><time>2026-04-03T18:15:15.311Z</time></trkpt><trkpt lat="41.5794984" lon="2.1254688"><ele>236.2</ele><time>2026-04-03T18:15:16.321Z</time></trkpt><trkpt lat="41.5795281" lon="2.1253477"><ele>235.0</ele><time>2026-04-03T18:15:17.328Z</time></trkpt><trkpt lat="41.5795777" lon="2.125232"><ele>235.0</ele><time>2026-04-03T18:15:18.347Z</time></trkpt><trkpt lat="41.5796425" lon="2.1251508"><ele>235.0</ele><time>2026-04-03T18:15:19.309Z</time></trkpt><trkpt lat="41.5797252" lon="2.1251082"><ele>235.0</ele><time>2026-04-03T18:15:20.33Z</time></trkpt><trkpt lat="41.5798214" lon="2.1251199"><ele>235.0</ele><time>2026-04-03T18:15:21.324Z</time></trkpt><trkpt lat="41.5799072" lon="2.1251749"><ele>235.0</ele><time>2026-04-03T18:15:22.318Z</time></trkpt><trkpt lat="41.5799757" lon="2.1252769"><ele>235.0</ele><time>2026-04-03T18:15:23.336Z</time></trkpt><trkpt lat="41.580032" lon="2.1254009"><ele>235.0</ele><time>2026-04-03T18:15:24.321Z</time></trkpt><trkpt lat="41.5800866" lon="2.1255403"><ele>235.0</ele><time>2026-04-03T18:15:25.342Z</time></trkpt><trkpt lat="41.5801396" lon="2.125685"><ele>235.0</ele><time>2026-04-03T18:15:26.341Z</time></trkpt><trkpt lat="41.5801965" lon="2.1258302"><ele>236.75</ele><time>2026-04-03T18:15:27.328Z</time></trkpt><trkpt lat="41.5802498" lon="2.1259732"><ele>238.5</ele><time>2026-04-03T18:15:28.34Z</time></trkpt><trkpt lat="41.5803001" lon="2.1261037"><ele>240.25</ele><time>2026-04-03T18:15:29.313Z</time></trkpt><trkpt lat="41.5803533" lon="2.1262402"><ele>242.0</ele><time>2026-04-03T18:15:30.329Z</time></trkpt><trkpt lat="41.5804077" lon="2.1263742"><ele>242.0</ele><time>2026-04-03T18:15:31.318Z</time></trkpt><trkpt lat="41.5804609" lon="2.1265049"><ele>242.0</ele><time>2026-04-03T18:15:32.317Z</time></trkpt><trkpt lat="41.5805098" lon="2.1266348"><ele>242.0</ele><time>2026-04-03T18:15:33.305Z</time></trkpt><trkpt lat="41.5805562" lon="2.1267572"><ele>242.0</ele><time>2026-04-03T18:15:34.331Z</time></trkpt><trkpt lat="41.5805996" lon="2.1268597"><ele>242.0</ele><time>2026-04-03T18:15:35.323Z</time></trkpt><trkpt lat="41.5806458" lon="2.1269429"><ele>243.00000000000003</ele><time>2026-04-03T18:15:36.292Z</time></trkpt><trkpt lat="41.5807144" lon="2.1270047"><ele>244.0</ele><time>2026-04-03T18:15:37.304Z</time></trkpt><trkpt lat="41.580799" lon="2.1270314"><ele>245.0</ele><time>2026-04-03T18:15:38.303Z</time></trkpt><trkpt lat="41.5808852" lon="2.1270084"><ele>246.0</ele><time>2026-04-03T18:15:39.318Z</time></trkpt><trkpt lat="41.5809633" lon="2.1269439"><ele>247.00000000000003</ele><time>2026-04-03T18:15:40.326Z</time></trkpt><trkpt lat="41.5810156" lon="2.1268431"><ele>248.0</ele><time>2026-04-03T18:15:41.316Z</time></trkpt><trkpt lat="41.5810463" lon="2.1267168"><ele>248.0</ele><time>2026-04-03T18:15:42.312Z</time></trkpt><trkpt lat="41.5810503" lon="2.126591"><ele>248.0</ele><time>2026-04-03T18:15:43.331Z</time></trkpt><trkpt lat="41.5810434" lon="2.1264708"><ele>248.0</ele><time>2026-04-03T18:15:44.298Z</time></trkpt><trkpt lat="41.5810331" lon="2.126343"><ele>248.0</ele><time>2026-04-03T18:15:45.327Z</time></trkpt><trkpt lat="41.5810265" lon="2.126207"><ele>248.0</ele><time>2026-04-03T18:15:46.333Z</time></trkpt><trkpt lat="41.5810137" lon="2.1260706"><ele>247.00000000000003</ele><time>2026-04-03T18:15:47.326Z</time></trkpt><trkpt lat="41.5810042" lon="2.1259353"><ele>246.0</ele><time>2026-04-03T18:15:48.326Z</time></trkpt><trkpt lat="41.5809966" lon="2.1258145"><ele>245.0</ele><time>2026-04-03T18:15:49.322Z</time></trkpt><trkpt lat="41.5809906" lon="2.1257188"><ele>244.0</ele><time>2026-04-03T18:15:50.327Z</time></trkpt><trkpt lat="41.5809896" lon="2.1256346"><ele>243.00000000000003</ele><time>2026-04-03T18:15:51.333Z</time></trkpt><trkpt lat="41.5810046" lon="2.125476"><ele>242.0</ele><time>2026-04-03T18:15:53.326Z</time></trkpt><trkpt lat="41.5810333" lon="2.125398"><ele>240.6</ele><time>2026-04-03T18:15:54.454Z</time></trkpt><trkpt lat="41.5811525" lon="2.1253079"><ele>239.2</ele><time>2026-04-03T18:15:56.33Z</time></trkpt><trkpt lat="41.5812303" lon="2.1253254"><ele>237.8</ele><time>2026-04-03T18:15:57.348Z</time></trkpt><trkpt lat="41.5812939" lon="2.1253983"><ele>236.4</ele><time>2026-04-03T18:15:58.343Z</time></trkpt><trkpt lat="41.5813267" lon="2.1255286"><ele>235.0</ele><time>2026-04-03T18:15:59.355Z</time></trkpt><trkpt lat="41.5813239" lon="2.1256675"><ele>236.4</ele><time>2026-04-03T18:16:00.356Z</time></trkpt><trkpt lat="41.5813073" lon="2.1258097"><ele>237.8</ele><time>2026-04-03T18:16:01.347Z</time></trkpt><trkpt lat="41.5812882" lon="2.1259483"><ele>239.2</ele><time>2026-04-03T18:16:02.317Z</time></trkpt><trkpt lat="41.5812802" lon="2.1260948"><ele>240.6</ele><time>2026-04-03T18:16:03.361Z</time></trkpt><trkpt lat="41.5812904" lon="2.1262289"><ele>242.0</ele><time>2026-04-03T18:16:04.321Z</time></trkpt><trkpt lat="41.5813311" lon="2.1263663"><ele>242.0</ele><time>2026-04-03T18:16:05.325Z</time></trkpt><trkpt lat="41.5814023" lon="2.1264788"><ele>242.0</ele><time>2026-04-03T18:16:06.33Z</time></trkpt><trkpt lat="41.581493" lon="2.1265493"><ele>242.0</ele><time>2026-04-03T18:16:07.352Z</time></trkpt><trkpt lat="41.5815897" lon="2.126558"><ele>242.0</ele><time>2026-04-03T18:16:08.327Z</time></trkpt><trkpt lat="41.5816891" lon="2.1265077"><ele>242.0</ele><time>2026-04-03T18:16:09.343Z</time></trkpt><trkpt lat="41.5817803" lon="2.1263969"><ele>242.0</ele><time>2026-04-03T18:16:10.33Z</time></trkpt><trkpt lat="41.5818623" lon="2.1262585"><ele>242.0</ele><time>2026-04-03T18:16:11.312Z</time></trkpt><trkpt lat="41.5819462" lon="2.126113"><ele>242.0</ele><time>2026-04-03T18:16:12.425Z</time></trkpt><trkpt lat="41.5820233" lon="2.1260004"><ele>242.0</ele><time>2026-04-03T18:16:13.327Z</time></trkpt><trkpt lat="41.5821153" lon="2.1258893"><ele>241.0</ele><time>2026-04-03T18:16:14.331Z</time></trkpt><trkpt lat="41.5822227" lon="2.1257967"><ele>240.0</ele><time>2026-04-03T18:16:15.329Z</time></trkpt><trkpt lat="41.582354" lon="2.1257148"><ele>239.0</ele><time>2026-04-03T18:16:16.422Z</time></trkpt><trkpt lat="41.5824631" lon="2.1256529"><ele>238.0</ele><time>2026-04-03T18:16:17.336Z</time></trkpt><trkpt lat="41.5825828" lon="2.1255975"><ele>238.0</ele><time>2026-04-03T18:16:18.325Z</time></trkpt><trkpt lat="41.5827005" lon="2.1255561"><ele>238.0</ele><time>2026-04-03T18:16:19.327Z</time></trkpt><trkpt lat="41.5828024" lon="2.1255544"><ele>238.0</ele><time>2026-04-03T18:16:20.321Z</time></trkpt><trkpt lat="41.5828669" lon="2.125603"><ele>238.0</ele><time>2026-04-03T18:16:21.336Z</time></trkpt><trkpt lat="41.5829235" lon="2.1257046"><ele>238.0</ele><time>2026-04-03T18:16:22.331Z</time></trkpt><trkpt lat="41.5829451" lon="2.1258437"><ele>239.5</ele><time>2026-04-03T18:16:23.337Z</time></trkpt><trkpt lat="41.5829418" lon="2.1260064"><ele>241.0</ele><time>2026-04-03T18:16:24.328Z</time></trkpt><trkpt lat="41.5829187" lon="2.1261673"><ele>242.5</ele><time>2026-04-03T18:16:25.345Z</time></trkpt><trkpt lat="41.5828777" lon="2.1263195"><ele>244.0</ele><time>2026-04-03T18:16:26.331Z</time></trkpt><trkpt lat="41.582817" lon="2.1264743"><ele>248.25</ele><time>2026-04-03T18:16:27.334Z</time></trkpt><trkpt lat="41.5827605" lon="2.1266162"><ele>252.5</ele><time>2026-04-03T18:16:28.336Z</time></trkpt><trkpt lat="41.5827162" lon="2.1267594"><ele>256.75</ele><time>2026-04-03T18:16:29.337Z</time></trkpt><trkpt lat="41.5827066" lon="2.1269066"><ele>261.0</ele><time>2026-04-03T18:16:30.364Z</time></trkpt><trkpt lat="41.58274" lon="2.1270466"><ele>261.0</ele><time>2026-04-03T18:16:31.335Z</time></trkpt><trkpt lat="41.5828022" lon="2.1271859"><ele>261.0</ele><time>2026-04-03T18:16:32.334Z</time></trkpt><trkpt lat="41.5828744" lon="2.1273372"><ele>261.0</ele><time>2026-04-03T18:16:33.344Z</time></trkpt><trkpt lat="41.5829505" lon="2.1274799"><ele>261.0</ele><time>2026-04-03T18:16:34.336Z</time></trkpt><trkpt lat="41.5830188" lon="2.1276087"><ele>260.25</ele><time>2026-04-03T18:16:35.319Z</time></trkpt><trkpt lat="41.5830937" lon="2.1277385"><ele>259.5</ele><time>2026-04-03T18:16:36.335Z</time></trkpt><trkpt lat="41.5831792" lon="2.1278418"><ele>258.75</ele><time>2026-04-03T18:16:37.326Z</time></trkpt><trkpt lat="41.5832755" lon="2.127913"><ele>258.0</ele><time>2026-04-03T18:16:38.337Z</time></trkpt><trkpt lat="41.5833695" lon="2.1279855"><ele>258.0</ele><time>2026-04-03T18:16:39.349Z</time></trkpt><trkpt lat="41.5834479" lon="2.1280794"><ele>258.0</ele><time>2026-04-03T18:16:40.333Z</time></trkpt><trkpt lat="41.583501" lon="2.1282227"><ele>258.0</ele><time>2026-04-03T18:16:41.354Z</time></trkpt><trkpt lat="41.5835192" lon="2.1283939"><ele>258.0</ele><time>2026-04-03T18:16:42.329Z</time></trkpt><trkpt lat="41.5835287" lon="2.1285733"><ele>260.0</ele><time>2026-04-03T18:16:43.332Z</time></trkpt><trkpt lat="41.5835589" lon="2.1287367"><ele>262.0</ele><time>2026-04-03T18:16:44.312Z</time></trkpt><trkpt lat="41.5836317" lon="2.1288908"><ele>264.0</ele><time>2026-04-03T18:16:45.334Z</time></trkpt><trkpt lat="41.5837357" lon="2.1290265"><ele>266.0</ele><time>2026-04-03T18:16:46.34Z</time></trkpt><trkpt lat="41.5838539" lon="2.1291329"><ele>267.25</ele><time>2026-04-03T18:16:47.315Z</time></trkpt><trkpt lat="41.5839749" lon="2.1292363"><ele>268.5</ele><time>2026-04-03T18:16:48.325Z</time></trkpt><trkpt lat="41.5841054" lon="2.1293433"><ele>269.75</ele><time>2026-04-03T18:16:49.345Z</time></trkpt><trkpt lat="41.5842271" lon="2.1294548"><ele>271.0</ele><time>2026-04-03T18:16:50.332Z</time></trkpt><trkpt lat="41.5843492" lon="2.1295634"><ele>271.0</ele><time>2026-04-03T18:16:51.35Z</time></trkpt><trkpt lat="41.5844648" lon="2.1296647"><ele>271.0</ele><time>2026-04-03T18:16:52.343Z</time></trkpt><trkpt lat="41.5845724" lon="2.1297588"><ele>271.0</ele><time>2026-04-03T18:16:53.335Z</time></trkpt><trkpt lat="41.5846771" lon="2.129848"><ele>271.0</ele><time>2026-04-03T18:16:54.33Z</time></trkpt><trkpt lat="41.5847828" lon="2.1299256"><ele>271.5</ele><time>2026-04-03T18:16:55.332Z</time></trkpt><trkpt lat="41.5848957" lon="2.1299795"><ele>272.0</ele><time>2026-04-03T18:16:56.334Z</time></trkpt><trkpt lat="41.5850209" lon="2.1299982"><ele>272.5</ele><time>2026-04-03T18:16:57.344Z</time></trkpt><trkpt lat="41.5851471" lon="2.1299883"><ele>273.0</ele><time>2026-04-03T18:16:58.347Z</time></trkpt><trkpt lat="41.5852754" lon="2.1299599"><ele>273.5</ele><time>2026-04-03T18:16:59.346Z</time></trkpt><trkpt lat="41.5854098" lon="2.1299389"><ele>274.0</ele><time>2026-04-03T18:17:00.343Z</time></trkpt><trkpt lat="41.5855319" lon="2.1299526"><ele>274.5</ele><time>2026-04-03T18:17:01.325Z</time></trkpt><trkpt lat="41.5856577" lon="2.129984"><ele>275.0</ele><time>2026-04-03T18:17:02.319Z</time></trkpt><trkpt lat="41.5857858" lon="2.1300116"><ele>275.0</ele><time>2026-04-03T18:17:03.317Z</time></trkpt><trkpt lat="41.5859142" lon="2.1300015"><ele>275.0</ele><time>2026-04-03T18:17:04.319Z</time></trkpt><trkpt lat="41.5860443" lon="2.1299462"><ele>275.0</ele><time>2026-04-03T18:17:05.332Z</time></trkpt><trkpt lat="41.5861713" lon="2.1298777"><ele>275.0</ele><time>2026-04-03T18:17:06.327Z</time></trkpt><trkpt lat="41.5863022" lon="2.129801"><ele>274.25</ele><time>2026-04-03T18:17:07.366Z</time></trkpt><trkpt lat="41.5864267" lon="2.129736"><ele>273.5</ele><time>2026-04-03T18:17:08.317Z</time></trkpt><trkpt lat="41.5865744" lon="2.129689"><ele>272.75</ele><time>2026-04-03T18:17:09.348Z</time></trkpt><trkpt lat="41.5867238" lon="2.129666"><ele>272.0</ele><time>2026-04-03T18:17:10.332Z</time></trkpt><trkpt lat="41.5868744" lon="2.1296509"><ele>273.6666666666667</ele><time>2026-04-03T18:17:11.332Z</time></trkpt><trkpt lat="41.5870242" lon="2.1296358"><ele>275.3333333333333</ele><time>2026-04-03T18:17:12.325Z</time></trkpt><trkpt lat="41.5871745" lon="2.1296135"><ele>277.0</ele><time>2026-04-03T18:17:13.325Z</time></trkpt><trkpt lat="41.5873225" lon="2.1296015"><ele>277.0</ele><time>2026-04-03T18:17:14.315Z</time></trkpt><trkpt lat="41.5874498" lon="2.1296155"><ele>277.0</ele><time>2026-04-03T18:17:15.338Z</time></trkpt><trkpt lat="41.5875787" lon="2.1296624"><ele>277.0</ele><time>2026-04-03T18:17:16.327Z</time></trkpt><trkpt lat="41.5876997" lon="2.1297055"><ele>277.0</ele><time>2026-04-03T18:17:17.315Z</time></trkpt><trkpt lat="41.5878229" lon="2.129702"><ele>276.75</ele><time>2026-04-03T18:17:18.331Z</time></trkpt><trkpt lat="41.5879355" lon="2.1296393"><ele>276.5</ele><time>2026-04-03T18:17:19.34Z</time></trkpt><trkpt lat="41.5880479" lon="2.1295179"><ele>276.25</ele><time>2026-04-03T18:17:20.313Z</time></trkpt><trkpt lat="41.5881619" lon="2.129373"><ele>276.0</ele><time>2026-04-03T18:17:21.349Z</time></trkpt><trkpt lat="41.5882813" lon="2.1292587"><ele>276.0</ele><time>2026-04-03T18:17:22.329Z</time></trkpt><trkpt lat="41.588411" lon="2.129146"><ele>276.0</ele><time>2026-04-03T18:17:23.322Z</time></trkpt><trkpt lat="41.5885531" lon="2.1290509"><ele>276.0</ele><time>2026-04-03T18:17:24.314Z</time></trkpt><trkpt lat="41.5887108" lon="2.12895"><ele>276.0</ele><time>2026-04-03T18:17:25.336Z</time></trkpt><trkpt lat="41.5888769" lon="2.1288485"><ele>276.0</ele><time>2026-04-03T18:17:26.332Z</time></trkpt><trkpt lat="41.5890379" lon="2.1287508"><ele>276.0</ele><time>2026-04-03T18:17:27.332Z</time></trkpt><trkpt lat="41.5891886" lon="2.1286672"><ele>276.0</ele><time>2026-04-03T18:17:28.345Z</time></trkpt><trkpt lat="41.5893469" lon="2.1285823"><ele>276.0</ele><time>2026-04-03T18:17:29.338Z</time></trkpt><trkpt lat="41.589513" lon="2.1284988"><ele>276.0</ele><time>2026-04-03T18:17:30.321Z</time></trkpt><trkpt lat="41.5896966" lon="2.1284082"><ele>275.3333333333333</ele><time>2026-04-03T18:17:31.367Z</time></trkpt><trkpt lat="41.5898661" lon="2.128334"><ele>274.66666666666663</ele><time>2026-04-03T18:17:32.325Z</time></trkpt><trkpt lat="41.5900484" lon="2.1282576"><ele>274.0</ele><time>2026-04-03T18:17:33.324Z</time></trkpt><trkpt lat="41.5902337" lon="2.1281857"><ele>275.3333333333333</ele><time>2026-04-03T18:17:34.333Z</time></trkpt><trkpt lat="41.5904135" lon="2.1281083"><ele>276.6666666666667</ele><time>2026-04-03T18:17:35.34Z</time></trkpt><trkpt lat="41.5905901" lon="2.1280338"><ele>278.0</ele><time>2026-04-03T18:17:36.321Z</time></trkpt><trkpt lat="41.5907839" lon="2.1279595"><ele>278.0</ele><time>2026-04-03T18:17:37.386Z</time></trkpt><trkpt lat="41.5909499" lon="2.1279109"><ele>278.0</ele><time>2026-04-03T18:17:38.3Z</time></trkpt><trkpt lat="41.5911293" lon="2.1278687"><ele>278.0</ele><time>2026-04-03T18:17:39.32Z</time></trkpt><trkpt lat="41.5913019" lon="2.1278376"><ele>278.33333333333337</ele><time>2026-04-03T18:17:40.329Z</time></trkpt><trkpt lat="41.5914714" lon="2.1278021"><ele>278.6666666666667</ele><time>2026-04-03T18:17:41.325Z</time></trkpt><trkpt lat="41.5916374" lon="2.1277774"><ele>279.0</ele><time>2026-04-03T18:17:42.319Z</time></trkpt><trkpt lat="41.5917982" lon="2.1277712"><ele>279.0</ele><time>2026-04-03T18:17:43.323Z</time></trkpt><trkpt lat="41.5919551" lon="2.1277704"><ele>279.0</ele><time>2026-04-03T18:17:44.319Z</time></trkpt><trkpt lat="41.5921187" lon="2.1277955"><ele>279.0</ele><time>2026-04-03T18:17:45.333Z</time></trkpt><trkpt lat="41.5922843" lon="2.1278322"><ele>280.6666666666667</ele><time>2026-04-03T18:17:46.316Z</time></trkpt><trkpt lat="41.5924548" lon="2.1278841"><ele>282.33333333333337</ele><time>2026-04-03T18:17:47.351Z</time></trkpt><trkpt lat="41.5926118" lon="2.1279345"><ele>284.0</ele><time>2026-04-03T18:17:48.332Z</time></trkpt><trkpt lat="41.5927691" lon="2.127982"><ele>284.6666666666667</ele><time>2026-04-03T18:17:49.338Z</time></trkpt><trkpt lat="41.59291" lon="2.1280276"><ele>285.3333333333333</ele><time>2026-04-03T18:17:50.322Z</time></trkpt><trkpt lat="41.5930664" lon="2.1280817"><ele>286.0</ele><time>2026-04-03T18:17:51.448Z</time></trkpt><trkpt lat="41.5932904" lon="2.1282178"><ele>287.25</ele><time>2026-04-03T18:17:53.322Z</time></trkpt><trkpt lat="41.5933875" lon="2.1283537"><ele>288.5</ele><time>2026-04-03T18:17:54.33Z</time></trkpt><trkpt lat="41.5934521" lon="2.128512"><ele>289.75</ele><time>2026-04-03T18:17:55.332Z</time></trkpt><trkpt lat="41.5935039" lon="2.1286942"><ele>291.0</ele><time>2026-04-03T18:17:56.358Z</time></trkpt><trkpt lat="41.5935487" lon="2.1288748"><ele>291.0</ele><time>2026-04-03T18:17:57.359Z</time></trkpt><trkpt lat="41.5935871" lon="2.1290259"><ele>291.0</ele><time>2026-04-03T18:17:58.336Z</time></trkpt><trkpt lat="41.5936338" lon="2.1291682"><ele>291.0</ele><time>2026-04-03T18:17:59.334Z</time></trkpt><trkpt lat="41.5936898" lon="2.1292864"><ele>291.0</ele><time>2026-04-03T18:18:00.339Z</time></trkpt><trkpt lat="41.5937746" lon="2.1293642"><ele>291.0</ele><time>2026-04-03T18:18:01.35Z</time></trkpt><trkpt lat="41.5938788" lon="2.1294161"><ele>292.25</ele><time>2026-04-03T18:18:02.322Z</time></trkpt><trkpt lat="41.5939801" lon="2.1294572"><ele>293.5</ele><time>2026-04-03T18:18:03.318Z</time></trkpt><trkpt lat="41.5940823" lon="2.1294657"><ele>294.75</ele><time>2026-04-03T18:18:04.311Z</time></trkpt><trkpt lat="41.594196" lon="2.1294324"><ele>296.0</ele><time>2026-04-03T18:18:05.326Z</time></trkpt><trkpt lat="41.5943641" lon="2.1294055"><ele>296.0</ele><time>2026-04-03T18:18:06.328Z</time></trkpt><trkpt lat="41.59449" lon="2.1293051"><ele>296.0</ele><time>2026-04-03T18:18:07.361Z</time></trkpt><trkpt lat="41.5946115" lon="2.1292002"><ele>296.0</ele><time>2026-04-03T18:18:08.33Z</time></trkpt><trkpt lat="41.59473" lon="2.1291009"><ele>296.0</ele><time>2026-04-03T18:18:09.305Z</time></trkpt><trkpt lat="41.5948751" lon="2.1290144"><ele>298.6666666666667</ele><time>2026-04-03T18:18:10.345Z</time></trkpt><trkpt lat="41.5950233" lon="2.1289521"><ele>301.3333333333333</ele><time>2026-04-03T18:18:11.319Z</time></trkpt><trkpt lat="41.5951864" lon="2.128926"><ele>304.0</ele><time>2026-04-03T18:18:12.328Z</time></trkpt><trkpt lat="41.5953357" lon="2.1289502"><ele>303.0</ele><time>2026-04-03T18:18:13.315Z</time></trkpt><trkpt lat="41.5954885" lon="2.1290208"><ele>302.0</ele><time>2026-04-03T18:18:14.323Z</time></trkpt><trkpt lat="41.5956296" lon="2.1291076"><ele>301.0</ele><time>2026-04-03T18:18:15.333Z</time></trkpt><trkpt lat="41.5957426" lon="2.1291731"><ele>300.0</ele><time>2026-04-03T18:18:16.333Z</time></trkpt><trkpt lat="41.5958627" lon="2.1291657"><ele>300.0</ele><time>2026-04-03T18:18:17.354Z</time></trkpt><trkpt lat="41.5959791" lon="2.1290933"><ele>300.0</ele><time>2026-04-03T18:18:18.36Z</time></trkpt><trkpt lat="41.5960904" lon="2.128987"><ele>300.0</ele><time>2026-04-03T18:18:19.325Z</time></trkpt><trkpt lat="41.5962072" lon="2.1288668"><ele>300.0</ele><time>2026-04-03T18:18:20.339Z</time></trkpt><trkpt lat="41.5963285" lon="2.1287457"><ele>299.25</ele><time>2026-04-03T18:18:21.352Z</time></trkpt><trkpt lat="41.5964541" lon="2.1286393"><ele>298.5</ele><time>2026-04-03T18:18:22.357Z</time></trkpt><trkpt lat="41.596576" lon="2.1285709"><ele>297.75</ele><time>2026-04-03T18:18:23.322Z</time></trkpt><trkpt lat="41.5967223" lon="2.1285324"><ele>297.0</ele><time>2026-04-03T18:18:24.338Z</time></trkpt><trkpt lat="41.5968532" lon="2.1285589"><ele>297.0</ele><time>2026-04-03T18:18:25.332Z</time></trkpt><trkpt lat="41.5969471" lon="2.1286418"><ele>297.0</ele><time>2026-04-03T18:18:26.32Z</time></trkpt><trkpt lat="41.5970208" lon="2.128786"><ele>297.0</ele><time>2026-04-03T18:18:27.327Z</time></trkpt><trkpt lat="41.5970492" lon="2.1289731"><ele>297.0</ele><time>2026-04-03T18:18:28.342Z</time></trkpt><trkpt lat="41.5970286" lon="2.1291829"><ele>294.0</ele><time>2026-04-03T18:18:29.315Z</time></trkpt><trkpt lat="41.596988" lon="2.1294233"><ele>291.0</ele><time>2026-04-03T18:18:30.317Z</time></trkpt><trkpt lat="41.596935" lon="2.1296568"><ele>288.0</ele><time>2026-04-03T18:18:31.341Z</time></trkpt><trkpt lat="41.5968797" lon="2.1298665"><ele>285.3333333333333</ele><time>2026-04-03T18:18:32.318Z</time></trkpt><trkpt lat="41.5968313" lon="2.1300791"><ele>282.66666666666663</ele><time>2026-04-03T18:18:33.333Z</time></trkpt><trkpt lat="41.59678" lon="2.1302749"><ele>280.0</ele><time>2026-04-03T18:18:34.326Z</time></trkpt><trkpt lat="41.5967298" lon="2.1304623"><ele>280.0</ele><time>2026-04-03T18:18:35.309Z</time></trkpt><trkpt lat="41.5966734" lon="2.1306421"><ele>280.0</ele><time>2026-04-03T18:18:36.32Z</time></trkpt><trkpt lat="41.59662" lon="2.1307992"><ele>280.0</ele><time>2026-04-03T18:18:37.329Z</time></trkpt><trkpt lat="41.596575" lon="2.130935"><ele>280.0</ele><time>2026-04-03T18:18:38.317Z</time></trkpt><trkpt lat="41.5965541" lon="2.1310464"><ele>280.25</ele><time>2026-04-03T18:18:39.326Z</time></trkpt><trkpt lat="41.5966045" lon="2.1312923"><ele>280.5</ele><time>2026-04-03T18:18:41.354Z</time></trkpt><trkpt lat="41.5966844" lon="2.1313462"><ele>280.75</ele><time>2026-04-03T18:18:42.326Z</time></trkpt><trkpt lat="41.5968002" lon="2.1313446"><ele>281.0</ele><time>2026-04-03T18:18:43.348Z</time></trkpt><trkpt lat="41.5969231" lon="2.1312966"><ele>282.0</ele><time>2026-04-03T18:18:44.339Z</time></trkpt><trkpt lat="41.597041" lon="2.1312234"><ele>283.0</ele><time>2026-04-03T18:18:45.32Z</time></trkpt><trkpt lat="41.5971753" lon="2.1311512"><ele>284.0</ele><time>2026-04-03T18:18:46.344Z</time></trkpt><trkpt lat="41.5972972" lon="2.1310946"><ele>285.0</ele><time>2026-04-03T18:18:47.333Z</time></trkpt><trkpt lat="41.5974242" lon="2.1310855"><ele>285.0</ele><time>2026-04-03T18:18:48.365Z</time></trkpt><trkpt lat="41.5975003" lon="2.1311433"><ele>285.0</ele><time>2026-04-03T18:18:49.34Z</time></trkpt><trkpt lat="41.5975961" lon="2.1312449"><ele>285.0</ele><time>2026-04-03T18:18:50.334Z</time></trkpt><trkpt lat="41.5976721" lon="2.1313984"><ele>285.0</ele><time>2026-04-03T18:18:51.346Z</time></trkpt><trkpt lat="41.5976974" lon="2.1315752"><ele>282.3333333333333</ele><time>2026-04-03T18:18:52.314Z</time></trkpt><trkpt lat="41.5976876" lon="2.1317786"><ele>279.66666666666663</ele><time>2026-04-03T18:18:53.362Z</time></trkpt><trkpt lat="41.5976242" lon="2.1319567"><ele>277.0</ele><time>2026-04-03T18:18:54.344Z</time></trkpt><trkpt lat="41.5975153" lon="2.1321035"><ele>277.0</ele><time>2026-04-03T18:18:55.351Z</time></trkpt><trkpt lat="41.5974042" lon="2.1322379"><ele>277.0</ele><time>2026-04-03T18:18:56.318Z</time></trkpt><trkpt lat="41.5972962" lon="2.1323699"><ele>277.0</ele><time>2026-04-03T18:18:57.321Z</time></trkpt><trkpt lat="41.5972027" lon="2.1324708"><ele>277.0</ele><time>2026-04-03T18:18:58.344Z</time></trkpt><trkpt lat="41.5971325" lon="2.1325906"><ele>276.2</ele><time>2026-04-03T18:18:59.33Z</time></trkpt><trkpt lat="41.5971015" lon="2.1327026"><ele>275.4</ele><time>2026-04-03T18:19:00.42Z</time></trkpt><trkpt lat="41.597144" lon="2.1328597"><ele>274.6</ele><time>2026-04-03T18:19:02.321Z</time></trkpt><trkpt lat="41.5972246" lon="2.132939"><ele>273.8</ele><time>2026-04-03T18:19:03.347Z</time></trkpt><trkpt lat="41.597318" lon="2.1329541"><ele>273.0</ele><time>2026-04-03T18:19:04.359Z</time></trkpt><trkpt lat="41.5974165" lon="2.1329234"><ele>273.0</ele><time>2026-04-03T18:19:05.316Z</time></trkpt><trkpt lat="41.5975298" lon="2.1328479"><ele>273.0</ele><time>2026-04-03T18:19:06.336Z</time></trkpt><trkpt lat="41.5976353" lon="2.1327575"><ele>273.0</ele><time>2026-04-03T18:19:07.327Z</time></trkpt><trkpt lat="41.5977433" lon="2.1326547"><ele>273.0</ele><time>2026-04-03T18:19:08.334Z</time></trkpt><trkpt lat="41.5978418" lon="2.1325476"><ele>272.75</ele><time>2026-04-03T18:19:09.326Z</time></trkpt><trkpt lat="41.5979257" lon="2.1324308"><ele>272.5</ele><time>2026-04-03T18:19:10.333Z</time></trkpt><trkpt lat="41.5979824" lon="2.1322795"><ele>272.25</ele><time>2026-04-03T18:19:11.34Z</time></trkpt><trkpt lat="41.5980133" lon="2.1321097"><ele>272.0</ele><time>2026-04-03T18:19:12.335Z</time></trkpt><trkpt lat="41.5980441" lon="2.1319199"><ele>272.0</ele><time>2026-04-03T18:19:13.413Z</time></trkpt><trkpt lat="41.5980838" lon="2.1317657"><ele>272.0</ele><time>2026-04-03T18:19:14.327Z</time></trkpt><trkpt lat="41.5981656" lon="2.1316068"><ele>272.0</ele><time>2026-04-03T18:19:15.33Z</time></trkpt><trkpt lat="41.5982849" lon="2.1314824"><ele>272.0</ele><time>2026-04-03T18:19:16.338Z</time></trkpt><trkpt lat="41.5983452" lon="2.1315161"><ele>273.5</ele><time>2026-04-03T18:19:17.34Z</time></trkpt><trkpt lat="41.5984914" lon="2.1315011"><ele>275.0</ele><time>2026-04-03T18:19:18.35Z</time></trkpt><trkpt lat="41.5986318" lon="2.1314995"><ele>276.5</ele><time>2026-04-03T18:19:19.312Z</time></trkpt><trkpt lat="41.5987802" lon="2.1314906"><ele>278.0</ele><time>2026-04-03T18:19:20.337Z</time></trkpt><trkpt lat="41.5989258" lon="2.1314879"><ele>275.0</ele><time>2026-04-03T18:19:21.332Z</time></trkpt><trkpt lat="41.5990628" lon="2.131497"><ele>272.0</ele><time>2026-04-03T18:19:22.315Z</time></trkpt><trkpt lat="41.5991994" lon="2.1315362"><ele>269.0</ele><time>2026-04-03T18:19:23.303Z</time></trkpt><trkpt lat="41.599349" lon="2.1315941"><ele>266.0</ele><time>2026-04-03T18:19:24.313Z</time></trkpt><trkpt lat="41.5995008" lon="2.1316608"><ele>264.5</ele><time>2026-04-03T18:19:25.368Z</time></trkpt><trkpt lat="41.5996342" lon="2.1317298"><ele>263.0</ele><time>2026-04-03T18:19:26.323Z</time></trkpt><trkpt lat="41.5997619" lon="2.1317971"><ele>261.5</ele><time>2026-04-03T18:19:27.328Z</time></trkpt><trkpt lat="41.5998698" lon="2.1318569"><ele>260.0</ele><time>2026-04-03T18:19:28.317Z</time></trkpt><trkpt lat="41.5999611" lon="2.1318972"><ele>260.0</ele><time>2026-04-03T18:19:29.334Z</time></trkpt><trkpt lat="41.6000444" lon="2.1319163"><ele>260.0</ele><time>2026-04-03T18:19:30.333Z</time></trkpt><trkpt lat="41.600125" lon="2.1319156"><ele>260.0</ele><time>2026-04-03T18:19:31.336Z</time></trkpt><trkpt lat="41.6002217" lon="2.1318689"><ele>260.0</ele><time>2026-04-03T18:19:32.353Z</time></trkpt><trkpt lat="41.6002749" lon="2.1317857"><ele>260.0</ele><time>2026-04-03T18:19:33.354Z</time></trkpt><trkpt lat="41.6002992" lon="2.1316664"><ele>260.0</ele><time>2026-04-03T18:19:34.338Z</time></trkpt><trkpt lat="41.6002897" lon="2.1315484"><ele>257.5</ele><time>2026-04-03T18:19:35.375Z</time></trkpt><trkpt lat="41.6002366" lon="2.1314449"><ele>255.0</ele><time>2026-04-03T18:19:36.353Z</time></trkpt><trkpt lat="41.6001496" lon="2.1313111"><ele>252.5</ele><time>2026-04-03T18:19:37.333Z</time></trkpt><trkpt lat="41.6000451" lon="2.1311972"><ele>250.0</ele><time>2026-04-03T18:19:38.335Z</time></trkpt><trkpt lat="41.5999402" lon="2.1310674"><ele>250.0</ele><time>2026-04-03T18:19:39.343Z</time></trkpt><trkpt lat="41.5998427" lon="2.1309494"><ele>250.0</ele><time>2026-04-03T18:19:40.342Z</time></trkpt><trkpt lat="41.5997329" lon="2.1308538"><ele>250.0</ele><time>2026-04-03T18:19:41.329Z</time></trkpt><trkpt lat="41.5996184" lon="2.1307794"><ele>250.0</ele><time>2026-04-03T18:19:42.339Z</time></trkpt><trkpt lat="41.5994939" lon="2.1307308"><ele>252.0</ele><time>2026-04-03T18:19:43.323Z</time></trkpt><trkpt lat="41.599373" lon="2.1306895"><ele>254.0</ele><time>2026-04-03T18:19:44.334Z</time></trkpt><trkpt lat="41.5992628" lon="2.130654"><ele>256.0</ele><time>2026-04-03T18:19:45.313Z</time></trkpt><trkpt lat="41.5991542" lon="2.1306178"><ele>258.0</ele><time>2026-04-03T18:19:46.327Z</time></trkpt><trkpt lat="41.599054" lon="2.1305847"><ele>258.0</ele><time>2026-04-03T18:19:47.329Z</time></trkpt><trkpt lat="41.598964" lon="2.1305206"><ele>258.0</ele><time>2026-04-03T18:19:48.349Z</time></trkpt><trkpt lat="41.5989151" lon="2.130435"><ele>258.0</ele><time>2026-04-03T18:19:49.331Z</time></trkpt><trkpt lat="41.5988955" lon="2.1303116"><ele>258.0</ele><time>2026-04-03T18:19:50.322Z</time></trkpt><trkpt lat="41.5989247" lon="2.1301889"><ele>258.0</ele><time>2026-04-03T18:19:51.323Z</time></trkpt><trkpt lat="41.5990025" lon="2.1300848"><ele>258.0</ele><time>2026-04-03T18:19:52.337Z</time></trkpt><trkpt lat="41.5991105" lon="2.1300332"><ele>258.0</ele><time>2026-04-03T18:19:53.322Z</time></trkpt><trkpt lat="41.5992291" lon="2.1300425"><ele>258.0</ele><time>2026-04-03T18:19:54.355Z</time></trkpt><trkpt lat="41.5993423" lon="2.1300897"><ele>258.0</ele><time>2026-04-03T18:19:55.313Z</time></trkpt><trkpt lat="41.5994494" lon="2.1301475"><ele>255.33333333333334</ele><time>2026-04-03T18:19:56.332Z</time></trkpt><trkpt lat="41.5995523" lon="2.1301909"><ele>252.66666666666669</ele><time>2026-04-03T18:19:57.323Z</time></trkpt><trkpt lat="41.5996532" lon="2.1301957"><ele>250.0</ele><time>2026-04-03T18:19:58.33Z</time></trkpt><trkpt lat="41.5997245" lon="2.1301531"><ele>247.33333333333334</ele><time>2026-04-03T18:19:59.344Z</time></trkpt><trkpt lat="41.5997722" lon="2.1300775"><ele>244.66666666666669</ele><time>2026-04-03T18:20:00.32Z</time></trkpt><trkpt lat="41.5998024" lon="2.1299991"><ele>242.0</ele><time>2026-04-03T18:20:01.362Z</time></trkpt><trkpt lat="41.5998471" lon="2.1299254"><ele>242.0</ele><time>2026-04-03T18:20:02.318Z</time></trkpt><trkpt lat="41.5999016" lon="2.1298585"><ele>242.0</ele><time>2026-04-03T18:20:03.328Z</time></trkpt><trkpt lat="41.6000013" lon="2.1298094"><ele>242.0</ele><time>2026-04-03T18:20:04.323Z</time></trkpt><trkpt lat="41.6001165" lon="2.1298416"><ele>242.0</ele><time>2026-04-03T18:20:05.329Z</time></trkpt><trkpt lat="41.6002047" lon="2.1299283"><ele>242.0</ele><time>2026-04-03T18:20:06.344Z</time></trkpt><trkpt lat="41.6002912" lon="2.1300427"><ele>242.25</ele><time>2026-04-03T18:20:07.331Z</time></trkpt><trkpt lat="41.6003845" lon="2.1301406"><ele>242.5</ele><time>2026-04-03T18:20:08.331Z</time></trkpt><trkpt lat="41.6005095" lon="2.1302481"><ele>242.75</ele><time>2026-04-03T18:20:09.328Z</time></trkpt><trkpt lat="41.6006383" lon="2.1303061"><ele>243.0</ele><time>2026-04-03T18:20:10.315Z</time></trkpt><trkpt lat="41.600815" lon="2.1303708"><ele>243.0</ele><time>2026-04-03T18:20:11.34Z</time></trkpt><trkpt lat="41.600996" lon="2.130453"><ele>243.0</ele><time>2026-04-03T18:20:12.351Z</time></trkpt><trkpt lat="41.6011901" lon="2.1305421"><ele>243.0</ele><time>2026-04-03T18:20:13.33Z</time></trkpt><trkpt lat="41.6014054" lon="2.1306422"><ele>237.66666666666669</ele><time>2026-04-03T18:20:14.331Z</time></trkpt><trkpt lat="41.6016198" lon="2.1307405"><ele>232.33333333333334</ele><time>2026-04-03T18:20:15.344Z</time></trkpt><trkpt lat="41.6018295" lon="2.1308365"><ele>227.0</ele><time>2026-04-03T18:20:16.316Z</time></trkpt><trkpt lat="41.602028" lon="2.1309412"><ele>226.33333333333334</ele><time>2026-04-03T18:20:17.336Z</time></trkpt><trkpt lat="41.6022212" lon="2.1310406"><ele>225.66666666666669</ele><time>2026-04-03T18:20:18.329Z</time></trkpt><trkpt lat="41.6024146" lon="2.1311239"><ele>225.0</ele><time>2026-04-03T18:20:19.345Z</time></trkpt><trkpt lat="41.6025972" lon="2.1311764"><ele>225.0</ele><time>2026-04-03T18:20:20.334Z</time></trkpt><trkpt lat="41.6027813" lon="2.1311973"><ele>225.0</ele><time>2026-04-03T18:20:21.332Z</time></trkpt><trkpt lat="41.6029675" lon="2.1312051"><ele>225.0</ele><time>2026-04-03T18:20:22.332Z</time></trkpt><trkpt lat="41.6031375" lon="2.1312253"><ele>224.5</ele><time>2026-04-03T18:20:23.325Z</time></trkpt><trkpt lat="41.6032978" lon="2.1312906"><ele>224.0</ele><time>2026-04-03T18:20:24.344Z</time></trkpt><trkpt lat="41.6034168" lon="2.1313985"><ele>223.5</ele><time>2026-04-03T18:20:25.322Z</time></trkpt><trkpt lat="41.6034322" lon="2.1315575"><ele>223.0</ele><time>2026-04-03T18:20:26.372Z</time></trkpt><trkpt lat="41.6034645" lon="2.1317203"><ele>222.0</ele><time>2026-04-03T18:20:27.327Z</time></trkpt><trkpt lat="41.6034921" lon="2.1318912"><ele>221.0</ele><time>2026-04-03T18:20:28.322Z</time></trkpt><trkpt lat="41.6035267" lon="2.1320262"><ele>220.0</ele><time>2026-04-03T18:20:29.324Z</time></trkpt><trkpt lat="41.6035813" lon="2.1321167"><ele>219.0</ele><time>2026-04-03T18:20:30.323Z</time></trkpt><trkpt lat="41.6036641" lon="2.1321611"><ele>218.0</ele><time>2026-04-03T18:20:31.324Z</time></trkpt><trkpt lat="41.603782" lon="2.1321855"><ele>218.0</ele><time>2026-04-03T18:20:32.326Z</time></trkpt><trkpt lat="41.6039331" lon="2.1321377"><ele>218.0</ele><time>2026-04-03T18:20:33.341Z</time></trkpt><trkpt lat="41.6041179" lon="2.1320772"><ele>218.0</ele><time>2026-04-03T18:20:34.325Z</time></trkpt><trkpt lat="41.6043211" lon="2.1320084"><ele>216.66666666666669</ele><time>2026-04-03T18:20:35.36Z</time></trkpt><trkpt lat="41.6045189" lon="2.1319485"><ele>215.33333333333331</ele><time>2026-04-03T18:20:36.361Z</time></trkpt><trkpt lat="41.6046938" lon="2.1318975"><ele>214.0</ele><time>2026-04-03T18:20:37.318Z</time></trkpt><trkpt lat="41.6048568" lon="2.1318578"><ele>214.0</ele><time>2026-04-03T18:20:38.319Z</time></trkpt><trkpt lat="41.6050146" lon="2.1318338"><ele>214.0</ele><time>2026-04-03T18:20:39.316Z</time></trkpt><trkpt lat="41.6051573" lon="2.131862"><ele>214.0</ele><time>2026-04-03T18:20:40.317Z</time></trkpt><trkpt lat="41.6053207" lon="2.1319181"><ele>213.33333333333331</ele><time>2026-04-03T18:20:41.331Z</time></trkpt><trkpt lat="41.6054688" lon="2.1320154"><ele>212.66666666666669</ele><time>2026-04-03T18:20:42.338Z</time></trkpt><trkpt lat="41.6056163" lon="2.1321211"><ele>212.0</ele><time>2026-04-03T18:20:43.331Z</time></trkpt><trkpt lat="41.6057682" lon="2.1322097"><ele>212.0</ele><time>2026-04-03T18:20:44.34Z</time></trkpt><trkpt lat="41.6059071" lon="2.1322993"><ele>212.0</ele><time>2026-04-03T18:20:45.358Z</time></trkpt><trkpt lat="41.6060264" lon="2.1323906"><ele>212.0</ele><time>2026-04-03T18:20:46.337Z</time></trkpt><trkpt lat="41.6061289" lon="2.1324802"><ele>212.0</ele><time>2026-04-03T18:20:47.331Z</time></trkpt><trkpt lat="41.606216" lon="2.1325737"><ele>210.75</ele><time>2026-04-03T18:20:48.328Z</time></trkpt><trkpt lat="41.6062918" lon="2.1326888"><ele>209.5</ele><time>2026-04-03T18:20:49.334Z</time></trkpt><trkpt lat="41.6063481" lon="2.1328408"><ele>208.25</ele><time>2026-04-03T18:20:50.33Z</time></trkpt><trkpt lat="41.6064004" lon="2.1330279"><ele>207.0</ele><time>2026-04-03T18:20:51.332Z</time></trkpt><trkpt lat="41.6064584" lon="2.1332395"><ele>206.33333333333331</ele><time>2026-04-03T18:20:52.393Z</time></trkpt><trkpt lat="41.6065107" lon="2.1334526"><ele>205.66666666666666</ele><time>2026-04-03T18:20:53.334Z</time></trkpt><trkpt lat="41.6065703" lon="2.1336926"><ele>205.0</ele><time>2026-04-03T18:20:54.344Z</time></trkpt><trkpt lat="41.6066309" lon="2.1339171"><ele>204.33333333333331</ele><time>2026-04-03T18:20:55.352Z</time></trkpt><trkpt lat="41.6067021" lon="2.1341559"><ele>203.66666666666669</ele><time>2026-04-03T18:20:56.441Z</time></trkpt><trkpt lat="41.6067551" lon="2.1343424"><ele>203.0</ele><time>2026-04-03T18:20:57.362Z</time></trkpt><trkpt lat="41.6068172" lon="2.134531"><ele>203.0</ele><time>2026-04-03T18:20:58.383Z</time></trkpt><trkpt lat="41.6068705" lon="2.1346756"><ele>203.0</ele><time>2026-04-03T18:20:59.333Z</time></trkpt><trkpt lat="41.6069449" lon="2.134811"><ele>203.0</ele><time>2026-04-03T18:21:00.419Z</time></trkpt><trkpt lat="41.607129" lon="2.1349254"><ele>203.0</ele><time>2026-04-03T18:21:02.339Z</time></trkpt><trkpt lat="41.607233" lon="2.1349319"><ele>204.00000000000003</ele><time>2026-04-03T18:21:03.323Z</time></trkpt><trkpt lat="41.6073336" lon="2.1349277"><ele>205.0</ele><time>2026-04-03T18:21:04.323Z</time></trkpt><trkpt lat="41.6074208" lon="2.1349333"><ele>206.0</ele><time>2026-04-03T18:21:05.342Z</time></trkpt><trkpt lat="41.6074891" lon="2.1349389"><ele>207.0</ele><time>2026-04-03T18:21:06.375Z</time></trkpt><trkpt lat="41.6075954" lon="2.1349457"><ele>208.00000000000003</ele><time>2026-04-03T18:21:09.356Z</time></trkpt><trkpt lat="41.6076556" lon="2.1349746"><ele>209.0</ele><time>2026-04-03T18:21:58.36Z</time></trkpt><trkpt lat="41.6077208" lon="2.1349718"><ele>209.0</ele><time>2026-04-03T18:21:59.336Z</time></trkpt><trkpt lat="41.6077952" lon="2.1349743"><ele>209.0</ele><time>2026-04-03T18:22:00.325Z</time></trkpt><trkpt lat="41.6078901" lon="2.1349696"><ele>209.0</ele><time>2026-04-03T18:22:01.314Z</time></trkpt><trkpt lat="41.6080045" lon="2.1349669"><ele>209.0</ele><time>2026-04-03T18:22:02.323Z</time></trkpt><trkpt lat="41.6081221" lon="2.1349656"><ele>209.0</ele><time>2026-04-03T18:22:03.319Z</time></trkpt><trkpt lat="41.608237" lon="2.1349645"><ele>210.0</ele><time>2026-04-03T18:22:04.308Z</time></trkpt><trkpt lat="41.6083799" lon="2.1349411"><ele>211.0</ele><time>2026-04-03T18:22:05.322Z</time></trkpt><trkpt lat="41.60852" lon="2.1349316"><ele>212.0</ele><time>2026-04-03T18:22:06.349Z</time></trkpt><trkpt lat="41.6086594" lon="2.1349301"><ele>213.0</ele><time>2026-04-03T18:22:07.316Z</time></trkpt><trkpt lat="41.608807" lon="2.1349304"><ele>213.5</ele><time>2026-04-03T18:22:08.33Z</time></trkpt><trkpt lat="41.6089508" lon="2.134924"><ele>214.0</ele><time>2026-04-03T18:22:09.33Z</time></trkpt><trkpt lat="41.6090969" lon="2.134915"><ele>214.5</ele><time>2026-04-03T18:22:10.367Z</time></trkpt><trkpt lat="41.6092314" lon="2.1349127"><ele>215.0</ele><time>2026-04-03T18:22:11.334Z</time></trkpt><trkpt lat="41.6093582" lon="2.1349081"><ele>215.0</ele><time>2026-04-03T18:22:12.35Z</time></trkpt><trkpt lat="41.6094771" lon="2.1349078"><ele>215.0</ele><time>2026-04-03T18:22:13.33Z</time></trkpt><trkpt lat="41.6096103" lon="2.1349059"><ele>215.0</ele><time>2026-04-03T18:22:14.323Z</time></trkpt><trkpt lat="41.6097479" lon="2.1349082"><ele>215.0</ele><time>2026-04-03T18:22:15.325Z</time></trkpt><trkpt lat="41.6098871" lon="2.1349045"><ele>217.25</ele><time>2026-04-03T18:22:16.294Z</time></trkpt><trkpt lat="41.6100443" lon="2.1349044"><ele>219.5</ele><time>2026-04-03T18:22:17.313Z</time></trkpt><trkpt lat="41.6101881" lon="2.1349035"><ele>221.75</ele><time>2026-04-03T18:22:18.312Z</time></trkpt><trkpt lat="41.6103207" lon="2.1349011"><ele>224.0</ele><time>2026-04-03T18:22:19.302Z</time></trkpt><trkpt lat="41.6104553" lon="2.1349033"><ele>224.75</ele><time>2026-04-03T18:22:20.317Z</time></trkpt><trkpt lat="41.6105834" lon="2.1349008"><ele>225.5</ele><time>2026-04-03T18:22:21.328Z</time></trkpt><trkpt lat="41.6106931" lon="2.1348999"><ele>226.25</ele><time>2026-04-03T18:22:22.314Z</time></trkpt><trkpt lat="41.6108183" lon="2.1348937"><ele>227.0</ele><time>2026-04-03T18:22:23.34Z</time></trkpt><trkpt lat="41.6109363" lon="2.1348811"><ele>225.75</ele><time>2026-04-03T18:22:24.336Z</time></trkpt><trkpt lat="41.611073" lon="2.1348657"><ele>224.5</ele><time>2026-04-03T18:22:25.341Z</time></trkpt><trkpt lat="41.6112145" lon="2.1348659"><ele>223.25</ele><time>2026-04-03T18:22:26.338Z</time></trkpt><trkpt lat="41.6113544" lon="2.1348655"><ele>222.0</ele><time>2026-04-03T18:22:27.329Z</time></trkpt><trkpt lat="41.611501" lon="2.1348695"><ele>222.0</ele><time>2026-04-03T18:22:28.351Z</time></trkpt><trkpt lat="41.6116364" lon="2.1348714"><ele>222.0</ele><time>2026-04-03T18:22:29.322Z</time></trkpt><trkpt lat="41.6117593" lon="2.1348866"><ele>222.0</ele><time>2026-04-03T18:22:30.336Z</time></trkpt><trkpt lat="41.611881" lon="2.1349157"><ele>222.0</ele><time>2026-04-03T18:22:31.444Z</time></trkpt><trkpt lat="41.6119433" lon="2.1349493"><ele>222.0</ele><time>2026-04-03T18:22:33.346Z</time></trkpt><trkpt lat="41.6119842" lon="2.1348657"><ele>222.0</ele><time>2026-04-03T18:22:35.351Z</time></trkpt><trkpt lat="41.6121044" lon="2.1347305"><ele>222.0</ele><time>2026-04-03T18:22:37.334Z</time></trkpt><trkpt lat="41.6122245" lon="2.1346231"><ele>222.0</ele><time>2026-04-03T18:22:38.351Z</time></trkpt><trkpt lat="41.6123581" lon="2.1345154"><ele>223.66666666666669</ele><time>2026-04-03T18:22:39.341Z</time></trkpt><trkpt lat="41.6125179" lon="2.1344227"><ele>225.33333333333334</ele><time>2026-04-03T18:22:40.337Z</time></trkpt><trkpt lat="41.6126862" lon="2.1343477"><ele>227.0</ele><time>2026-04-03T18:22:41.311Z</time></trkpt><trkpt lat="41.6128706" lon="2.1342872"><ele>228.66666666666669</ele><time>2026-04-03T18:22:42.329Z</time></trkpt><trkpt lat="41.6130433" lon="2.134236"><ele>230.33333333333331</ele><time>2026-04-03T18:22:43.33Z</time></trkpt><trkpt lat="41.6132204" lon="2.1341733"><ele>232.0</ele><time>2026-04-03T18:22:44.332Z</time></trkpt><trkpt lat="41.6133822" lon="2.1341101"><ele>230.66666666666666</ele><time>2026-04-03T18:22:45.324Z</time></trkpt><trkpt lat="41.6135287" lon="2.1340023"><ele>229.33333333333331</ele><time>2026-04-03T18:22:46.361Z</time></trkpt><trkpt lat="41.6136648" lon="2.1338749"><ele>228.0</ele><time>2026-04-03T18:22:47.34Z</time></trkpt><trkpt lat="41.6138076" lon="2.1337326"><ele>228.0</ele><time>2026-04-03T18:22:48.345Z</time></trkpt><trkpt lat="41.6139613" lon="2.1335864"><ele>228.0</ele><time>2026-04-03T18:22:49.341Z</time></trkpt><trkpt lat="41.6141268" lon="2.1334362"><ele>228.0</ele><time>2026-04-03T18:22:50.33Z</time></trkpt><trkpt lat="41.6142911" lon="2.1332954"><ele>227.33333333333331</ele><time>2026-04-03T18:22:51.329Z</time></trkpt><trkpt lat="41.6144576" lon="2.1331589"><ele>226.66666666666666</ele><time>2026-04-03T18:22:52.346Z</time></trkpt><trkpt lat="41.6146065" lon="2.1330388"><ele>226.0</ele><time>2026-04-03T18:22:53.311Z</time></trkpt><trkpt lat="41.6147536" lon="2.1329177"><ele>226.0</ele><time>2026-04-03T18:22:54.343Z</time></trkpt><trkpt lat="41.6148866" lon="2.1328119"><ele>226.0</ele><time>2026-04-03T18:22:55.307Z</time></trkpt><trkpt lat="41.6150122" lon="2.1327032"><ele>226.0</ele><time>2026-04-03T18:22:56.333Z</time></trkpt><trkpt lat="41.6151158" lon="2.132594"><ele>226.0</ele><time>2026-04-03T18:22:57.332Z</time></trkpt><trkpt lat="41.6151894" lon="2.1324507"><ele>224.66666666666666</ele><time>2026-04-03T18:22:58.315Z</time></trkpt><trkpt lat="41.6152271" lon="2.1322733"><ele>223.33333333333331</ele><time>2026-04-03T18:22:59.329Z</time></trkpt><trkpt lat="41.6152345" lon="2.132076"><ele>222.0</ele><time>2026-04-03T18:23:00.356Z</time></trkpt><trkpt lat="41.6152194" lon="2.1318517"><ele>222.0</ele><time>2026-04-03T18:23:01.332Z</time></trkpt><trkpt lat="41.6152019" lon="2.1316067"><ele>222.0</ele><time>2026-04-03T18:23:02.333Z</time></trkpt><trkpt lat="41.6151996" lon="2.1313381"><ele>222.0</ele><time>2026-04-03T18:23:03.337Z</time></trkpt><trkpt lat="41.6152045" lon="2.1310677"><ele>223.0</ele><time>2026-04-03T18:23:04.348Z</time></trkpt><trkpt lat="41.6152176" lon="2.1307918"><ele>224.0</ele><time>2026-04-03T18:23:05.352Z</time></trkpt><trkpt lat="41.6152498" lon="2.1305119"><ele>225.0</ele><time>2026-04-03T18:23:06.354Z</time></trkpt><trkpt lat="41.6152835" lon="2.1302359"><ele>226.66666666666669</ele><time>2026-04-03T18:23:07.335Z</time></trkpt><trkpt lat="41.6153219" lon="2.1299542"><ele>228.33333333333334</ele><time>2026-04-03T18:23:08.365Z</time></trkpt><trkpt lat="41.6153614" lon="2.1297081"><ele>230.0</ele><time>2026-04-03T18:23:09.341Z</time></trkpt><trkpt lat="41.615404" lon="2.1294285"><ele>231.0</ele><time>2026-04-03T18:23:10.365Z</time></trkpt><trkpt lat="41.6154429" lon="2.129154"><ele>232.0</ele><time>2026-04-03T18:23:11.351Z</time></trkpt><trkpt lat="41.6154811" lon="2.1288766"><ele>233.0</ele><time>2026-04-03T18:23:12.342Z</time></trkpt><trkpt lat="41.6155213" lon="2.1285979"><ele>233.33333333333334</ele><time>2026-04-03T18:23:13.328Z</time></trkpt><trkpt lat="41.615561" lon="2.1283124"><ele>233.66666666666669</ele><time>2026-04-03T18:23:14.339Z</time></trkpt><trkpt lat="41.6155989" lon="2.1280222"><ele>234.0</ele><time>2026-04-03T18:23:15.352Z</time></trkpt><trkpt lat="41.615642" lon="2.1277338"><ele>234.33333333333331</ele><time>2026-04-03T18:23:16.35Z</time></trkpt><trkpt lat="41.6156798" lon="2.1274533"><ele>234.66666666666666</ele><time>2026-04-03T18:23:17.347Z</time></trkpt><trkpt lat="41.6157204" lon="2.1271719"><ele>235.0</ele><time>2026-04-03T18:23:18.401Z</time></trkpt><trkpt lat="41.6157547" lon="2.1269329"><ele>236.33333333333331</ele><time>2026-04-03T18:23:19.335Z</time></trkpt><trkpt lat="41.6157911" lon="2.1266941"><ele>237.66666666666669</ele><time>2026-04-03T18:23:20.343Z</time></trkpt><trkpt lat="41.615825" lon="2.1264775"><ele>239.0</ele><time>2026-04-03T18:23:21.335Z</time></trkpt><trkpt lat="41.6158546" lon="2.1262798"><ele>239.25</ele><time>2026-04-03T18:23:22.32Z</time></trkpt><trkpt lat="41.6158862" lon="2.1260874"><ele>239.5</ele><time>2026-04-03T18:23:23.342Z</time></trkpt><trkpt lat="41.6159213" lon="2.1259051"><ele>239.75</ele><time>2026-04-03T18:23:24.326Z</time></trkpt><trkpt lat="41.6159716" lon="2.1257099"><ele>240.0</ele><time>2026-04-03T18:23:25.378Z</time></trkpt><trkpt lat="41.6160317" lon="2.1255311"><ele>240.0</ele><time>2026-04-03T18:23:26.335Z</time></trkpt><trkpt lat="41.6161109" lon="2.1253402"><ele>240.0</ele><time>2026-04-03T18:23:27.346Z</time></trkpt><trkpt lat="41.6161947" lon="2.1251482"><ele>240.0</ele><time>2026-04-03T18:23:28.337Z</time></trkpt><trkpt lat="41.6162938" lon="2.1249278"><ele>243.5</ele><time>2026-04-03T18:23:29.452Z</time></trkpt><trkpt lat="41.6164551" lon="2.1245814"><ele>247.0</ele><time>2026-04-03T18:23:31.362Z</time></trkpt><trkpt lat="41.6165421" lon="2.124423"><ele>247.0</ele><time>2026-04-03T18:23:32.37Z</time></trkpt><trkpt lat="41.6166397" lon="2.1242801"><ele>247.0</ele><time>2026-04-03T18:23:33.339Z</time></trkpt><trkpt lat="41.6167587" lon="2.1241558"><ele>247.0</ele><time>2026-04-03T18:23:34.328Z</time></trkpt><trkpt lat="41.6168991" lon="2.1240496"><ele>248.0</ele><time>2026-04-03T18:23:35.347Z</time></trkpt><trkpt lat="41.6170486" lon="2.1239478"><ele>249.0</ele><time>2026-04-03T18:23:36.349Z</time></trkpt><trkpt lat="41.617203" lon="2.1238471"><ele>250.0</ele><time>2026-04-03T18:23:37.342Z</time></trkpt><trkpt lat="41.6173627" lon="2.123737"><ele>250.0</ele><time>2026-04-03T18:23:38.376Z</time></trkpt><trkpt lat="41.6175297" lon="2.1236042"><ele>250.0</ele><time>2026-04-03T18:23:39.456Z</time></trkpt><trkpt lat="41.6177804" lon="2.1233059"><ele>252.33333333333331</ele><time>2026-04-03T18:23:41.371Z</time></trkpt><trkpt lat="41.6178847" lon="2.1231195"><ele>254.66666666666669</ele><time>2026-04-03T18:23:42.364Z</time></trkpt><trkpt lat="41.6179698" lon="2.1229177"><ele>257.0</ele><time>2026-04-03T18:23:43.348Z</time></trkpt><trkpt lat="41.6180227" lon="2.1227047"><ele>257.0</ele><time>2026-04-03T18:23:44.345Z</time></trkpt><trkpt lat="41.6180315" lon="2.1224764"><ele>257.0</ele><time>2026-04-03T18:23:45.348Z</time></trkpt><trkpt lat="41.6179996" lon="2.1222657"><ele>257.0</ele><time>2026-04-03T18:23:46.341Z</time></trkpt><trkpt lat="41.6179339" lon="2.1220578"><ele>257.6666666666667</ele><time>2026-04-03T18:23:47.339Z</time></trkpt><trkpt lat="41.6178618" lon="2.121842"><ele>258.3333333333333</ele><time>2026-04-03T18:23:48.363Z</time></trkpt><trkpt lat="41.6178143" lon="2.1216187"><ele>259.0</ele><time>2026-04-03T18:23:49.337Z</time></trkpt><trkpt lat="41.6178002" lon="2.1213793"><ele>259.66666666666663</ele><time>2026-04-03T18:23:50.336Z</time></trkpt><trkpt lat="41.6178413" lon="2.1211578"><ele>260.3333333333333</ele><time>2026-04-03T18:23:51.348Z</time></trkpt><trkpt lat="41.6178782" lon="2.1209231"><ele>261.0</ele><time>2026-04-03T18:23:52.354Z</time></trkpt><trkpt lat="41.6179431" lon="2.1207018"><ele>261.3333333333333</ele><time>2026-04-03T18:23:53.38Z</time></trkpt><trkpt lat="41.6180221" lon="2.1204942"><ele>261.66666666666663</ele><time>2026-04-03T18:23:54.334Z</time></trkpt><trkpt lat="41.6181211" lon="2.120271"><ele>262.0</ele><time>2026-04-03T18:23:55.335Z</time></trkpt><trkpt lat="41.6182251" lon="2.1200595"><ele>261.0</ele><time>2026-04-03T18:23:56.34Z</time></trkpt><trkpt lat="41.6183384" lon="2.1198441"><ele>260.0</ele><time>2026-04-03T18:23:57.359Z</time></trkpt><trkpt lat="41.6184484" lon="2.1196352"><ele>259.0</ele><time>2026-04-03T18:23:58.361Z</time></trkpt><trkpt lat="41.6185573" lon="2.1194234"><ele>262.3333333333333</ele><time>2026-04-03T18:23:59.328Z</time></trkpt><trkpt lat="41.6186733" lon="2.1192063"><ele>265.6666666666667</ele><time>2026-04-03T18:24:00.31Z</time></trkpt><trkpt lat="41.6188009" lon="2.11897"><ele>269.0</ele><time>2026-04-03T18:24:01.338Z</time></trkpt><trkpt lat="41.6189339" lon="2.1187346"><ele>269.0</ele><time>2026-04-03T18:24:02.346Z</time></trkpt><trkpt lat="41.6190628" lon="2.1185059"><ele>269.0</ele><time>2026-04-03T18:24:03.34Z</time></trkpt><trkpt lat="41.6191886" lon="2.1182819"><ele>269.0</ele><time>2026-04-03T18:24:04.35Z</time></trkpt><trkpt lat="41.6193231" lon="2.1180534"><ele>266.6666666666667</ele><time>2026-04-03T18:24:05.432Z</time></trkpt><trkpt lat="41.619444" lon="2.1178792"><ele>264.3333333333333</ele><time>2026-04-03T18:24:06.335Z</time></trkpt><trkpt lat="41.6195793" lon="2.1176937"><ele>262.0</ele><time>2026-04-03T18:24:07.366Z</time></trkpt><trkpt lat="41.6197194" lon="2.1175244"><ele>264.3333333333333</ele><time>2026-04-03T18:24:08.329Z</time></trkpt><trkpt lat="41.6198671" lon="2.1173507"><ele>266.6666666666667</ele><time>2026-04-03T18:24:09.332Z</time></trkpt><trkpt lat="41.620018" lon="2.1171887"><ele>269.0</ele><time>2026-04-03T18:24:10.327Z</time></trkpt><trkpt lat="41.6201636" lon="2.1170248"><ele>269.0</ele><time>2026-04-03T18:24:11.353Z</time></trkpt><trkpt lat="41.6203039" lon="2.1168681"><ele>269.0</ele><time>2026-04-03T18:24:12.357Z</time></trkpt><trkpt lat="41.6204494" lon="2.1167089"><ele>269.0</ele><time>2026-04-03T18:24:13.36Z</time></trkpt><trkpt lat="41.6205868" lon="2.1165437"><ele>271.0</ele><time>2026-04-03T18:24:14.373Z</time></trkpt><trkpt lat="41.6207077" lon="2.1163758"><ele>273.0</ele><time>2026-04-03T18:24:15.336Z</time></trkpt><trkpt lat="41.6208083" lon="2.1161987"><ele>275.0</ele><time>2026-04-03T18:24:16.35Z</time></trkpt><trkpt lat="41.6209" lon="2.1160174"><ele>275.0</ele><time>2026-04-03T18:24:17.336Z</time></trkpt><trkpt lat="41.6209901" lon="2.1158272"><ele>275.0</ele><time>2026-04-03T18:24:18.339Z</time></trkpt><trkpt lat="41.6210833" lon="2.1156356"><ele>275.0</ele><time>2026-04-03T18:24:19.342Z</time></trkpt><trkpt lat="41.6211784" lon="2.1154443"><ele>276.6666666666667</ele><time>2026-04-03T18:24:20.349Z</time></trkpt><trkpt lat="41.6212741" lon="2.1152552"><ele>278.3333333333333</ele><time>2026-04-03T18:24:21.335Z</time></trkpt><trkpt lat="41.6213758" lon="2.1150584"><ele>280.0</ele><time>2026-04-03T18:24:22.352Z</time></trkpt><trkpt lat="41.621481" lon="2.1148651"><ele>280.0</ele><time>2026-04-03T18:24:23.353Z</time></trkpt><trkpt lat="41.6215824" lon="2.1146764"><ele>280.0</ele><time>2026-04-03T18:24:24.35Z</time></trkpt><trkpt lat="41.6216784" lon="2.1144883"><ele>280.0</ele><time>2026-04-03T18:24:25.35Z</time></trkpt><trkpt lat="41.6217564" lon="2.1143006"><ele>280.0</ele><time>2026-04-03T18:24:26.342Z</time></trkpt><trkpt lat="41.6218114" lon="2.1140986"><ele>280.0</ele><time>2026-04-03T18:24:27.328Z</time></trkpt><trkpt lat="41.6218554" lon="2.1138896"><ele>280.0</ele><time>2026-04-03T18:24:28.331Z</time></trkpt><trkpt lat="41.6219016" lon="2.1136948"><ele>281.0</ele><time>2026-04-03T18:24:29.328Z</time></trkpt><trkpt lat="41.6219638" lon="2.1135175"><ele>282.0</ele><time>2026-04-03T18:24:30.316Z</time></trkpt><trkpt lat="41.6220552" lon="2.1133542"><ele>283.0</ele><time>2026-04-03T18:24:31.345Z</time></trkpt><trkpt lat="41.6221654" lon="2.113216"><ele>284.75</ele><time>2026-04-03T18:24:32.348Z</time></trkpt><trkpt lat="41.6222812" lon="2.113098"><ele>286.5</ele><time>2026-04-03T18:24:33.315Z</time></trkpt><trkpt lat="41.6223911" lon="2.1129848"><ele>288.25</ele><time>2026-04-03T18:24:34.35Z</time></trkpt><trkpt lat="41.6224709" lon="2.1128818"><ele>290.0</ele><time>2026-04-03T18:24:35.34Z</time></trkpt><trkpt lat="41.6225118" lon="2.1127719"><ele>290.0</ele><time>2026-04-03T18:24:36.332Z</time></trkpt><trkpt lat="41.6225095" lon="2.1126602"><ele>290.0</ele><time>2026-04-03T18:24:37.326Z</time></trkpt><trkpt lat="41.6224657" lon="2.1125708"><ele>290.0</ele><time>2026-04-03T18:24:38.338Z</time></trkpt><trkpt lat="41.6223975" lon="2.1125144"><ele>290.0</ele><time>2026-04-03T18:24:39.337Z</time></trkpt><trkpt lat="41.6223148" lon="2.1124944"><ele>290.0</ele><time>2026-04-03T18:24:40.343Z</time></trkpt><trkpt lat="41.6222232" lon="2.1125029"><ele>290.0</ele><time>2026-04-03T18:24:41.326Z</time></trkpt><trkpt lat="41.6221035" lon="2.1125018"><ele>290.0</ele><time>2026-04-03T18:24:42.322Z</time></trkpt><trkpt lat="41.6219899" lon="2.1124713"><ele>290.0</ele><time>2026-04-03T18:24:43.353Z</time></trkpt><trkpt lat="41.6218791" lon="2.1124241"><ele>290.0</ele><time>2026-04-03T18:24:44.345Z</time></trkpt><trkpt lat="41.6217979" lon="2.1123271"><ele>290.0</ele><time>2026-04-03T18:24:45.341Z</time></trkpt><trkpt lat="41.6217621" lon="2.1121793"><ele>290.25</ele><time>2026-04-03T18:24:46.342Z</time></trkpt><trkpt lat="41.6217792" lon="2.112002"><ele>290.5</ele><time>2026-04-03T18:24:47.35Z</time></trkpt><trkpt lat="41.6218222" lon="2.1118386"><ele>290.75</ele><time>2026-04-03T18:24:48.319Z</time></trkpt><trkpt lat="41.6218697" lon="2.1116472"><ele>291.0</ele><time>2026-04-03T18:24:49.355Z</time></trkpt><trkpt lat="41.6218946" lon="2.111473"><ele>292.75</ele><time>2026-04-03T18:24:50.336Z</time></trkpt><trkpt lat="41.6219155" lon="2.1112978"><ele>294.5</ele><time>2026-04-03T18:24:51.339Z</time></trkpt><trkpt lat="41.6219259" lon="2.1111315"><ele>296.25</ele><time>2026-04-03T18:24:52.336Z</time></trkpt><trkpt lat="41.6219124" lon="2.1109639"><ele>298.0</ele><time>2026-04-03T18:24:53.329Z</time></trkpt><trkpt lat="41.621857" lon="2.1108096"><ele>301.3333333333333</ele><time>2026-04-03T18:24:54.332Z</time></trkpt><trkpt lat="41.6217721" lon="2.110663"><ele>304.6666666666667</ele><time>2026-04-03T18:24:55.318Z</time></trkpt><trkpt lat="41.6216556" lon="2.1105054"><ele>308.0</ele><time>2026-04-03T18:24:56.334Z</time></trkpt><trkpt lat="41.6215361" lon="2.1103842"><ele>308.0</ele><time>2026-04-03T18:24:57.342Z</time></trkpt><trkpt lat="41.6213913" lon="2.1102988"><ele>308.0</ele><time>2026-04-03T18:24:58.338Z</time></trkpt><trkpt lat="41.6212318" lon="2.1102522"><ele>308.0</ele><time>2026-04-03T18:24:59.339Z</time></trkpt><trkpt lat="41.6210617" lon="2.110215"><ele>308.0</ele><time>2026-04-03T18:25:00.337Z</time></trkpt><trkpt lat="41.6209023" lon="2.1101739"><ele>308.0</ele><time>2026-04-03T18:25:01.329Z</time></trkpt><trkpt lat="41.6207517" lon="2.1101072"><ele>308.0</ele><time>2026-04-03T18:25:02.331Z</time></trkpt><trkpt lat="41.6205993" lon="2.1099992"><ele>310.0</ele><time>2026-04-03T18:25:03.35Z</time></trkpt><trkpt lat="41.6204693" lon="2.1098667"><ele>312.0</ele><time>2026-04-03T18:25:04.325Z</time></trkpt><trkpt lat="41.6203387" lon="2.1097072"><ele>314.0</ele><time>2026-04-03T18:25:05.366Z</time></trkpt><trkpt lat="41.6202139" lon="2.1095514"><ele>314.0</ele><time>2026-04-03T18:25:06.333Z</time></trkpt><trkpt lat="41.6200973" lon="2.1093772"><ele>314.0</ele><time>2026-04-03T18:25:07.339Z</time></trkpt><trkpt lat="41.6199932" lon="2.109212"><ele>314.0</ele><time>2026-04-03T18:25:08.349Z</time></trkpt><trkpt lat="41.619898" lon="2.1090587"><ele>317.0</ele><time>2026-04-03T18:25:09.342Z</time></trkpt><trkpt lat="41.6198168" lon="2.1089141"><ele>320.0</ele><time>2026-04-03T18:25:10.361Z</time></trkpt><trkpt lat="41.6197479" lon="2.1087813"><ele>323.0</ele><time>2026-04-03T18:25:11.352Z</time></trkpt><trkpt lat="41.6196895" lon="2.108641"><ele>326.0</ele><time>2026-04-03T18:25:12.345Z</time></trkpt><trkpt lat="41.6196505" lon="2.108478"><ele>326.0</ele><time>2026-04-03T18:25:13.34Z</time></trkpt><trkpt lat="41.6196493" lon="2.1083022"><ele>326.0</ele><time>2026-04-03T18:25:14.356Z</time></trkpt><trkpt lat="41.6196927" lon="2.1081356"><ele>326.0</ele><time>2026-04-03T18:25:15.348Z</time></trkpt><trkpt lat="41.6197707" lon="2.1079675"><ele>326.0</ele><time>2026-04-03T18:25:16.336Z</time></trkpt><trkpt lat="41.61987" lon="2.1077925"><ele>326.0</ele><time>2026-04-03T18:25:17.332Z</time></trkpt><trkpt lat="41.6199727" lon="2.1076146"><ele>326.0</ele><time>2026-04-03T18:25:18.327Z</time></trkpt><trkpt lat="41.6200693" lon="2.1074407"><ele>326.0</ele><time>2026-04-03T18:25:19.328Z</time></trkpt><trkpt lat="41.6201556" lon="2.1072889"><ele>324.75</ele><time>2026-04-03T18:25:20.329Z</time></trkpt><trkpt lat="41.6202392" lon="2.1071504"><ele>323.5</ele><time>2026-04-03T18:25:21.329Z</time></trkpt><trkpt lat="41.6203405" lon="2.1070304"><ele>322.25</ele><time>2026-04-03T18:25:22.333Z</time></trkpt><trkpt lat="41.6204591" lon="2.1069253"><ele>321.0</ele><time>2026-04-03T18:25:23.318Z</time></trkpt><trkpt lat="41.6205894" lon="2.1068207"><ele>322.25</ele><time>2026-04-03T18:25:24.348Z</time></trkpt><trkpt lat="41.6207064" lon="2.1067234"><ele>323.5</ele><time>2026-04-03T18:25:25.327Z</time></trkpt><trkpt lat="41.6208165" lon="2.1066353"><ele>324.75</ele><time>2026-04-03T18:25:26.31Z</time></trkpt><trkpt lat="41.6209094" lon="2.1065477"><ele>326.0</ele><time>2026-04-03T18:25:27.326Z</time></trkpt><trkpt lat="41.6209765" lon="2.106477"><ele>326.0</ele><time>2026-04-03T18:25:28.331Z</time></trkpt><trkpt lat="41.6210152" lon="2.1063814"><ele>326.0</ele><time>2026-04-03T18:25:29.333Z</time></trkpt><trkpt lat="41.6210091" lon="2.1062692"><ele>326.0</ele><time>2026-04-03T18:25:30.343Z</time></trkpt><trkpt lat="41.6209606" lon="2.1061311"><ele>326.0</ele><time>2026-04-03T18:25:31.343Z</time></trkpt><trkpt lat="41.6208841" lon="2.1059684"><ele>326.0</ele><time>2026-04-03T18:25:32.325Z</time></trkpt><trkpt lat="41.6207634" lon="2.1057985"><ele>327.33333333333337</ele><time>2026-04-03T18:25:33.312Z</time></trkpt><trkpt lat="41.6206599" lon="2.1055722"><ele>328.6666666666667</ele><time>2026-04-03T18:25:34.302Z</time></trkpt><trkpt lat="41.6205421" lon="2.1053745"><ele>330.0</ele><time>2026-04-03T18:25:35.34Z</time></trkpt><trkpt lat="41.6204563" lon="2.1051821"><ele>330.0</ele><time>2026-04-03T18:25:36.329Z</time></trkpt><trkpt lat="41.6203844" lon="2.1049732"><ele>330.0</ele><time>2026-04-03T18:25:37.342Z</time></trkpt><trkpt lat="41.6203254" lon="2.1047744"><ele>330.0</ele><time>2026-04-03T18:25:38.326Z</time></trkpt><trkpt lat="41.6202917" lon="2.1045737"><ele>330.0</ele><time>2026-04-03T18:25:39.324Z</time></trkpt><trkpt lat="41.6202778" lon="2.1043796"><ele>330.0</ele><time>2026-04-03T18:25:40.338Z</time></trkpt><trkpt lat="41.620287" lon="2.104214"><ele>330.0</ele><time>2026-04-03T18:25:41.329Z</time></trkpt><trkpt lat="41.6203373" lon="2.1040992"><ele>330.0</ele><time>2026-04-03T18:25:42.331Z</time></trkpt><trkpt lat="41.6204395" lon="2.1040237"><ele>330.0</ele><time>2026-04-03T18:25:43.341Z</time></trkpt><trkpt lat="41.6205693" lon="2.104012"><ele>330.0</ele><time>2026-04-03T18:25:44.344Z</time></trkpt><trkpt lat="41.6207018" lon="2.1040752"><ele>330.0</ele><time>2026-04-03T18:25:45.355Z</time></trkpt><trkpt lat="41.6208354" lon="2.1041307"><ele>330.0</ele><time>2026-04-03T18:25:46.343Z</time></trkpt><trkpt lat="41.6209626" lon="2.104159"><ele>330.0</ele><time>2026-04-03T18:25:47.337Z</time></trkpt><trkpt lat="41.6210673" lon="2.1041393"><ele>330.0</ele><time>2026-04-03T18:25:48.345Z</time></trkpt><trkpt lat="41.6211503" lon="2.1040548"><ele>330.0</ele><time>2026-04-03T18:25:49.421Z</time></trkpt><trkpt lat="41.6211694" lon="2.103811"><ele>330.0</ele><time>2026-04-03T18:25:51.35Z</time></trkpt><trkpt lat="41.6211223" lon="2.1036754"><ele>330.5</ele><time>2026-04-03T18:25:52.339Z</time></trkpt><trkpt lat="41.6210622" lon="2.1035194"><ele>331.0</ele><time>2026-04-03T18:25:53.355Z</time></trkpt><trkpt lat="41.6210214" lon="2.1033439"><ele>331.5</ele><time>2026-04-03T18:25:54.348Z</time></trkpt><trkpt lat="41.6210189" lon="2.1031601"><ele>332.0</ele><time>2026-04-03T18:25:55.35Z</time></trkpt><trkpt lat="41.6210645" lon="2.1030059"><ele>332.20000000000005</ele><time>2026-04-03T18:25:56.368Z</time></trkpt><trkpt lat="41.6211389" lon="2.1028815"><ele>332.4</ele><time>2026-04-03T18:25:57.363Z</time></trkpt><trkpt lat="41.6212115" lon="2.1027765"><ele>332.6</ele><time>2026-04-03T18:25:58.313Z</time></trkpt><trkpt lat="41.6212451" lon="2.102663"><ele>332.79999999999995</ele><time>2026-04-03T18:25:59.378Z</time></trkpt><trkpt lat="41.6212341" lon="2.1025774"><ele>333.0</ele><time>2026-04-03T18:26:00.339Z</time></trkpt><trkpt lat="41.6211491" lon="2.102481"><ele>334.59999999999997</ele><time>2026-04-03T18:26:02.338Z</time></trkpt><trkpt lat="41.6210647" lon="2.1024044"><ele>336.2</ele><time>2026-04-03T18:26:04.351Z</time></trkpt><trkpt lat="41.6209542" lon="2.1022877"><ele>337.8</ele><time>2026-04-03T18:26:06.363Z</time></trkpt><trkpt lat="41.6209002" lon="2.1022148"><ele>339.4</ele><time>2026-04-03T18:26:07.338Z</time></trkpt><trkpt lat="41.6208672" lon="2.1021413"><ele>341.0</ele><time>2026-04-03T18:26:08.32Z</time></trkpt><trkpt lat="41.6208253" lon="2.1020383"><ele>341.0</ele><time>2026-04-03T18:26:10.319Z</time></trkpt><trkpt lat="41.620773" lon="2.1019044"><ele>341.0</ele><time>2026-04-03T18:26:12.353Z</time></trkpt><trkpt lat="41.6207595" lon="2.1017691"><ele>341.0</ele><time>2026-04-03T18:26:13.361Z</time></trkpt><trkpt lat="41.6207676" lon="2.1016196"><ele>341.0</ele><time>2026-04-03T18:26:14.339Z</time></trkpt><trkpt lat="41.62078" lon="2.1014685"><ele>341.0</ele><time>2026-04-03T18:26:15.328Z</time></trkpt><trkpt lat="41.6207835" lon="2.1013191"><ele>341.25</ele><time>2026-04-03T18:26:16.326Z</time></trkpt><trkpt lat="41.6207487" lon="2.1012028"><ele>341.5</ele><time>2026-04-03T18:26:17.326Z</time></trkpt><trkpt lat="41.6206738" lon="2.1011273"><ele>341.75</ele><time>2026-04-03T18:26:18.329Z</time></trkpt><trkpt lat="41.6205404" lon="2.1010735"><ele>342.0</ele><time>2026-04-03T18:26:19.326Z</time></trkpt><trkpt lat="41.6204015" lon="2.101092"><ele>341.5</ele><time>2026-04-03T18:26:20.34Z</time></trkpt><trkpt lat="41.6202599" lon="2.1011187"><ele>341.0</ele><time>2026-04-03T18:26:21.324Z</time></trkpt><trkpt lat="41.620113" lon="2.1011427"><ele>340.5</ele><time>2026-04-03T18:26:22.353Z</time></trkpt><trkpt lat="41.6199944" lon="2.1011203"><ele>340.0</ele><time>2026-04-03T18:26:23.344Z</time></trkpt><trkpt lat="41.6198745" lon="2.1010477"><ele>340.0</ele><time>2026-04-03T18:26:24.346Z</time></trkpt><trkpt lat="41.6197844" lon="2.1009418"><ele>340.0</ele><time>2026-04-03T18:26:25.34Z</time></trkpt><trkpt lat="41.6197123" lon="2.1007711"><ele>340.0</ele><time>2026-04-03T18:26:26.345Z</time></trkpt><trkpt lat="41.6196793" lon="2.1005769"><ele>340.0</ele><time>2026-04-03T18:26:27.334Z</time></trkpt><trkpt lat="41.6196624" lon="2.1003726"><ele>341.25</ele><time>2026-04-03T18:26:28.341Z</time></trkpt><trkpt lat="41.6196744" lon="2.1001614"><ele>342.5</ele><time>2026-04-03T18:26:29.332Z</time></trkpt><trkpt lat="41.6196955" lon="2.0999529"><ele>343.75</ele><time>2026-04-03T18:26:30.35Z</time></trkpt><trkpt lat="41.6197301" lon="2.0997841"><ele>345.0</ele><time>2026-04-03T18:26:31.341Z</time></trkpt><trkpt lat="41.6197503" lon="2.0996229"><ele>345.4</ele><time>2026-04-03T18:26:32.338Z</time></trkpt><trkpt lat="41.6197659" lon="2.0994752"><ele>345.8</ele><time>2026-04-03T18:26:33.339Z</time></trkpt><trkpt lat="41.6197582" lon="2.0993512"><ele>346.20000000000005</ele><time>2026-04-03T18:26:34.352Z</time></trkpt><trkpt lat="41.6197083" lon="2.0992676"><ele>346.6</ele><time>2026-04-03T18:26:35.32Z</time></trkpt><trkpt lat="41.6196213" lon="2.0992302"><ele>347.0</ele><time>2026-04-03T18:26:36.341Z</time></trkpt><trkpt lat="41.6195082" lon="2.0992104"><ele>347.0</ele><time>2026-04-03T18:26:37.333Z</time></trkpt><trkpt lat="41.6193807" lon="2.0991885"><ele>347.0</ele><time>2026-04-03T18:26:38.33Z</time></trkpt><trkpt lat="41.6192476" lon="2.0991323"><ele>347.0</ele><time>2026-04-03T18:26:39.353Z</time></trkpt><trkpt lat="41.6191303" lon="2.0990217"><ele>347.0</ele><time>2026-04-03T18:26:40.368Z</time></trkpt><trkpt lat="41.6190278" lon="2.0988723"><ele>347.0</ele><time>2026-04-03T18:26:41.347Z</time></trkpt><trkpt lat="41.6189206" lon="2.098716"><ele>347.0</ele><time>2026-04-03T18:26:42.347Z</time></trkpt><trkpt lat="41.6188234" lon="2.098574"><ele>347.0</ele><time>2026-04-03T18:26:43.348Z</time></trkpt><trkpt lat="41.6187358" lon="2.0984302"><ele>347.0</ele><time>2026-04-03T18:26:44.337Z</time></trkpt><trkpt lat="41.6186582" lon="2.0982755"><ele>346.75</ele><time>2026-04-03T18:26:45.34Z</time></trkpt><trkpt lat="41.6185837" lon="2.0981277"><ele>346.5</ele><time>2026-04-03T18:26:46.344Z</time></trkpt><trkpt lat="41.618515" lon="2.0979934"><ele>346.25</ele><time>2026-04-03T18:26:47.344Z</time></trkpt><trkpt lat="41.6184493" lon="2.097874"><ele>346.0</ele><time>2026-04-03T18:26:48.352Z</time></trkpt><trkpt lat="41.6183989" lon="2.097774"><ele>346.0</ele><time>2026-04-03T18:26:49.333Z</time></trkpt><trkpt lat="41.618355" lon="2.0976662"><ele>346.0</ele><time>2026-04-03T18:26:50.385Z</time></trkpt><trkpt lat="41.6183398" lon="2.0975664"><ele>346.0</ele><time>2026-04-03T18:26:51.353Z</time></trkpt><trkpt lat="41.6183373" lon="2.0974554"><ele>346.0</ele><time>2026-04-03T18:26:52.343Z</time></trkpt><trkpt lat="41.6183147" lon="2.0973178"><ele>346.0</ele><time>2026-04-03T18:26:53.468Z</time></trkpt><trkpt lat="41.6182445" lon="2.0969928"><ele>346.75</ele><time>2026-04-03T18:26:55.37Z</time></trkpt><trkpt lat="41.6182169" lon="2.0968205"><ele>347.5</ele><time>2026-04-03T18:26:56.35Z</time></trkpt><trkpt lat="41.6181934" lon="2.0966329"><ele>348.25</ele><time>2026-04-03T18:26:57.348Z</time></trkpt><trkpt lat="41.6181666" lon="2.0964389"><ele>349.0</ele><time>2026-04-03T18:26:58.362Z</time></trkpt><trkpt lat="41.6181407" lon="2.0962498"><ele>349.3333333333333</ele><time>2026-04-03T18:26:59.338Z</time></trkpt><trkpt lat="41.6181136" lon="2.0960493"><ele>349.6666666666667</ele><time>2026-04-03T18:27:00.357Z</time></trkpt><trkpt lat="41.6180815" lon="2.0958521"><ele>350.0</ele><time>2026-04-03T18:27:01.328Z</time></trkpt><trkpt lat="41.6180539" lon="2.0956593"><ele>350.0</ele><time>2026-04-03T18:27:02.342Z</time></trkpt><trkpt lat="41.6180324" lon="2.0954818"><ele>350.0</ele><time>2026-04-03T18:27:03.327Z</time></trkpt><trkpt lat="41.6180141" lon="2.0953034"><ele>350.0</ele><time>2026-04-03T18:27:04.357Z</time></trkpt><trkpt lat="41.6180053" lon="2.0951402"><ele>350.0</ele><time>2026-04-03T18:27:05.336Z</time></trkpt><trkpt lat="41.6180085" lon="2.0949684"><ele>349.4</ele><time>2026-04-03T18:27:06.34Z</time></trkpt><trkpt lat="41.6180259" lon="2.0948112"><ele>348.8</ele><time>2026-04-03T18:27:07.35Z</time></trkpt><trkpt lat="41.6180492" lon="2.0946654"><ele>348.20000000000005</ele><time>2026-04-03T18:27:08.337Z</time></trkpt><trkpt lat="41.6180715" lon="2.0945189"><ele>347.6</ele><time>2026-04-03T18:27:09.382Z</time></trkpt><trkpt lat="41.6180892" lon="2.0943827"><ele>347.0</ele><time>2026-04-03T18:27:10.329Z</time></trkpt><trkpt lat="41.6180888" lon="2.0942309"><ele>347.5</ele><time>2026-04-03T18:27:11.328Z</time></trkpt><trkpt lat="41.6180676" lon="2.094073"><ele>348.0</ele><time>2026-04-03T18:27:12.335Z</time></trkpt><trkpt lat="41.6180275" lon="2.0939129"><ele>348.5</ele><time>2026-04-03T18:27:13.35Z</time></trkpt><trkpt lat="41.6179796" lon="2.0937591"><ele>349.0</ele><time>2026-04-03T18:27:14.331Z</time></trkpt><trkpt lat="41.6179169" lon="2.0935995"><ele>349.0</ele><time>2026-04-03T18:27:15.335Z</time></trkpt><trkpt lat="41.6178557" lon="2.0934332"><ele>349.0</ele><time>2026-04-03T18:27:16.353Z</time></trkpt><trkpt lat="41.617792" lon="2.0932693"><ele>349.0</ele><time>2026-04-03T18:27:17.349Z</time></trkpt><trkpt lat="41.6177341" lon="2.0931113"><ele>349.0</ele><time>2026-04-03T18:27:18.326Z</time></trkpt><trkpt lat="41.6176772" lon="2.0929553"><ele>347.79999999999995</ele><time>2026-04-03T18:27:19.348Z</time></trkpt><trkpt lat="41.6176287" lon="2.0928085"><ele>346.59999999999997</ele><time>2026-04-03T18:27:20.336Z</time></trkpt><trkpt lat="41.6175814" lon="2.09267"><ele>345.4</ele><time>2026-04-03T18:27:21.356Z</time></trkpt><trkpt lat="41.6175403" lon="2.0925507"><ele>344.2</ele><time>2026-04-03T18:27:22.33Z</time></trkpt><trkpt lat="41.6174963" lon="2.0924281"><ele>343.0</ele><time>2026-04-03T18:27:23.363Z</time></trkpt><trkpt lat="41.617447" lon="2.0923066"><ele>342.59999999999997</ele><time>2026-04-03T18:27:24.331Z</time></trkpt><trkpt lat="41.6174061" lon="2.0921803"><ele>342.2</ele><time>2026-04-03T18:27:25.326Z</time></trkpt><trkpt lat="41.6173623" lon="2.0920508"><ele>341.8</ele><time>2026-04-03T18:27:26.326Z</time></trkpt><trkpt lat="41.6173153" lon="2.0919266"><ele>341.4</ele><time>2026-04-03T18:27:27.324Z</time></trkpt><trkpt lat="41.6172724" lon="2.0918005"><ele>341.0</ele><time>2026-04-03T18:27:28.327Z</time></trkpt><trkpt lat="41.6172272" lon="2.0916752"><ele>341.4</ele><time>2026-04-03T18:27:29.343Z</time></trkpt><trkpt lat="41.6171782" lon="2.0915527"><ele>341.8</ele><time>2026-04-03T18:27:30.326Z</time></trkpt><trkpt lat="41.6171303" lon="2.09144"><ele>342.2</ele><time>2026-04-03T18:27:31.325Z</time></trkpt><trkpt lat="41.6170811" lon="2.0913247"><ele>342.59999999999997</ele><time>2026-04-03T18:27:32.335Z</time></trkpt><trkpt lat="41.6170351" lon="2.0912082"><ele>343.0</ele><time>2026-04-03T18:27:33.346Z</time></trkpt><trkpt lat="41.6169936" lon="2.0910952"><ele>342.4</ele><time>2026-04-03T18:27:34.367Z</time></trkpt><trkpt lat="41.6169538" lon="2.0909861"><ele>341.79999999999995</ele><time>2026-04-03T18:27:35.349Z</time></trkpt><trkpt lat="41.6169134" lon="2.0908799"><ele>341.2</ele><time>2026-04-03T18:27:36.345Z</time></trkpt><trkpt lat="41.61687" lon="2.0907681"><ele>340.6</ele><time>2026-04-03T18:27:37.345Z</time></trkpt><trkpt lat="41.6168281" lon="2.0906538"><ele>340.0</ele><time>2026-04-03T18:27:38.353Z</time></trkpt><trkpt lat="41.616784" lon="2.09054"><ele>340.0</ele><time>2026-04-03T18:27:39.362Z</time></trkpt><trkpt lat="41.6167434" lon="2.0904278"><ele>340.0</ele><time>2026-04-03T18:27:40.353Z</time></trkpt><trkpt lat="41.6167042" lon="2.0903173"><ele>340.0</ele><time>2026-04-03T18:27:41.376Z</time></trkpt><trkpt lat="41.6166715" lon="2.0902208"><ele>340.0</ele><time>2026-04-03T18:27:42.35Z</time></trkpt><trkpt lat="41.6166401" lon="2.090131"><ele>340.0</ele><time>2026-04-03T18:27:43.342Z</time></trkpt><trkpt lat="41.6166126" lon="2.0900446"><ele>340.0</ele><time>2026-04-03T18:27:44.328Z</time></trkpt><trkpt lat="41.616572" lon="2.0899059"><ele>339.8</ele><time>2026-04-03T18:27:46.343Z</time></trkpt><trkpt lat="41.6165518" lon="2.0898045"><ele>339.6</ele><time>2026-04-03T18:27:48.347Z</time></trkpt><trkpt lat="41.6165008" lon="2.0896888"><ele>339.4</ele><time>2026-04-03T18:28:20.293Z</time></trkpt><trkpt lat="41.6164607" lon="2.0895355"><ele>339.2</ele><time>2026-04-03T18:28:22.326Z</time></trkpt><trkpt lat="41.6164378" lon="2.0894451"><ele>339.0</ele><time>2026-04-03T18:28:23.341Z</time></trkpt><trkpt lat="41.6164123" lon="2.089346"><ele>339.0</ele><time>2026-04-03T18:28:24.33Z</time></trkpt><trkpt lat="41.6163867" lon="2.0892355"><ele>339.0</ele><time>2026-04-03T18:28:25.344Z</time></trkpt><trkpt lat="41.6163614" lon="2.0891254"><ele>339.0</ele><time>2026-04-03T18:28:26.319Z</time></trkpt><trkpt lat="41.6163377" lon="2.0890431"><ele>339.0</ele><time>2026-04-03T18:28:27.33Z</time></trkpt><trkpt lat="41.6163177" lon="2.0888895"><ele>339.0</ele><time>2026-04-03T18:28:29.341Z</time></trkpt><trkpt lat="41.6162994" lon="2.0888014"><ele>339.0</ele><time>2026-04-03T18:28:30.342Z</time></trkpt><trkpt lat="41.6162731" lon="2.0886874"><ele>338.6666666666667</ele><time>2026-04-03T18:28:31.538Z</time></trkpt><trkpt lat="41.6162332" lon="2.088554"><ele>338.3333333333333</ele><time>2026-04-03T18:28:33.458Z</time></trkpt><trkpt lat="41.6162119" lon="2.0884707"><ele>338.0</ele><time>2026-04-03T18:28:35.329Z</time></trkpt><trkpt lat="41.6161782" lon="2.0883396"><ele>337.66666666666663</ele><time>2026-04-03T18:28:37.324Z</time></trkpt><trkpt lat="41.6161548" lon="2.0882494"><ele>337.3333333333333</ele><time>2026-04-03T18:28:38.35Z</time></trkpt><trkpt lat="41.6161261" lon="2.0881578"><ele>337.0</ele><time>2026-04-03T18:28:39.353Z</time></trkpt><trkpt lat="41.6160959" lon="2.0880618"><ele>336.42857142857144</ele><time>2026-04-03T18:28:40.366Z</time></trkpt><trkpt lat="41.6160659" lon="2.0879681"><ele>335.8571428571429</ele><time>2026-04-03T18:28:41.353Z</time></trkpt><trkpt lat="41.6160371" lon="2.0878819"><ele>335.28571428571433</ele><time>2026-04-03T18:28:42.368Z</time></trkpt><trkpt lat="41.6160111" lon="2.0878017"><ele>334.7142857142857</ele><time>2026-04-03T18:28:43.363Z</time></trkpt><trkpt lat="41.6159757" lon="2.0877317"><ele>334.1428571428571</ele><time>2026-04-03T18:28:44.34Z</time></trkpt><trkpt lat="41.615931" lon="2.0876599"><ele>333.5714285714286</ele><time>2026-04-03T18:28:45.347Z</time></trkpt><trkpt lat="41.615884" lon="2.0875803"><ele>333.0</ele><time>2026-04-03T18:28:46.344Z</time></trkpt><trkpt lat="41.6158525" lon="2.0874891"><ele>332.6666666666667</ele><time>2026-04-03T18:28:47.342Z</time></trkpt><trkpt lat="41.6158191" lon="2.0873912"><ele>332.3333333333333</ele><time>2026-04-03T18:28:48.354Z</time></trkpt><trkpt lat="41.6157854" lon="2.0872795"><ele>332.0</ele><time>2026-04-03T18:28:49.362Z</time></trkpt><trkpt lat="41.6157499" lon="2.0871695"><ele>331.66666666666663</ele><time>2026-04-03T18:28:50.346Z</time></trkpt><trkpt lat="41.6157158" lon="2.0870568"><ele>331.3333333333333</ele><time>2026-04-03T18:28:51.361Z</time></trkpt><trkpt lat="41.6156805" lon="2.086945"><ele>331.0</ele><time>2026-04-03T18:28:52.337Z</time></trkpt><trkpt lat="41.6156466" lon="2.0868245"><ele>331.0</ele><time>2026-04-03T18:28:53.329Z</time></trkpt><trkpt lat="41.6156066" lon="2.086703"><ele>331.0</ele><time>2026-04-03T18:28:54.326Z</time></trkpt><trkpt lat="41.6155704" lon="2.0865812"><ele>331.0</ele><time>2026-04-03T18:28:55.34Z</time></trkpt><trkpt lat="41.6155389" lon="2.0864671"><ele>331.0</ele><time>2026-04-03T18:28:56.333Z</time></trkpt><trkpt lat="41.6155042" lon="2.0863642"><ele>331.0</ele><time>2026-04-03T18:28:57.347Z</time></trkpt><trkpt lat="41.6154718" lon="2.0862805"><ele>331.0</ele><time>2026-04-03T18:28:58.338Z</time></trkpt><trkpt lat="41.6154707" lon="2.0861608"><ele>330.4</ele><time>2026-04-03T18:29:00.371Z</time></trkpt><trkpt lat="41.6155702" lon="2.0860363"><ele>329.8</ele><time>2026-04-03T18:29:02.386Z</time></trkpt><trkpt lat="41.6156332" lon="2.0859724"><ele>329.2</ele><time>2026-04-03T18:29:03.352Z</time></trkpt><trkpt lat="41.6156987" lon="2.0859061"><ele>328.59999999999997</ele><time>2026-04-03T18:29:04.365Z</time></trkpt><trkpt lat="41.6157566" lon="2.0858491"><ele>328.0</ele><time>2026-04-03T18:29:05.344Z</time></trkpt><trkpt lat="41.615838" lon="2.0857622"><ele>326.8333333333333</ele><time>2026-04-03T18:29:07.336Z</time></trkpt><trkpt lat="41.6158424" lon="2.0856441"><ele>325.66666666666663</ele><time>2026-04-03T18:29:09.347Z</time></trkpt><trkpt lat="41.6157971" lon="2.0855677"><ele>324.5</ele><time>2026-04-03T18:29:10.326Z</time></trkpt><trkpt lat="41.6157341" lon="2.0854707"><ele>323.3333333333333</ele><time>2026-04-03T18:29:11.353Z</time></trkpt><trkpt lat="41.6156787" lon="2.0853875"><ele>322.1666666666667</ele><time>2026-04-03T18:29:12.321Z</time></trkpt><trkpt lat="41.6156248" lon="2.0853098"><ele>321.0</ele><time>2026-04-03T18:29:13.322Z</time></trkpt><trkpt lat="41.6155702" lon="2.0852313"><ele>321.0</ele><time>2026-04-03T18:29:14.347Z</time></trkpt><trkpt lat="41.6155207" lon="2.0851493"><ele>321.0</ele><time>2026-04-03T18:29:15.375Z</time></trkpt><trkpt lat="41.6154608" lon="2.0850383"><ele>321.0</ele><time>2026-04-03T18:29:17.335Z</time></trkpt><trkpt lat="41.6154354" lon="2.0849542"><ele>321.0</ele><time>2026-04-03T18:29:19.349Z</time></trkpt><trkpt lat="41.6154655" lon="2.0848436"><ele>321.0</ele><time>2026-04-03T18:29:21.366Z</time></trkpt><trkpt lat="41.6155164" lon="2.0847823"><ele>321.0</ele><time>2026-04-03T18:29:22.365Z</time></trkpt><trkpt lat="41.6155781" lon="2.0846966"><ele>319.2</ele><time>2026-04-03T18:29:23.391Z</time></trkpt><trkpt lat="41.6156344" lon="2.084603"><ele>317.40000000000003</ele><time>2026-04-03T18:29:24.342Z</time></trkpt><trkpt lat="41.6156801" lon="2.0845071"><ele>315.6</ele><time>2026-04-03T18:29:25.323Z</time></trkpt><trkpt lat="41.6157262" lon="2.0843945"><ele>313.8</ele><time>2026-04-03T18:29:26.352Z</time></trkpt><trkpt lat="41.6157661" lon="2.0842856"><ele>312.0</ele><time>2026-04-03T18:29:27.344Z</time></trkpt><trkpt lat="41.615814" lon="2.0841836"><ele>310.3333333333333</ele><time>2026-04-03T18:29:28.332Z</time></trkpt><trkpt lat="41.6158563" lon="2.0840759"><ele>308.6666666666667</ele><time>2026-04-03T18:29:29.385Z</time></trkpt><trkpt lat="41.6158972" lon="2.0839966"><ele>307.0</ele><time>2026-04-03T18:29:30.337Z</time></trkpt><trkpt lat="41.6159382" lon="2.0839034"><ele>305.33333333333337</ele><time>2026-04-03T18:29:31.36Z</time></trkpt><trkpt lat="41.6159776" lon="2.0838104"><ele>303.6666666666667</ele><time>2026-04-03T18:29:32.358Z</time></trkpt><trkpt lat="41.6160214" lon="2.0837203"><ele>302.0</ele><time>2026-04-03T18:29:33.38Z</time></trkpt><trkpt lat="41.6160548" lon="2.08364"><ele>302.0</ele><time>2026-04-03T18:29:34.325Z</time></trkpt><trkpt lat="41.6160982" lon="2.0835463"><ele>302.0</ele><time>2026-04-03T18:29:36.314Z</time></trkpt><trkpt lat="41.6160737" lon="2.0834377"><ele>302.0</ele><time>2026-04-03T18:29:40.337Z</time></trkpt><trkpt lat="41.6159287" lon="2.0834477"><ele>302.0</ele><time>2026-04-03T18:29:42.358Z</time></trkpt><trkpt lat="41.6158322" lon="2.083466"><ele>302.0</ele><time>2026-04-03T18:29:43.355Z</time></trkpt><trkpt lat="41.6157078" lon="2.0834598"><ele>302.0</ele><time>2026-04-03T18:29:44.33Z</time></trkpt><trkpt lat="41.6155712" lon="2.0834006"><ele>302.0</ele><time>2026-04-03T18:29:45.342Z</time></trkpt><trkpt lat="41.6154433" lon="2.0833352"><ele>302.0</ele><time>2026-04-03T18:29:46.326Z</time></trkpt><trkpt lat="41.6153281" lon="2.0832636"><ele>302.0</ele><time>2026-04-03T18:29:47.331Z</time></trkpt><trkpt lat="41.6152326" lon="2.0832108"><ele>302.83333333333337</ele><time>2026-04-03T18:29:48.328Z</time></trkpt><trkpt lat="41.6151671" lon="2.0831517"><ele>303.6666666666667</ele><time>2026-04-03T18:29:49.355Z</time></trkpt><trkpt lat="41.6151331" lon="2.083073"><ele>304.5</ele><time>2026-04-03T18:29:50.339Z</time></trkpt><trkpt lat="41.6151237" lon="2.0829697"><ele>305.3333333333333</ele><time>2026-04-03T18:29:51.363Z</time></trkpt><trkpt lat="41.6151487" lon="2.082851"><ele>306.16666666666663</ele><time>2026-04-03T18:29:52.356Z</time></trkpt><trkpt lat="41.6152118" lon="2.0827016"><ele>307.0</ele><time>2026-04-03T18:29:53.454Z</time></trkpt><trkpt lat="41.615344" lon="2.0824108"><ele>302.0</ele><time>2026-04-03T18:29:55.369Z</time></trkpt><trkpt lat="41.6154116" lon="2.0822752"><ele>297.0</ele><time>2026-04-03T18:29:56.315Z</time></trkpt><trkpt lat="41.6154771" lon="2.0820957"><ele>292.0</ele><time>2026-04-03T18:29:57.47Z</time></trkpt><trkpt lat="41.6155095" lon="2.0817636"><ele>290.75</ele><time>2026-04-03T18:29:59.367Z</time></trkpt><trkpt lat="41.6155099" lon="2.081579"><ele>289.5</ele><time>2026-04-03T18:30:00.346Z</time></trkpt><trkpt lat="41.6155048" lon="2.0813949"><ele>288.25</ele><time>2026-04-03T18:30:01.356Z</time></trkpt><trkpt lat="41.6154779" lon="2.0812169"><ele>287.0</ele><time>2026-04-03T18:30:02.338Z</time></trkpt><trkpt lat="41.6154209" lon="2.0810358"><ele>287.0</ele><time>2026-04-03T18:30:03.327Z</time></trkpt><trkpt lat="41.6153484" lon="2.0808505"><ele>287.0</ele><time>2026-04-03T18:30:04.331Z</time></trkpt><trkpt lat="41.6152695" lon="2.0806671"><ele>287.0</ele><time>2026-04-03T18:30:05.359Z</time></trkpt><trkpt lat="41.6151988" lon="2.0805019"><ele>287.5</ele><time>2026-04-03T18:30:06.334Z</time></trkpt><trkpt lat="41.6151188" lon="2.0803443"><ele>288.0</ele><time>2026-04-03T18:30:07.343Z</time></trkpt><trkpt lat="41.6150245" lon="2.0802063"><ele>288.5</ele><time>2026-04-03T18:30:08.336Z</time></trkpt><trkpt lat="41.6149146" lon="2.080085"><ele>289.0</ele><time>2026-04-03T18:30:09.334Z</time></trkpt><trkpt lat="41.6147899" lon="2.0799636"><ele>287.0</ele><time>2026-04-03T18:30:10.361Z</time></trkpt><trkpt lat="41.6146567" lon="2.079836"><ele>285.0</ele><time>2026-04-03T18:30:11.433Z</time></trkpt><trkpt lat="41.6145373" lon="2.0797322"><ele>283.0</ele><time>2026-04-03T18:30:12.34Z</time></trkpt><trkpt lat="41.614404" lon="2.0796124"><ele>283.0</ele><time>2026-04-03T18:30:13.357Z</time></trkpt><trkpt lat="41.6142729" lon="2.0794886"><ele>283.0</ele><time>2026-04-03T18:30:14.332Z</time></trkpt><trkpt lat="41.6141399" lon="2.0793659"><ele>283.0</ele><time>2026-04-03T18:30:15.337Z</time></trkpt><trkpt lat="41.6140081" lon="2.0792537"><ele>283.0</ele><time>2026-04-03T18:30:16.336Z</time></trkpt><trkpt lat="41.6138934" lon="2.0791392"><ele>283.0</ele><time>2026-04-03T18:30:17.35Z</time></trkpt><trkpt lat="41.6137966" lon="2.0790213"><ele>283.0</ele><time>2026-04-03T18:30:18.343Z</time></trkpt><trkpt lat="41.613715" lon="2.078866"><ele>283.0</ele><time>2026-04-03T18:30:19.437Z</time></trkpt><trkpt lat="41.6136737" lon="2.0787128"><ele>283.5</ele><time>2026-04-03T18:30:20.349Z</time></trkpt><trkpt lat="41.613641" lon="2.0785291"><ele>284.0</ele><time>2026-04-03T18:30:21.361Z</time></trkpt><trkpt lat="41.6136122" lon="2.0783607"><ele>284.5</ele><time>2026-04-03T18:30:22.33Z</time></trkpt><trkpt lat="41.6135849" lon="2.0781862"><ele>285.0</ele><time>2026-04-03T18:30:23.377Z</time></trkpt><trkpt lat="41.6135611" lon="2.0780536"><ele>285.0</ele><time>2026-04-03T18:30:24.336Z</time></trkpt><trkpt lat="41.6135119" lon="2.0779461"><ele>285.0</ele><time>2026-04-03T18:30:25.367Z</time></trkpt><trkpt lat="41.6134349" lon="2.0778911"><ele>285.0</ele><time>2026-04-03T18:30:26.333Z</time></trkpt><trkpt lat="41.6133254" lon="2.077881"><ele>285.0</ele><time>2026-04-03T18:30:27.346Z</time></trkpt><trkpt lat="41.6132026" lon="2.0779133"><ele>285.0</ele><time>2026-04-03T18:30:28.34Z</time></trkpt><trkpt lat="41.6130584" lon="2.0779727"><ele>285.0</ele><time>2026-04-03T18:30:29.448Z</time></trkpt><trkpt lat="41.6129295" lon="2.0780218"><ele>285.0</ele><time>2026-04-03T18:30:30.352Z</time></trkpt><trkpt lat="41.6127882" lon="2.0780755"><ele>285.0</ele><time>2026-04-03T18:30:31.341Z</time></trkpt><trkpt lat="41.6126421" lon="2.0781242"><ele>285.0</ele><time>2026-04-03T18:30:32.348Z</time></trkpt><trkpt lat="41.6125049" lon="2.0781669"><ele>283.5</ele><time>2026-04-03T18:30:33.372Z</time></trkpt><trkpt lat="41.6123752" lon="2.0782061"><ele>282.0</ele><time>2026-04-03T18:30:34.365Z</time></trkpt><trkpt lat="41.6122572" lon="2.078237"><ele>280.5</ele><time>2026-04-03T18:30:35.332Z</time></trkpt><trkpt lat="41.6121466" lon="2.0782645"><ele>279.0</ele><time>2026-04-03T18:30:36.353Z</time></trkpt><trkpt lat="41.6120424" lon="2.0782825"><ele>279.2</ele><time>2026-04-03T18:30:37.338Z</time></trkpt><trkpt lat="41.6119408" lon="2.0782695"><ele>279.4</ele><time>2026-04-03T18:30:38.344Z</time></trkpt><trkpt lat="41.6118383" lon="2.0782339"><ele>279.6</ele><time>2026-04-03T18:30:39.34Z</time></trkpt><trkpt lat="41.6117448" lon="2.0781748"><ele>279.8</ele><time>2026-04-03T18:30:40.356Z</time></trkpt><trkpt lat="41.6116613" lon="2.0781077"><ele>280.0</ele><time>2026-04-03T18:30:41.322Z</time></trkpt><trkpt lat="41.6115821" lon="2.0780353"><ele>282.8</ele><time>2026-04-03T18:30:42.338Z</time></trkpt><trkpt lat="41.6115012" lon="2.0779755"><ele>285.6</ele><time>2026-04-03T18:30:43.32Z</time></trkpt><trkpt lat="41.6114078" lon="2.0779443"><ele>288.4</ele><time>2026-04-03T18:30:44.351Z</time></trkpt><trkpt lat="41.6113096" lon="2.0779342"><ele>291.2</ele><time>2026-04-03T18:30:45.359Z</time></trkpt><trkpt lat="41.6112151" lon="2.0779202"><ele>294.0</ele><time>2026-04-03T18:30:46.329Z</time></trkpt><trkpt lat="41.6111206" lon="2.0778837"><ele>294.0</ele><time>2026-04-03T18:30:47.336Z</time></trkpt><trkpt lat="41.6110245" lon="2.0778204"><ele>294.0</ele><time>2026-04-03T18:30:48.333Z</time></trkpt><trkpt lat="41.6109313" lon="2.0777475"><ele>294.0</ele><time>2026-04-03T18:30:49.357Z</time></trkpt><trkpt lat="41.6108493" lon="2.0776804"><ele>294.0</ele><time>2026-04-03T18:30:50.33Z</time></trkpt><trkpt lat="41.6107701" lon="2.0776138"><ele>294.0</ele><time>2026-04-03T18:30:51.331Z</time></trkpt><trkpt lat="41.6106969" lon="2.0775511"><ele>294.0</ele><time>2026-04-03T18:30:52.332Z</time></trkpt><trkpt lat="41.6106173" lon="2.0774834"><ele>294.0</ele><time>2026-04-03T18:30:53.445Z</time></trkpt><trkpt lat="41.6105505" lon="2.0774252"><ele>294.0</ele><time>2026-04-03T18:30:54.354Z</time></trkpt><trkpt lat="41.6104839" lon="2.0773682"><ele>294.0</ele><time>2026-04-03T18:30:55.342Z</time></trkpt><trkpt lat="41.6104246" lon="2.0773188"><ele>294.0</ele><time>2026-04-03T18:30:56.333Z</time></trkpt><trkpt lat="41.6103674" lon="2.0772687"><ele>294.0</ele><time>2026-04-03T18:30:57.347Z</time></trkpt><trkpt lat="41.6103135" lon="2.0772246"><ele>294.2</ele><time>2026-04-03T18:30:58.336Z</time></trkpt><trkpt lat="41.6102492" lon="2.0771725"><ele>294.4</ele><time>2026-04-03T18:30:59.458Z</time></trkpt><trkpt lat="41.6101321" lon="2.0770784"><ele>294.6</ele><time>2026-04-03T18:31:01.357Z</time></trkpt><trkpt lat="41.6100533" lon="2.0770145"><ele>294.8</ele><time>2026-04-03T18:31:02.445Z</time></trkpt><trkpt lat="41.609972" lon="2.0769439"><ele>295.0</ele><time>2026-04-03T18:31:03.426Z</time></trkpt><trkpt lat="41.609879" lon="2.0768666"><ele>295.0</ele><time>2026-04-03T18:31:04.35Z</time></trkpt><trkpt lat="41.609769" lon="2.0767772"><ele>295.0</ele><time>2026-04-03T18:31:05.382Z</time></trkpt><trkpt lat="41.6096592" lon="2.0766808"><ele>295.0</ele><time>2026-04-03T18:31:06.346Z</time></trkpt><trkpt lat="41.6095301" lon="2.0765763"><ele>295.0</ele><time>2026-04-03T18:31:07.361Z</time></trkpt><trkpt lat="41.6094024" lon="2.0764721"><ele>299.0</ele><time>2026-04-03T18:31:08.327Z</time></trkpt><trkpt lat="41.6092579" lon="2.0763524"><ele>303.0</ele><time>2026-04-03T18:31:09.45Z</time></trkpt><trkpt lat="41.6090175" lon="2.0761488"><ele>303.0</ele><time>2026-04-03T18:31:11.359Z</time></trkpt><trkpt lat="41.6089113" lon="2.0760569"><ele>303.0</ele><time>2026-04-03T18:31:12.34Z</time></trkpt><trkpt lat="41.6088152" lon="2.0759528"><ele>303.0</ele><time>2026-04-03T18:31:13.436Z</time></trkpt><trkpt lat="41.6087085" lon="2.0757209"><ele>303.5</ele><time>2026-04-03T18:31:15.362Z</time></trkpt><trkpt lat="41.6086941" lon="2.0755828"><ele>304.0</ele><time>2026-04-03T18:31:16.338Z</time></trkpt><trkpt lat="41.6087049" lon="2.0754352"><ele>304.5</ele><time>2026-04-03T18:31:17.346Z</time></trkpt><trkpt lat="41.6087457" lon="2.0753017"><ele>305.0</ele><time>2026-04-03T18:31:18.325Z</time></trkpt><trkpt lat="41.6088157" lon="2.0751577"><ele>305.0</ele><time>2026-04-03T18:31:19.335Z</time></trkpt><trkpt lat="41.60889" lon="2.0750055"><ele>305.0</ele><time>2026-04-03T18:31:20.343Z</time></trkpt><trkpt lat="41.6089754" lon="2.0748163"><ele>305.0</ele><time>2026-04-03T18:31:21.338Z</time></trkpt><trkpt lat="41.6090603" lon="2.0746359"><ele>305.0</ele><time>2026-04-03T18:31:22.345Z</time></trkpt><trkpt lat="41.6091296" lon="2.0744572"><ele>305.0</ele><time>2026-04-03T18:31:23.35Z</time></trkpt><trkpt lat="41.6091781" lon="2.0742589"><ele>305.0</ele><time>2026-04-03T18:31:24.362Z</time></trkpt><trkpt lat="41.6092032" lon="2.0740522"><ele>305.0</ele><time>2026-04-03T18:31:25.352Z</time></trkpt><trkpt lat="41.6092265" lon="2.07384"><ele>305.0</ele><time>2026-04-03T18:31:26.333Z</time></trkpt><trkpt lat="41.6092603" lon="2.0736303"><ele>305.0</ele><time>2026-04-03T18:31:27.338Z</time></trkpt><trkpt lat="41.6093058" lon="2.0734384"><ele>306.5</ele><time>2026-04-03T18:31:28.325Z</time></trkpt><trkpt lat="41.6093701" lon="2.0732609"><ele>308.0</ele><time>2026-04-03T18:31:29.331Z</time></trkpt><trkpt lat="41.6094415" lon="2.0731085"><ele>309.5</ele><time>2026-04-03T18:31:30.335Z</time></trkpt><trkpt lat="41.6095096" lon="2.0729559"><ele>311.0</ele><time>2026-04-03T18:31:31.436Z</time></trkpt><trkpt lat="41.6095684" lon="2.0726605"><ele>312.5</ele><time>2026-04-03T18:31:33.335Z</time></trkpt><trkpt lat="41.6095458" lon="2.0724759"><ele>314.0</ele><time>2026-04-03T18:31:34.357Z</time></trkpt><trkpt lat="41.6094861" lon="2.0723122"><ele>315.5</ele><time>2026-04-03T18:31:35.344Z</time></trkpt><trkpt lat="41.6093952" lon="2.0721759"><ele>317.0</ele><time>2026-04-03T18:31:36.372Z</time></trkpt><trkpt lat="41.609291" lon="2.0720892"><ele>317.0</ele><time>2026-04-03T18:31:37.35Z</time></trkpt><trkpt lat="41.6091638" lon="2.0720309"><ele>317.0</ele><time>2026-04-03T18:31:38.33Z</time></trkpt><trkpt lat="41.6090291" lon="2.0719775"><ele>317.0</ele><time>2026-04-03T18:31:39.372Z</time></trkpt><trkpt lat="41.6089032" lon="2.0719002"><ele>317.0</ele><time>2026-04-03T18:31:40.353Z</time></trkpt><trkpt lat="41.6087889" lon="2.0717745"><ele>317.0</ele><time>2026-04-03T18:31:41.349Z</time></trkpt><trkpt lat="41.6086802" lon="2.071608"><ele>317.0</ele><time>2026-04-03T18:31:42.353Z</time></trkpt><trkpt lat="41.608587" lon="2.0714201"><ele>317.0</ele><time>2026-04-03T18:31:43.358Z</time></trkpt><trkpt lat="41.6085051" lon="2.0712099"><ele>318.33333333333337</ele><time>2026-04-03T18:31:44.33Z</time></trkpt><trkpt lat="41.6084154" lon="2.0709728"><ele>319.6666666666667</ele><time>2026-04-03T18:31:45.359Z</time></trkpt><trkpt lat="41.608328" lon="2.0707426"><ele>321.0</ele><time>2026-04-03T18:31:46.328Z</time></trkpt><trkpt lat="41.6082354" lon="2.0705098"><ele>322.3333333333333</ele><time>2026-04-03T18:31:47.351Z</time></trkpt><trkpt lat="41.6081409" lon="2.0702948"><ele>323.66666666666663</ele><time>2026-04-03T18:31:48.324Z</time></trkpt><trkpt lat="41.6080521" lon="2.0700695"><ele>325.0</ele><time>2026-04-03T18:31:49.348Z</time></trkpt><trkpt lat="41.6079821" lon="2.0698485"><ele>326.0</ele><time>2026-04-03T18:31:50.338Z</time></trkpt><trkpt lat="41.6079225" lon="2.0696158"><ele>327.0</ele><time>2026-04-03T18:31:51.347Z</time></trkpt><trkpt lat="41.6078759" lon="2.0693683"><ele>328.0</ele><time>2026-04-03T18:31:52.362Z</time></trkpt><trkpt lat="41.6078497" lon="2.0691326"><ele>329.0</ele><time>2026-04-03T18:31:53.329Z</time></trkpt><trkpt lat="41.6078427" lon="2.068886"><ele>330.0</ele><time>2026-04-03T18:31:54.34Z</time></trkpt><trkpt lat="41.6078515" lon="2.0686435"><ele>331.0</ele><time>2026-04-03T18:31:55.335Z</time></trkpt><trkpt lat="41.6078831" lon="2.0683923"><ele>332.0</ele><time>2026-04-03T18:31:56.334Z</time></trkpt><trkpt lat="41.6079323" lon="2.0681473"><ele>333.0</ele><time>2026-04-03T18:31:57.328Z</time></trkpt><trkpt lat="41.6079987" lon="2.0679118"><ele>334.0</ele><time>2026-04-03T18:31:58.334Z</time></trkpt><trkpt lat="41.6080943" lon="2.0676732"><ele>334.0</ele><time>2026-04-03T18:31:59.38Z</time></trkpt><trkpt lat="41.6082004" lon="2.0674626"><ele>334.0</ele><time>2026-04-03T18:32:00.343Z</time></trkpt><trkpt lat="41.6083282" lon="2.0672362"><ele>334.0</ele><time>2026-04-03T18:32:01.403Z</time></trkpt><trkpt lat="41.608441" lon="2.0670353"><ele>335.3333333333333</ele><time>2026-04-03T18:32:02.335Z</time></trkpt><trkpt lat="41.6085636" lon="2.0668211"><ele>336.6666666666667</ele><time>2026-04-03T18:32:03.355Z</time></trkpt><trkpt lat="41.6086737" lon="2.0666236"><ele>338.0</ele><time>2026-04-03T18:32:04.35Z</time></trkpt><trkpt lat="41.608773" lon="2.0664337"><ele>342.0</ele><time>2026-04-03T18:32:05.349Z</time></trkpt><trkpt lat="41.6088524" lon="2.0662455"><ele>346.0</ele><time>2026-04-03T18:32:06.373Z</time></trkpt><trkpt lat="41.6089042" lon="2.0660608"><ele>350.0</ele><time>2026-04-03T18:32:07.333Z</time></trkpt><trkpt lat="41.608934" lon="2.0658502"><ele>351.0</ele><time>2026-04-03T18:32:08.368Z</time></trkpt><trkpt lat="41.6089369" lon="2.0656463"><ele>352.0</ele><time>2026-04-03T18:32:09.34Z</time></trkpt><trkpt lat="41.6089096" lon="2.0654424"><ele>353.0</ele><time>2026-04-03T18:32:10.324Z</time></trkpt><trkpt lat="41.6088532" lon="2.0652359"><ele>353.0</ele><time>2026-04-03T18:32:11.344Z</time></trkpt><trkpt lat="41.6087878" lon="2.0650426"><ele>353.0</ele><time>2026-04-03T18:32:12.338Z</time></trkpt><trkpt lat="41.6087246" lon="2.0648679"><ele>353.0</ele><time>2026-04-03T18:32:13.33Z</time></trkpt><trkpt lat="41.6086864" lon="2.0646958"><ele>353.0</ele><time>2026-04-03T18:32:14.35Z</time></trkpt><trkpt lat="41.6086821" lon="2.0645228"><ele>353.33333333333337</ele><time>2026-04-03T18:32:15.349Z</time></trkpt><trkpt lat="41.6087227" lon="2.064337"><ele>353.6666666666667</ele><time>2026-04-03T18:32:16.458Z</time></trkpt><trkpt lat="41.6088453" lon="2.0640123"><ele>354.0</ele><time>2026-04-03T18:32:18.483Z</time></trkpt><trkpt lat="41.6089318" lon="2.0637578"><ele>353.5</ele><time>2026-04-03T18:32:20.333Z</time></trkpt><trkpt lat="41.6089322" lon="2.0636098"><ele>353.0</ele><time>2026-04-03T18:32:21.342Z</time></trkpt><trkpt lat="41.6088708" lon="2.0634853"><ele>352.5</ele><time>2026-04-03T18:32:22.35Z</time></trkpt><trkpt lat="41.6087826" lon="2.0633597"><ele>352.0</ele><time>2026-04-03T18:32:23.346Z</time></trkpt><trkpt lat="41.6086927" lon="2.0632209"><ele>347.75</ele><time>2026-04-03T18:32:24.334Z</time></trkpt><trkpt lat="41.6086126" lon="2.0630853"><ele>343.5</ele><time>2026-04-03T18:32:25.346Z</time></trkpt><trkpt lat="41.6085642" lon="2.0629418"><ele>339.25</ele><time>2026-04-03T18:32:26.341Z</time></trkpt><trkpt lat="41.6085397" lon="2.0627587"><ele>335.0</ele><time>2026-04-03T18:32:27.386Z</time></trkpt><trkpt lat="41.6085507" lon="2.062576"><ele>335.75</ele><time>2026-04-03T18:32:28.345Z</time></trkpt><trkpt lat="41.6085808" lon="2.0623744"><ele>336.5</ele><time>2026-04-03T18:32:29.359Z</time></trkpt><trkpt lat="41.6086133" lon="2.0621759"><ele>337.25</ele><time>2026-04-03T18:32:30.347Z</time></trkpt><trkpt lat="41.6086423" lon="2.0620043"><ele>338.0</ele><time>2026-04-03T18:32:31.354Z</time></trkpt><trkpt lat="41.6086429" lon="2.0618433"><ele>338.0</ele><time>2026-04-03T18:32:32.325Z</time></trkpt><trkpt lat="41.6086075" lon="2.061683"><ele>338.0</ele><time>2026-04-03T18:32:33.348Z</time></trkpt><trkpt lat="41.6085239" lon="2.0615574"><ele>338.0</ele><time>2026-04-03T18:32:34.342Z</time></trkpt><trkpt lat="41.6083982" lon="2.0614658"><ele>338.0</ele><time>2026-04-03T18:32:35.33Z</time></trkpt><trkpt lat="41.6082787" lon="2.0614302"><ele>338.0</ele><time>2026-04-03T18:32:36.312Z</time></trkpt><trkpt lat="41.6081821" lon="2.0614525"><ele>338.0</ele><time>2026-04-03T18:32:37.354Z</time></trkpt><trkpt lat="41.6081145" lon="2.0615337"><ele>338.0</ele><time>2026-04-03T18:32:38.33Z</time></trkpt><trkpt lat="41.6080037" lon="2.0616613"><ele>338.0</ele><time>2026-04-03T18:32:39.341Z</time></trkpt><trkpt lat="41.607903" lon="2.0618051"><ele>342.5</ele><time>2026-04-03T18:32:40.333Z</time></trkpt><trkpt lat="41.6078094" lon="2.061948"><ele>347.0</ele><time>2026-04-03T18:32:41.329Z</time></trkpt><trkpt lat="41.607703" lon="2.0620745"><ele>351.5</ele><time>2026-04-03T18:32:42.332Z</time></trkpt><trkpt lat="41.6076067" lon="2.0621777"><ele>356.0</ele><time>2026-04-03T18:32:43.344Z</time></trkpt><trkpt lat="41.6074904" lon="2.0622501"><ele>356.0</ele><time>2026-04-03T18:32:44.339Z</time></trkpt><trkpt lat="41.6073562" lon="2.0622913"><ele>356.0</ele><time>2026-04-03T18:32:45.349Z</time></trkpt><trkpt lat="41.6072048" lon="2.0623265"><ele>356.0</ele><time>2026-04-03T18:32:46.329Z</time></trkpt><trkpt lat="41.6070499" lon="2.0623653"><ele>356.0</ele><time>2026-04-03T18:32:47.351Z</time></trkpt><trkpt lat="41.6069284" lon="2.0624249"><ele>353.0</ele><time>2026-04-03T18:32:48.331Z</time></trkpt><trkpt lat="41.6068149" lon="2.0624998"><ele>350.0</ele><time>2026-04-03T18:32:49.349Z</time></trkpt><trkpt lat="41.6067003" lon="2.0626248"><ele>347.0</ele><time>2026-04-03T18:32:50.349Z</time></trkpt><trkpt lat="41.6065853" lon="2.0627612"><ele>344.0</ele><time>2026-04-03T18:32:51.367Z</time></trkpt><trkpt lat="41.606474" lon="2.0628838"><ele>344.0</ele><time>2026-04-03T18:32:52.331Z</time></trkpt><trkpt lat="41.6063621" lon="2.0630181"><ele>344.0</ele><time>2026-04-03T18:32:53.34Z</time></trkpt><trkpt lat="41.6062521" lon="2.0631519"><ele>344.0</ele><time>2026-04-03T18:32:54.326Z</time></trkpt><trkpt lat="41.606137" lon="2.0632905"><ele>346.0</ele><time>2026-04-03T18:32:55.355Z</time></trkpt><trkpt lat="41.6060323" lon="2.0634247"><ele>348.0</ele><time>2026-04-03T18:32:56.354Z</time></trkpt><trkpt lat="41.6059334" lon="2.0635435"><ele>350.0</ele><time>2026-04-03T18:32:57.351Z</time></trkpt><trkpt lat="41.6058355" lon="2.0636621"><ele>352.0</ele><time>2026-04-03T18:32:58.328Z</time></trkpt><trkpt lat="41.6057385" lon="2.063769"><ele>352.0</ele><time>2026-04-03T18:32:59.338Z</time></trkpt><trkpt lat="41.6056531" lon="2.0638595"><ele>352.0</ele><time>2026-04-03T18:33:00.349Z</time></trkpt><trkpt lat="41.6055611" lon="2.0639255"><ele>352.0</ele><time>2026-04-03T18:33:01.345Z</time></trkpt><trkpt lat="41.6054717" lon="2.0639613"><ele>352.0</ele><time>2026-04-03T18:33:02.363Z</time></trkpt><trkpt lat="41.6053795" lon="2.0640094"><ele>352.0</ele><time>2026-04-03T18:33:03.359Z</time></trkpt><trkpt lat="41.605302" lon="2.064087"><ele>352.25</ele><time>2026-04-03T18:33:04.343Z</time></trkpt><trkpt lat="41.6052359" lon="2.0641949"><ele>352.5</ele><time>2026-04-03T18:33:05.343Z</time></trkpt><trkpt lat="41.6051942" lon="2.0643661"><ele>352.75</ele><time>2026-04-03T18:33:06.33Z</time></trkpt><trkpt lat="41.6051575" lon="2.0645438"><ele>353.0</ele><time>2026-04-03T18:33:07.342Z</time></trkpt><trkpt lat="41.6050909" lon="2.0647188"><ele>353.0</ele><time>2026-04-03T18:33:08.346Z</time></trkpt><trkpt lat="41.6050092" lon="2.0648637"><ele>353.0</ele><time>2026-04-03T18:33:09.368Z</time></trkpt><trkpt lat="41.6049182" lon="2.0649924"><ele>353.0</ele><time>2026-04-03T18:33:10.365Z</time></trkpt><trkpt lat="41.6048184" lon="2.0651103"><ele>353.0</ele><time>2026-04-03T18:33:11.35Z</time></trkpt><trkpt lat="41.6047167" lon="2.0652139"><ele>354.25</ele><time>2026-04-03T18:33:12.343Z</time></trkpt><trkpt lat="41.6045905" lon="2.0652864"><ele>355.5</ele><time>2026-04-03T18:33:13.331Z</time></trkpt><trkpt lat="41.6044624" lon="2.0653347"><ele>356.75</ele><time>2026-04-03T18:33:14.332Z</time></trkpt><trkpt lat="41.6043446" lon="2.0653746"><ele>358.0</ele><time>2026-04-03T18:33:15.341Z</time></trkpt><trkpt lat="41.6042343" lon="2.065424"><ele>358.0</ele><time>2026-04-03T18:33:16.343Z</time></trkpt><trkpt lat="41.6041608" lon="2.0654907"><ele>358.0</ele><time>2026-04-03T18:33:17.359Z</time></trkpt><trkpt lat="41.6040979" lon="2.0655911"><ele>358.0</ele><time>2026-04-03T18:33:18.338Z</time></trkpt><trkpt lat="41.6040573" lon="2.065728"><ele>358.0</ele><time>2026-04-03T18:33:19.39Z</time></trkpt><trkpt lat="41.6040248" lon="2.0658445"><ele>358.0</ele><time>2026-04-03T18:33:20.362Z</time></trkpt><trkpt lat="41.6039989" lon="2.0659835"><ele>355.2</ele><time>2026-04-03T18:33:21.353Z</time></trkpt><trkpt lat="41.6039698" lon="2.0661159"><ele>352.4</ele><time>2026-04-03T18:33:22.327Z</time></trkpt><trkpt lat="41.6039365" lon="2.0662565"><ele>349.59999999999997</ele><time>2026-04-03T18:33:23.343Z</time></trkpt><trkpt lat="41.6038963" lon="2.0663957"><ele>346.79999999999995</ele><time>2026-04-03T18:33:24.361Z</time></trkpt><trkpt lat="41.603833" lon="2.0665188"><ele>344.0</ele><time>2026-04-03T18:33:25.375Z</time></trkpt><trkpt lat="41.6037518" lon="2.0666099"><ele>344.75</ele><time>2026-04-03T18:33:26.367Z</time></trkpt><trkpt lat="41.603655" lon="2.0666889"><ele>345.5</ele><time>2026-04-03T18:33:27.351Z</time></trkpt><trkpt lat="41.6035543" lon="2.066755"><ele>346.25</ele><time>2026-04-03T18:33:28.326Z</time></trkpt><trkpt lat="41.60344" lon="2.0668166"><ele>347.0</ele><time>2026-04-03T18:33:29.46Z</time></trkpt><trkpt lat="41.6032417" lon="2.0668497"><ele>347.0</ele><time>2026-04-03T18:33:31.322Z</time></trkpt><trkpt lat="41.6031679" lon="2.0667978"><ele>347.0</ele><time>2026-04-03T18:33:32.327Z</time></trkpt><trkpt lat="41.6031101" lon="2.0666879"><ele>347.0</ele><time>2026-04-03T18:33:33.34Z</time></trkpt><trkpt lat="41.6030614" lon="2.0665367"><ele>347.0</ele><time>2026-04-03T18:33:34.341Z</time></trkpt><trkpt lat="41.6030203" lon="2.0663715"><ele>347.0</ele><time>2026-04-03T18:33:35.325Z</time></trkpt><trkpt lat="41.6029785" lon="2.0661854"><ele>350.5</ele><time>2026-04-03T18:33:36.341Z</time></trkpt><trkpt lat="41.602931" lon="2.0659706"><ele>354.0</ele><time>2026-04-03T18:33:37.453Z</time></trkpt><trkpt lat="41.6028426" lon="2.0656048"><ele>351.3333333333333</ele><time>2026-04-03T18:33:39.369Z</time></trkpt><trkpt lat="41.602795" lon="2.065398"><ele>348.66666666666663</ele><time>2026-04-03T18:33:40.355Z</time></trkpt><trkpt lat="41.6027495" lon="2.0651906"><ele>346.0</ele><time>2026-04-03T18:33:41.37Z</time></trkpt><trkpt lat="41.602705" lon="2.0649663"><ele>347.0</ele><time>2026-04-03T18:33:42.459Z</time></trkpt><trkpt lat="41.6026453" lon="2.0646023"><ele>348.0</ele><time>2026-04-03T18:33:44.339Z</time></trkpt><trkpt lat="41.6026139" lon="2.0644131"><ele>349.0</ele><time>2026-04-03T18:33:45.336Z</time></trkpt><trkpt lat="41.6025852" lon="2.0642168"><ele>349.0</ele><time>2026-04-03T18:33:46.342Z</time></trkpt><trkpt lat="41.6025733" lon="2.0640105"><ele>349.0</ele><time>2026-04-03T18:33:47.36Z</time></trkpt><trkpt lat="41.6025707" lon="2.0638178"><ele>349.0</ele><time>2026-04-03T18:33:48.367Z</time></trkpt><trkpt lat="41.6025774" lon="2.0636393"><ele>349.0</ele><time>2026-04-03T18:33:49.346Z</time></trkpt><trkpt lat="41.6025822" lon="2.0634628"><ele>349.0</ele><time>2026-04-03T18:33:50.335Z</time></trkpt><trkpt lat="41.6025746" lon="2.0632875"><ele>349.0</ele><time>2026-04-03T18:33:51.344Z</time></trkpt><trkpt lat="41.6025513" lon="2.0631065"><ele>349.0</ele><time>2026-04-03T18:33:52.337Z</time></trkpt><trkpt lat="41.6025061" lon="2.0629211"><ele>349.0</ele><time>2026-04-03T18:33:53.359Z</time></trkpt><trkpt lat="41.6024705" lon="2.0627491"><ele>348.75</ele><time>2026-04-03T18:33:54.35Z</time></trkpt><trkpt lat="41.6024473" lon="2.0625821"><ele>348.5</ele><time>2026-04-03T18:33:55.341Z</time></trkpt><trkpt lat="41.6024512" lon="2.0623998"><ele>348.25</ele><time>2026-04-03T18:33:56.354Z</time></trkpt><trkpt lat="41.6024728" lon="2.0622128"><ele>348.0</ele><time>2026-04-03T18:33:57.336Z</time></trkpt><trkpt lat="41.6025028" lon="2.062018"><ele>348.5</ele><time>2026-04-03T18:33:58.35Z</time></trkpt><trkpt lat="41.6025244" lon="2.0618311"><ele>349.0</ele><time>2026-04-03T18:33:59.345Z</time></trkpt><trkpt lat="41.6025614" lon="2.0616385"><ele>349.5</ele><time>2026-04-03T18:34:00.336Z</time></trkpt><trkpt lat="41.6025966" lon="2.0614541"><ele>350.0</ele><time>2026-04-03T18:34:01.324Z</time></trkpt><trkpt lat="41.6026385" lon="2.061276"><ele>350.25</ele><time>2026-04-03T18:34:02.325Z</time></trkpt><trkpt lat="41.6026691" lon="2.061107"><ele>350.5</ele><time>2026-04-03T18:34:03.335Z</time></trkpt><trkpt lat="41.6026898" lon="2.0609544"><ele>350.75</ele><time>2026-04-03T18:34:04.325Z</time></trkpt><trkpt lat="41.6026834" lon="2.0607976"><ele>351.0</ele><time>2026-04-03T18:34:05.341Z</time></trkpt><trkpt lat="41.6026204" lon="2.0607058"><ele>352.6</ele><time>2026-04-03T18:34:06.34Z</time></trkpt><trkpt lat="41.6025344" lon="2.0605994"><ele>354.20000000000005</ele><time>2026-04-03T18:34:07.331Z</time></trkpt><trkpt lat="41.6024297" lon="2.0605213"><ele>355.79999999999995</ele><time>2026-04-03T18:34:08.373Z</time></trkpt><trkpt lat="41.6023373" lon="2.0604565"><ele>357.4</ele><time>2026-04-03T18:34:09.329Z</time></trkpt><trkpt lat="41.6022409" lon="2.0604092"><ele>359.0</ele><time>2026-04-03T18:34:10.344Z</time></trkpt><trkpt lat="41.6021343" lon="2.0603981"><ele>359.0</ele><time>2026-04-03T18:34:11.356Z</time></trkpt><trkpt lat="41.602032" lon="2.0604336"><ele>359.0</ele><time>2026-04-03T18:34:12.338Z</time></trkpt><trkpt lat="41.6019423" lon="2.0604993"><ele>359.0</ele><time>2026-04-03T18:34:13.338Z</time></trkpt><trkpt lat="41.6018623" lon="2.0606004"><ele>359.0</ele><time>2026-04-03T18:34:14.393Z</time></trkpt><trkpt lat="41.6017842" lon="2.0607101"><ele>359.0</ele><time>2026-04-03T18:34:15.342Z</time></trkpt><trkpt lat="41.6017105" lon="2.0608137"><ele>357.6666666666667</ele><time>2026-04-03T18:34:16.36Z</time></trkpt><trkpt lat="41.6016316" lon="2.060912"><ele>356.3333333333333</ele><time>2026-04-03T18:34:17.338Z</time></trkpt><trkpt lat="41.6015305" lon="2.061032"><ele>355.0</ele><time>2026-04-03T18:34:18.447Z</time></trkpt><trkpt lat="41.6013538" lon="2.0612388"><ele>355.0</ele><time>2026-04-03T18:34:20.361Z</time></trkpt><trkpt lat="41.6012611" lon="2.0613451"><ele>355.0</ele><time>2026-04-03T18:34:21.353Z</time></trkpt><trkpt lat="41.6011748" lon="2.0614503"><ele>355.0</ele><time>2026-04-03T18:34:22.349Z</time></trkpt><trkpt lat="41.6010895" lon="2.0615541"><ele>355.0</ele><time>2026-04-03T18:34:23.335Z</time></trkpt><trkpt lat="41.6010078" lon="2.0616431"><ele>354.8</ele><time>2026-04-03T18:34:24.345Z</time></trkpt><trkpt lat="41.6009232" lon="2.0616955"><ele>354.6</ele><time>2026-04-03T18:34:25.347Z</time></trkpt><trkpt lat="41.6008342" lon="2.0617053"><ele>354.4</ele><time>2026-04-03T18:34:26.364Z</time></trkpt><trkpt lat="41.600755" lon="2.0616725"><ele>354.2</ele><time>2026-04-03T18:34:27.337Z</time></trkpt><trkpt lat="41.6006866" lon="2.0615955"><ele>354.0</ele><time>2026-04-03T18:34:28.345Z</time></trkpt><trkpt lat="41.6006362" lon="2.0614881"><ele>355.6</ele><time>2026-04-03T18:34:29.346Z</time></trkpt><trkpt lat="41.6005991" lon="2.0613669"><ele>357.2</ele><time>2026-04-03T18:34:30.35Z</time></trkpt><trkpt lat="41.6005684" lon="2.0612327"><ele>358.8</ele><time>2026-04-03T18:34:31.335Z</time></trkpt><trkpt lat="41.6005412" lon="2.0610845"><ele>360.40000000000003</ele><time>2026-04-03T18:34:32.364Z</time></trkpt><trkpt lat="41.6005137" lon="2.0609415"><ele>362.0</ele><time>2026-04-03T18:34:33.337Z</time></trkpt><trkpt lat="41.6004892" lon="2.0607948"><ele>363.6</ele><time>2026-04-03T18:34:34.327Z</time></trkpt><trkpt lat="41.6004729" lon="2.060641"><ele>365.20000000000005</ele><time>2026-04-03T18:34:35.333Z</time></trkpt><trkpt lat="41.600462" lon="2.0604947"><ele>366.8</ele><time>2026-04-03T18:34:36.325Z</time></trkpt><trkpt lat="41.6004525" lon="2.0603462"><ele>368.4</ele><time>2026-04-03T18:34:37.354Z</time></trkpt><trkpt lat="41.6004305" lon="2.0601998"><ele>370.0</ele><time>2026-04-03T18:34:38.335Z</time></trkpt><trkpt lat="41.6003923" lon="2.060054"><ele>369.0</ele><time>2026-04-03T18:34:39.33Z</time></trkpt><trkpt lat="41.6003241" lon="2.0599145"><ele>368.0</ele><time>2026-04-03T18:34:40.342Z</time></trkpt><trkpt lat="41.6002422" lon="2.0598002"><ele>367.0</ele><time>2026-04-03T18:34:41.341Z</time></trkpt><trkpt lat="41.6001539" lon="2.0596989"><ele>366.0</ele><time>2026-04-03T18:34:42.355Z</time></trkpt><trkpt lat="41.6000655" lon="2.0596036"><ele>366.0</ele><time>2026-04-03T18:34:43.342Z</time></trkpt><trkpt lat="41.5999731" lon="2.0595052"><ele>366.0</ele><time>2026-04-03T18:34:44.373Z</time></trkpt><trkpt lat="41.5998811" lon="2.0594018"><ele>366.0</ele><time>2026-04-03T18:34:45.454Z</time></trkpt><trkpt lat="41.5997227" lon="2.0591833"><ele>367.75</ele><time>2026-04-03T18:34:47.356Z</time></trkpt><trkpt lat="41.5996507" lon="2.059043"><ele>369.5</ele><time>2026-04-03T18:34:48.348Z</time></trkpt><trkpt lat="41.5996056" lon="2.0588763"><ele>371.25</ele><time>2026-04-03T18:34:49.436Z</time></trkpt><trkpt lat="41.5995851" lon="2.0587046"><ele>373.0</ele><time>2026-04-03T18:34:50.353Z</time></trkpt><trkpt lat="41.5995746" lon="2.0584892"><ele>373.0</ele><time>2026-04-03T18:34:51.384Z</time></trkpt><trkpt lat="41.5995913" lon="2.0582929"><ele>373.0</ele><time>2026-04-03T18:34:52.39Z</time></trkpt><trkpt lat="41.5996336" lon="2.058111"><ele>373.0</ele><time>2026-04-03T18:34:53.363Z</time></trkpt><trkpt lat="41.5996901" lon="2.0579363"><ele>373.0</ele><time>2026-04-03T18:34:54.359Z</time></trkpt><trkpt lat="41.5997509" lon="2.0577833"><ele>372.59999999999997</ele><time>2026-04-03T18:34:55.334Z</time></trkpt><trkpt lat="41.5998188" lon="2.0576487"><ele>372.2</ele><time>2026-04-03T18:34:56.368Z</time></trkpt><trkpt lat="41.5998684" lon="2.0575234"><ele>371.8</ele><time>2026-04-03T18:34:57.376Z</time></trkpt><trkpt lat="41.5998906" lon="2.0574022"><ele>371.4</ele><time>2026-04-03T18:34:58.343Z</time></trkpt><trkpt lat="41.5998773" lon="2.0572848"><ele>371.0</ele><time>2026-04-03T18:34:59.314Z</time></trkpt><trkpt lat="41.5998191" lon="2.0571649"><ele>371.0</ele><time>2026-04-03T18:35:00.347Z</time></trkpt><trkpt lat="41.5997317" lon="2.0570626"><ele>371.0</ele><time>2026-04-03T18:35:01.346Z</time></trkpt><trkpt lat="41.5996342" lon="2.0569689"><ele>371.0</ele><time>2026-04-03T18:35:02.455Z</time></trkpt><trkpt lat="41.5995384" lon="2.0568677"><ele>371.0</ele><time>2026-04-03T18:35:03.368Z</time></trkpt><trkpt lat="41.5994314" lon="2.056757"><ele>368.8</ele><time>2026-04-03T18:35:04.355Z</time></trkpt><trkpt lat="41.5993248" lon="2.0566549"><ele>366.6</ele><time>2026-04-03T18:35:05.346Z</time></trkpt><trkpt lat="41.5992339" lon="2.0565689"><ele>364.4</ele><time>2026-04-03T18:35:06.335Z</time></trkpt><trkpt lat="41.5991681" lon="2.0564731"><ele>362.2</ele><time>2026-04-03T18:35:07.341Z</time></trkpt><trkpt lat="41.5991197" lon="2.0563657"><ele>360.0</ele><time>2026-04-03T18:35:08.359Z</time></trkpt><trkpt lat="41.5990838" lon="2.0562404"><ele>360.0</ele><time>2026-04-03T18:35:09.355Z</time></trkpt><trkpt lat="41.5990719" lon="2.0560944"><ele>360.0</ele><time>2026-04-03T18:35:10.357Z</time></trkpt><trkpt lat="41.59908" lon="2.055865"><ele>360.0</ele><time>2026-04-03T18:35:11.343Z</time></trkpt><trkpt lat="41.5991139" lon="2.0556896"><ele>360.0</ele><time>2026-04-03T18:35:12.353Z</time></trkpt><trkpt lat="41.5991599" lon="2.0555155"><ele>359.0</ele><time>2026-04-03T18:35:13.368Z</time></trkpt><trkpt lat="41.5992036" lon="2.0553497"><ele>358.0</ele><time>2026-04-03T18:35:14.321Z</time></trkpt><trkpt lat="41.5992479" lon="2.0551776"><ele>357.0</ele><time>2026-04-03T18:35:15.345Z</time></trkpt><trkpt lat="41.5992995" lon="2.055025"><ele>356.0</ele><time>2026-04-03T18:35:16.328Z</time></trkpt><trkpt lat="41.5993764" lon="2.0549011"><ele>354.0</ele><time>2026-04-03T18:35:17.335Z</time></trkpt><trkpt lat="41.5994702" lon="2.0547996"><ele>352.0</ele><time>2026-04-03T18:35:18.341Z</time></trkpt><trkpt lat="41.5995665" lon="2.0547055"><ele>350.0</ele><time>2026-04-03T18:35:19.345Z</time></trkpt><trkpt lat="41.5996563" lon="2.0546053"><ele>348.0</ele><time>2026-04-03T18:35:20.353Z</time></trkpt><trkpt lat="41.5997282" lon="2.0545021"><ele>351.59999999999997</ele><time>2026-04-03T18:35:21.312Z</time></trkpt><trkpt lat="41.5997997" lon="2.0543953"><ele>355.2</ele><time>2026-04-03T18:35:22.361Z</time></trkpt><trkpt lat="41.5998757" lon="2.0543249"><ele>358.8</ele><time>2026-04-03T18:35:23.362Z</time></trkpt><trkpt lat="41.5999522" lon="2.0542798"><ele>362.4</ele><time>2026-04-03T18:35:24.347Z</time></trkpt><trkpt lat="41.6000736" lon="2.0542411"><ele>366.0</ele><time>2026-04-03T18:35:26.34Z</time></trkpt><trkpt lat="41.6002141" lon="2.0541528"><ele>365.0</ele><time>2026-04-03T18:35:28.335Z</time></trkpt><trkpt lat="41.6002844" lon="2.0540532"><ele>364.0</ele><time>2026-04-03T18:35:29.33Z</time></trkpt><trkpt lat="41.6003263" lon="2.053919"><ele>363.0</ele><time>2026-04-03T18:35:30.344Z</time></trkpt><trkpt lat="41.6003299" lon="2.0537554"><ele>362.0</ele><time>2026-04-03T18:35:31.339Z</time></trkpt><trkpt lat="41.6003064" lon="2.053592"><ele>362.0</ele><time>2026-04-03T18:35:32.328Z</time></trkpt><trkpt lat="41.6002471" lon="2.0534435"><ele>362.0</ele><time>2026-04-03T18:35:33.375Z</time></trkpt><trkpt lat="41.6001811" lon="2.0533544"><ele>362.0</ele><time>2026-04-03T18:35:34.322Z</time></trkpt><trkpt lat="41.6001014" lon="2.0532529"><ele>362.0</ele><time>2026-04-03T18:35:35.379Z</time></trkpt><trkpt lat="41.6000395" lon="2.0531512"><ele>362.0</ele><time>2026-04-03T18:35:36.368Z</time></trkpt><trkpt lat="41.6000013" lon="2.0530444"><ele>362.25</ele><time>2026-04-03T18:35:37.348Z</time></trkpt><trkpt lat="41.5999861" lon="2.05292"><ele>362.5</ele><time>2026-04-03T18:35:38.35Z</time></trkpt><trkpt lat="41.5999947" lon="2.0527879"><ele>362.75</ele><time>2026-04-03T18:35:39.35Z</time></trkpt><trkpt lat="41.6000317" lon="2.0526383"><ele>363.0</ele><time>2026-04-03T18:35:40.507Z</time></trkpt><trkpt lat="41.6001062" lon="2.052405"><ele>362.4</ele><time>2026-04-03T18:35:42.339Z</time></trkpt><trkpt lat="41.6001259" lon="2.0522644"><ele>361.79999999999995</ele><time>2026-04-03T18:35:43.349Z</time></trkpt><trkpt lat="41.6001412" lon="2.0521316"><ele>361.2</ele><time>2026-04-03T18:35:44.353Z</time></trkpt><trkpt lat="41.6001756" lon="2.0520135"><ele>360.6</ele><time>2026-04-03T18:35:45.353Z</time></trkpt><trkpt lat="41.600232" lon="2.051895"><ele>360.0</ele><time>2026-04-03T18:35:46.415Z</time></trkpt><trkpt lat="41.6002894" lon="2.051807"><ele>359.0</ele><time>2026-04-03T18:35:47.35Z</time></trkpt><trkpt lat="41.6003453" lon="2.0517113"><ele>358.0</ele><time>2026-04-03T18:35:48.374Z</time></trkpt><trkpt lat="41.6003887" lon="2.0516042"><ele>357.0</ele><time>2026-04-03T18:35:49.357Z</time></trkpt><trkpt lat="41.6003982" lon="2.0514763"><ele>356.0</ele><time>2026-04-03T18:35:50.346Z</time></trkpt><trkpt lat="41.6003746" lon="2.0513539"><ele>355.0</ele><time>2026-04-03T18:35:51.344Z</time></trkpt><trkpt lat="41.6003185" lon="2.051231"><ele>355.0</ele><time>2026-04-03T18:35:52.378Z</time></trkpt><trkpt lat="41.6002665" lon="2.0511308"><ele>355.0</ele><time>2026-04-03T18:35:53.34Z</time></trkpt><trkpt lat="41.6002177" lon="2.0510436"><ele>355.0</ele><time>2026-04-03T18:35:54.366Z</time></trkpt><trkpt lat="41.6001868" lon="2.0509595"><ele>355.0</ele><time>2026-04-03T18:35:55.346Z</time></trkpt><trkpt lat="41.6001802" lon="2.0508569"><ele>355.0</ele><time>2026-04-03T18:35:56.305Z</time></trkpt><trkpt lat="41.6001941" lon="2.0507699"><ele>355.0</ele><time>2026-04-03T18:35:57.299Z</time></trkpt><trkpt lat="41.6002292" lon="2.0506922"><ele>354.75</ele><time>2026-04-03T18:35:58.323Z</time></trkpt><trkpt lat="41.6003154" lon="2.0505578"><ele>354.5</ele><time>2026-04-03T18:35:59.333Z</time></trkpt><trkpt lat="41.6004095" lon="2.0504956"><ele>354.25</ele><time>2026-04-03T18:36:00.357Z</time></trkpt><trkpt lat="41.6005084" lon="2.0504528"><ele>354.0</ele><time>2026-04-03T18:36:01.331Z</time></trkpt><trkpt lat="41.6006133" lon="2.0503952"><ele>355.0</ele><time>2026-04-03T18:36:02.338Z</time></trkpt><trkpt lat="41.600708" lon="2.0502952"><ele>356.0</ele><time>2026-04-03T18:36:03.348Z</time></trkpt><trkpt lat="41.6007745" lon="2.0501599"><ele>357.0</ele><time>2026-04-03T18:36:04.301Z</time></trkpt><trkpt lat="41.6007882" lon="2.0500155"><ele>358.0</ele><time>2026-04-03T18:36:05.358Z</time></trkpt><trkpt lat="41.6007579" lon="2.0498552"><ele>358.0</ele><time>2026-04-03T18:36:06.358Z</time></trkpt><trkpt lat="41.6006877" lon="2.0497074"><ele>358.0</ele><time>2026-04-03T18:36:07.363Z</time></trkpt><trkpt lat="41.6006109" lon="2.0496037"><ele>358.0</ele><time>2026-04-03T18:36:08.334Z</time></trkpt><trkpt lat="41.6005334" lon="2.0494962"><ele>358.0</ele><time>2026-04-03T18:36:09.353Z</time></trkpt><trkpt lat="41.6004614" lon="2.0494004"><ele>358.0</ele><time>2026-04-03T18:36:10.339Z</time></trkpt><trkpt lat="41.6004056" lon="2.0493195"><ele>358.0</ele><time>2026-04-03T18:36:11.345Z</time></trkpt><trkpt lat="41.6003518" lon="2.0492562"><ele>358.0</ele><time>2026-04-03T18:36:12.358Z</time></trkpt><trkpt lat="41.6002815" lon="2.0492169"><ele>358.0</ele><time>2026-04-03T18:36:13.354Z</time></trkpt><trkpt lat="41.6001932" lon="2.0492084"><ele>358.0</ele><time>2026-04-03T18:36:14.387Z</time></trkpt><trkpt lat="41.6001033" lon="2.0492365"><ele>358.0</ele><time>2026-04-03T18:36:15.363Z</time></trkpt><trkpt lat="41.600014" lon="2.0492865"><ele>359.79999999999995</ele><time>2026-04-03T18:36:16.365Z</time></trkpt><trkpt lat="41.599921" lon="2.0493483"><ele>361.6</ele><time>2026-04-03T18:36:17.358Z</time></trkpt><trkpt lat="41.5998286" lon="2.0494079"><ele>363.4</ele><time>2026-04-03T18:36:18.35Z</time></trkpt><trkpt lat="41.5997274" lon="2.0494681"><ele>365.20000000000005</ele><time>2026-04-03T18:36:19.346Z</time></trkpt><trkpt lat="41.5996246" lon="2.0495296"><ele>367.0</ele><time>2026-04-03T18:36:20.343Z</time></trkpt><trkpt lat="41.5995139" lon="2.049596"><ele>370.75</ele><time>2026-04-03T18:36:21.35Z</time></trkpt><trkpt lat="41.5993995" lon="2.0496691"><ele>374.5</ele><time>2026-04-03T18:36:22.331Z</time></trkpt><trkpt lat="41.5992852" lon="2.0497465"><ele>378.25</ele><time>2026-04-03T18:36:23.339Z</time></trkpt><trkpt lat="41.5991791" lon="2.0498382"><ele>382.0</ele><time>2026-04-03T18:36:24.341Z</time></trkpt><trkpt lat="41.599075" lon="2.0499468"><ele>381.66666666666663</ele><time>2026-04-03T18:36:25.353Z</time></trkpt><trkpt lat="41.5989706" lon="2.0500639"><ele>381.3333333333333</ele><time>2026-04-03T18:36:26.355Z</time></trkpt><trkpt lat="41.5988546" lon="2.0501991"><ele>381.0</ele><time>2026-04-03T18:36:27.493Z</time></trkpt><trkpt lat="41.5986673" lon="2.0503948"><ele>381.0</ele><time>2026-04-03T18:36:29.35Z</time></trkpt><trkpt lat="41.5985757" lon="2.050486"><ele>381.0</ele><time>2026-04-03T18:36:30.355Z</time></trkpt><trkpt lat="41.5984837" lon="2.0505639"><ele>381.0</ele><time>2026-04-03T18:36:31.348Z</time></trkpt><trkpt lat="41.598391" lon="2.050617"><ele>381.0</ele><time>2026-04-03T18:36:32.353Z</time></trkpt><trkpt lat="41.5982968" lon="2.0506313"><ele>381.0</ele><time>2026-04-03T18:36:33.354Z</time></trkpt><trkpt lat="41.5982024" lon="2.0505928"><ele>381.0</ele><time>2026-04-03T18:36:34.345Z</time></trkpt><trkpt lat="41.5981137" lon="2.0505081"><ele>381.0</ele><time>2026-04-03T18:36:35.372Z</time></trkpt><trkpt lat="41.5980427" lon="2.0504107"><ele>381.0</ele><time>2026-04-03T18:36:36.368Z</time></trkpt><trkpt lat="41.5979799" lon="2.0502958"><ele>381.0</ele><time>2026-04-03T18:36:37.369Z</time></trkpt><trkpt lat="41.5979333" lon="2.0501646"><ele>381.0</ele><time>2026-04-03T18:36:38.347Z</time></trkpt><trkpt lat="41.5978988" lon="2.0499969"><ele>382.75</ele><time>2026-04-03T18:36:39.408Z</time></trkpt><trkpt lat="41.5978903" lon="2.0498321"><ele>384.5</ele><time>2026-04-03T18:36:40.424Z</time></trkpt><trkpt lat="41.5978886" lon="2.0496687"><ele>386.25</ele><time>2026-04-03T18:36:41.356Z</time></trkpt><trkpt lat="41.597884" lon="2.0494864"><ele>388.0</ele><time>2026-04-03T18:36:42.358Z</time></trkpt><trkpt lat="41.5978846" lon="2.0492938"><ele>389.0</ele><time>2026-04-03T18:36:43.452Z</time></trkpt><trkpt lat="41.5978824" lon="2.048928"><ele>390.0</ele><time>2026-04-03T18:36:45.353Z</time></trkpt><trkpt lat="41.5978779" lon="2.0487464"><ele>391.0</ele><time>2026-04-03T18:36:46.338Z</time></trkpt><trkpt lat="41.5978733" lon="2.0485521"><ele>391.0</ele><time>2026-04-03T18:36:47.363Z</time></trkpt><trkpt lat="41.5978679" lon="2.0483655"><ele>391.0</ele><time>2026-04-03T18:36:48.358Z</time></trkpt><trkpt lat="41.597866" lon="2.0481791"><ele>391.0</ele><time>2026-04-03T18:36:49.347Z</time></trkpt><trkpt lat="41.5978723" lon="2.0479743"><ele>391.0</ele><time>2026-04-03T18:36:50.38Z</time></trkpt><trkpt lat="41.597879" lon="2.0477759"><ele>391.75</ele><time>2026-04-03T18:36:51.344Z</time></trkpt><trkpt lat="41.5978862" lon="2.0475542"><ele>392.5</ele><time>2026-04-03T18:36:52.401Z</time></trkpt><trkpt lat="41.5978957" lon="2.0473576"><ele>393.25</ele><time>2026-04-03T18:36:53.362Z</time></trkpt><trkpt lat="41.5979016" lon="2.047178"><ele>394.0</ele><time>2026-04-03T18:36:54.341Z</time></trkpt><trkpt lat="41.5979197" lon="2.0470423"><ele>392.79999999999995</ele><time>2026-04-03T18:36:55.353Z</time></trkpt><trkpt lat="41.597968" lon="2.0469128"><ele>391.59999999999997</ele><time>2026-04-03T18:36:56.355Z</time></trkpt><trkpt lat="41.5980562" lon="2.0467991"><ele>390.4</ele><time>2026-04-03T18:36:57.36Z</time></trkpt><trkpt lat="41.5981551" lon="2.0467307"><ele>389.2</ele><time>2026-04-03T18:36:58.383Z</time></trkpt><trkpt lat="41.5982402" lon="2.0466724"><ele>388.0</ele><time>2026-04-03T18:36:59.336Z</time></trkpt><trkpt lat="41.5983239" lon="2.0465963"><ele>388.0</ele><time>2026-04-03T18:37:00.346Z</time></trkpt><trkpt lat="41.5983694" lon="2.0464944"><ele>388.0</ele><time>2026-04-03T18:37:01.372Z</time></trkpt><trkpt lat="41.5983457" lon="2.0463008"><ele>388.0</ele><time>2026-04-03T18:37:03.359Z</time></trkpt><trkpt lat="41.5983235" lon="2.046178"><ele>388.0</ele><time>2026-04-03T18:37:04.347Z</time></trkpt><trkpt lat="41.5983051" lon="2.0460464"><ele>388.0</ele><time>2026-04-03T18:37:05.326Z</time></trkpt><trkpt lat="41.5982796" lon="2.0459204"><ele>388.79999999999995</ele><time>2026-04-03T18:37:06.335Z</time></trkpt><trkpt lat="41.5982346" lon="2.0457911"><ele>389.6</ele><time>2026-04-03T18:37:07.367Z</time></trkpt><trkpt lat="41.5981711" lon="2.0456889"><ele>390.4</ele><time>2026-04-03T18:37:08.382Z</time></trkpt><trkpt lat="41.5980855" lon="2.0456074"><ele>391.20000000000005</ele><time>2026-04-03T18:37:09.38Z</time></trkpt><trkpt lat="41.5979899" lon="2.0455343"><ele>392.0</ele><time>2026-04-03T18:37:10.36Z</time></trkpt><trkpt lat="41.5978954" lon="2.0454609"><ele>390.75</ele><time>2026-04-03T18:37:11.346Z</time></trkpt><trkpt lat="41.5977959" lon="2.0453798"><ele>389.5</ele><time>2026-04-03T18:37:12.354Z</time></trkpt><trkpt lat="41.5976968" lon="2.0452819"><ele>388.25</ele><time>2026-04-03T18:37:13.34Z</time></trkpt><trkpt lat="41.5976032" lon="2.0451668"><ele>387.0</ele><time>2026-04-03T18:37:14.359Z</time></trkpt><trkpt lat="41.5975075" lon="2.0450206"><ele>388.5</ele><time>2026-04-03T18:37:15.373Z</time></trkpt><trkpt lat="41.5974302" lon="2.0448744"><ele>390.0</ele><time>2026-04-03T18:37:16.35Z</time></trkpt><trkpt lat="41.5973454" lon="2.0447092"><ele>391.5</ele><time>2026-04-03T18:37:17.345Z</time></trkpt><trkpt lat="41.5972603" lon="2.0445388"><ele>393.0</ele><time>2026-04-03T18:37:18.382Z</time></trkpt><trkpt lat="41.597178" lon="2.0443836"><ele>393.0</ele><time>2026-04-03T18:37:19.366Z</time></trkpt><trkpt lat="41.5971006" lon="2.044243"><ele>393.0</ele><time>2026-04-03T18:37:20.361Z</time></trkpt><trkpt lat="41.5970211" lon="2.0440931"><ele>393.0</ele><time>2026-04-03T18:37:21.336Z</time></trkpt><trkpt lat="41.5969409" lon="2.0439351"><ele>393.0</ele><time>2026-04-03T18:37:22.347Z</time></trkpt><trkpt lat="41.5968679" lon="2.0438009"><ele>391.3333333333333</ele><time>2026-04-03T18:37:23.352Z</time></trkpt><trkpt lat="41.5968126" lon="2.0436798"><ele>389.6666666666667</ele><time>2026-04-03T18:37:24.35Z</time></trkpt><trkpt lat="41.5967726" lon="2.0435705"><ele>388.0</ele><time>2026-04-03T18:37:25.35Z</time></trkpt><trkpt lat="41.59676" lon="2.0434706"><ele>386.33333333333337</ele><time>2026-04-03T18:37:26.361Z</time></trkpt><trkpt lat="41.5967735" lon="2.0433632"><ele>384.6666666666667</ele><time>2026-04-03T18:37:27.37Z</time></trkpt><trkpt lat="41.5968062" lon="2.043275"><ele>383.0</ele><time>2026-04-03T18:37:28.373Z</time></trkpt><trkpt lat="41.5968628" lon="2.043185"><ele>383.0</ele><time>2026-04-03T18:37:29.376Z</time></trkpt><trkpt lat="41.5969298" lon="2.043085"><ele>383.0</ele><time>2026-04-03T18:37:30.384Z</time></trkpt><trkpt lat="41.5969933" lon="2.0429646"><ele>383.0</ele><time>2026-04-03T18:37:31.379Z</time></trkpt><trkpt lat="41.5970206" lon="2.0428392"><ele>383.0</ele><time>2026-04-03T18:37:32.345Z</time></trkpt><trkpt lat="41.597021" lon="2.0427171"><ele>383.0</ele><time>2026-04-03T18:37:33.355Z</time></trkpt><trkpt lat="41.5969891" lon="2.042581"><ele>384.0</ele><time>2026-04-03T18:37:34.36Z</time></trkpt><trkpt lat="41.5969381" lon="2.042453"><ele>385.0</ele><time>2026-04-03T18:37:35.354Z</time></trkpt><trkpt lat="41.5968704" lon="2.0423221"><ele>386.0</ele><time>2026-04-03T18:37:36.346Z</time></trkpt><trkpt lat="41.5968044" lon="2.0421892"><ele>387.0</ele><time>2026-04-03T18:37:37.34Z</time></trkpt><trkpt lat="41.5967405" lon="2.0420129"><ele>387.0</ele><time>2026-04-03T18:37:38.548Z</time></trkpt><trkpt lat="41.5966843" lon="2.0417258"><ele>387.0</ele><time>2026-04-03T18:37:40.385Z</time></trkpt><trkpt lat="41.5966798" lon="2.041564"><ele>387.0</ele><time>2026-04-03T18:37:41.371Z</time></trkpt><trkpt lat="41.5966872" lon="2.0413903"><ele>386.75</ele><time>2026-04-03T18:37:42.358Z</time></trkpt><trkpt lat="41.5967096" lon="2.0412122"><ele>386.5</ele><time>2026-04-03T18:37:43.347Z</time></trkpt><trkpt lat="41.5967431" lon="2.0410287"><ele>386.25</ele><time>2026-04-03T18:37:44.34Z</time></trkpt><trkpt lat="41.5967995" lon="2.0408569"><ele>386.0</ele><time>2026-04-03T18:37:45.366Z</time></trkpt><trkpt lat="41.596879" lon="2.0407092"><ele>387.25</ele><time>2026-04-03T18:37:46.349Z</time></trkpt><trkpt lat="41.5969683" lon="2.0405645"><ele>388.5</ele><time>2026-04-03T18:37:47.336Z</time></trkpt><trkpt lat="41.5970552" lon="2.0404223"><ele>389.75</ele><time>2026-04-03T18:37:48.352Z</time></trkpt><trkpt lat="41.597135" lon="2.0402843"><ele>391.0</ele><time>2026-04-03T18:37:49.331Z</time></trkpt><trkpt lat="41.5971959" lon="2.0401182"><ele>393.0</ele><time>2026-04-03T18:37:50.363Z</time></trkpt><trkpt lat="41.5971877" lon="2.0399331"><ele>395.0</ele><time>2026-04-03T18:37:51.362Z</time></trkpt><trkpt lat="41.5971185" lon="2.0397592"><ele>397.0</ele><time>2026-04-03T18:37:52.366Z</time></trkpt><trkpt lat="41.5970362" lon="2.0396848"><ele>399.0</ele><time>2026-04-03T18:37:53.337Z</time></trkpt><trkpt lat="41.5969322" lon="2.0395812"><ele>399.0</ele><time>2026-04-03T18:37:54.336Z</time></trkpt><trkpt lat="41.596825" lon="2.0395072"><ele>399.0</ele><time>2026-04-03T18:37:55.363Z</time></trkpt><trkpt lat="41.596708" lon="2.0394757"><ele>399.0</ele><time>2026-04-03T18:37:56.343Z</time></trkpt><trkpt lat="41.5966045" lon="2.039484"><ele>399.0</ele><time>2026-04-03T18:37:57.335Z</time></trkpt><trkpt lat="41.5964916" lon="2.0395036"><ele>399.0</ele><time>2026-04-03T18:37:58.355Z</time></trkpt><trkpt lat="41.5963938" lon="2.0395311"><ele>399.0</ele><time>2026-04-03T18:37:59.348Z</time></trkpt><trkpt lat="41.5962911" lon="2.0395362"><ele>399.0</ele><time>2026-04-03T18:38:00.369Z</time></trkpt><trkpt lat="41.5961975" lon="2.039528"><ele>399.0</ele><time>2026-04-03T18:38:01.36Z</time></trkpt><trkpt lat="41.5961047" lon="2.0395086"><ele>399.0</ele><time>2026-04-03T18:38:02.361Z</time></trkpt><trkpt lat="41.5960214" lon="2.0394831"><ele>398.2</ele><time>2026-04-03T18:38:03.387Z</time></trkpt><trkpt lat="41.5959425" lon="2.0394363"><ele>397.4</ele><time>2026-04-03T18:38:04.34Z</time></trkpt><trkpt lat="41.5958667" lon="2.0393729"><ele>396.6</ele><time>2026-04-03T18:38:05.374Z</time></trkpt><trkpt lat="41.5957884" lon="2.0392782"><ele>395.8</ele><time>2026-04-03T18:38:06.362Z</time></trkpt><trkpt lat="41.595702" lon="2.0391602"><ele>395.0</ele><time>2026-04-03T18:38:07.382Z</time></trkpt><trkpt lat="41.5956148" lon="2.0390379"><ele>395.0</ele><time>2026-04-03T18:38:08.369Z</time></trkpt><trkpt lat="41.5955283" lon="2.0389052"><ele>395.0</ele><time>2026-04-03T18:38:09.369Z</time></trkpt><trkpt lat="41.5954438" lon="2.038772"><ele>395.0</ele><time>2026-04-03T18:38:10.366Z</time></trkpt><trkpt lat="41.5953615" lon="2.0386347"><ele>395.0</ele><time>2026-04-03T18:38:11.382Z</time></trkpt><trkpt lat="41.5952774" lon="2.038498"><ele>393.25</ele><time>2026-04-03T18:38:12.376Z</time></trkpt><trkpt lat="41.5951893" lon="2.0383603"><ele>391.5</ele><time>2026-04-03T18:38:13.37Z</time></trkpt><trkpt lat="41.5950958" lon="2.038226"><ele>389.75</ele><time>2026-04-03T18:38:14.378Z</time></trkpt><trkpt lat="41.5949964" lon="2.0381089"><ele>388.0</ele><time>2026-04-03T18:38:15.381Z</time></trkpt><trkpt lat="41.5948919" lon="2.0380189"><ele>387.2</ele><time>2026-04-03T18:38:16.359Z</time></trkpt><trkpt lat="41.5947908" lon="2.0379533"><ele>386.4</ele><time>2026-04-03T18:38:17.366Z</time></trkpt><trkpt lat="41.5947056" lon="2.0379126"><ele>385.59999999999997</ele><time>2026-04-03T18:38:18.377Z</time></trkpt><trkpt lat="41.5946065" lon="2.0378614"><ele>384.79999999999995</ele><time>2026-04-03T18:38:20.362Z</time></trkpt><trkpt lat="41.5945214" lon="2.0377954"><ele>384.0</ele><time>2026-04-03T18:38:22.365Z</time></trkpt><trkpt lat="41.5943691" lon="2.0376893"><ele>383.0</ele><time>2026-04-03T18:38:25.363Z</time></trkpt><trkpt lat="41.5942996" lon="2.0377004"><ele>382.0</ele><time>2026-04-03T18:38:26.368Z</time></trkpt><trkpt lat="41.5942444" lon="2.037778"><ele>381.0</ele><time>2026-04-03T18:38:27.371Z</time></trkpt><trkpt lat="41.5942259" lon="2.0378852"><ele>380.0</ele><time>2026-04-03T18:38:28.334Z</time></trkpt><trkpt lat="41.5942272" lon="2.0380281"><ele>379.0</ele><time>2026-04-03T18:38:29.355Z</time></trkpt><trkpt lat="41.5942208" lon="2.038205"><ele>379.66666666666663</ele><time>2026-04-03T18:38:30.346Z</time></trkpt><trkpt lat="41.5941968" lon="2.0384337"><ele>380.3333333333333</ele><time>2026-04-03T18:38:31.353Z</time></trkpt><trkpt lat="41.5941581" lon="2.0386939"><ele>381.0</ele><time>2026-04-03T18:38:32.374Z</time></trkpt><trkpt lat="41.5941196" lon="2.0389678"><ele>382.0</ele><time>2026-04-03T18:38:33.363Z</time></trkpt><trkpt lat="41.5940989" lon="2.0392058"><ele>383.0</ele><time>2026-04-03T18:38:34.352Z</time></trkpt><trkpt lat="41.5940783" lon="2.0394377"><ele>384.0</ele><time>2026-04-03T18:38:35.34Z</time></trkpt><trkpt lat="41.5940373" lon="2.0396404"><ele>384.0</ele><time>2026-04-03T18:38:36.346Z</time></trkpt><trkpt lat="41.5939624" lon="2.0398362"><ele>384.0</ele><time>2026-04-03T18:38:37.349Z</time></trkpt><trkpt lat="41.593825" lon="2.0400728"><ele>384.0</ele><time>2026-04-03T18:38:38.377Z</time></trkpt><trkpt lat="41.5937016" lon="2.0402761"><ele>381.3333333333333</ele><time>2026-04-03T18:38:39.384Z</time></trkpt><trkpt lat="41.593587" lon="2.0404609"><ele>378.66666666666663</ele><time>2026-04-03T18:38:40.359Z</time></trkpt><trkpt lat="41.5934611" lon="2.0406217"><ele>376.0</ele><time>2026-04-03T18:38:41.363Z</time></trkpt><trkpt lat="41.593323" lon="2.0407888"><ele>377.0</ele><time>2026-04-03T18:38:42.354Z</time></trkpt><trkpt lat="41.5931739" lon="2.040967"><ele>378.0</ele><time>2026-04-03T18:38:43.371Z</time></trkpt><trkpt lat="41.5929851" lon="2.0411769"><ele>379.0</ele><time>2026-04-03T18:38:44.374Z</time></trkpt><trkpt lat="41.5928476" lon="2.0413268"><ele>378.66666666666663</ele><time>2026-04-03T18:38:45.346Z</time></trkpt><trkpt lat="41.5927131" lon="2.0414795"><ele>378.3333333333333</ele><time>2026-04-03T18:38:46.361Z</time></trkpt><trkpt lat="41.5925797" lon="2.0416405"><ele>378.0</ele><time>2026-04-03T18:38:47.339Z</time></trkpt><trkpt lat="41.5924406" lon="2.0418335"><ele>378.0</ele><time>2026-04-03T18:38:48.382Z</time></trkpt><trkpt lat="41.5923156" lon="2.0420196"><ele>378.0</ele><time>2026-04-03T18:38:49.36Z</time></trkpt><trkpt lat="41.5921891" lon="2.0422245"><ele>378.0</ele><time>2026-04-03T18:38:50.364Z</time></trkpt><trkpt lat="41.5920663" lon="2.0424293"><ele>378.3333333333333</ele><time>2026-04-03T18:38:51.387Z</time></trkpt><trkpt lat="41.591945" lon="2.0426298"><ele>378.66666666666663</ele><time>2026-04-03T18:38:52.381Z</time></trkpt><trkpt lat="41.5918314" lon="2.0428157"><ele>379.0</ele><time>2026-04-03T18:38:53.35Z</time></trkpt><trkpt lat="41.5917132" lon="2.0430084"><ele>379.0</ele><time>2026-04-03T18:38:54.367Z</time></trkpt><trkpt lat="41.5915988" lon="2.0431995"><ele>379.0</ele><time>2026-04-03T18:38:55.35Z</time></trkpt><trkpt lat="41.5914838" lon="2.0433871"><ele>379.0</ele><time>2026-04-03T18:38:56.361Z</time></trkpt><trkpt lat="41.5913701" lon="2.043572"><ele>378.0</ele><time>2026-04-03T18:38:57.366Z</time></trkpt><trkpt lat="41.5912578" lon="2.0437619"><ele>377.0</ele><time>2026-04-03T18:38:58.352Z</time></trkpt><trkpt lat="41.591137" lon="2.043957"><ele>376.0</ele><time>2026-04-03T18:38:59.373Z</time></trkpt><trkpt lat="41.5910144" lon="2.0441555"><ele>375.3333333333333</ele><time>2026-04-03T18:39:00.354Z</time></trkpt><trkpt lat="41.5908909" lon="2.0443541"><ele>374.6666666666667</ele><time>2026-04-03T18:39:01.362Z</time></trkpt><trkpt lat="41.5907706" lon="2.044549"><ele>374.0</ele><time>2026-04-03T18:39:02.358Z</time></trkpt><trkpt lat="41.5906462" lon="2.0447491"><ele>374.0</ele><time>2026-04-03T18:39:03.385Z</time></trkpt><trkpt lat="41.5905255" lon="2.0449341"><ele>374.0</ele><time>2026-04-03T18:39:04.353Z</time></trkpt><trkpt lat="41.5904023" lon="2.0451227"><ele>374.0</ele><time>2026-04-03T18:39:05.34Z</time></trkpt><trkpt lat="41.5902705" lon="2.045324"><ele>373.0</ele><time>2026-04-03T18:39:06.366Z</time></trkpt><trkpt lat="41.5901263" lon="2.0455327"><ele>372.0</ele><time>2026-04-03T18:39:07.412Z</time></trkpt><trkpt lat="41.5899942" lon="2.0457285"><ele>371.0</ele><time>2026-04-03T18:39:08.364Z</time></trkpt><trkpt lat="41.5898621" lon="2.0459278"><ele>369.6666666666667</ele><time>2026-04-03T18:39:09.36Z</time></trkpt><trkpt lat="41.589735" lon="2.0461157"><ele>368.3333333333333</ele><time>2026-04-03T18:39:10.362Z</time></trkpt><trkpt lat="41.5896143" lon="2.0462958"><ele>367.0</ele><time>2026-04-03T18:39:11.362Z</time></trkpt><trkpt lat="41.5895004" lon="2.0464651"><ele>365.66666666666663</ele><time>2026-04-03T18:39:12.353Z</time></trkpt><trkpt lat="41.5893877" lon="2.0466355"><ele>364.3333333333333</ele><time>2026-04-03T18:39:13.376Z</time></trkpt><trkpt lat="41.5892787" lon="2.0467992"><ele>363.0</ele><time>2026-04-03T18:39:14.361Z</time></trkpt><trkpt lat="41.5891662" lon="2.0469652"><ele>363.0</ele><time>2026-04-03T18:39:15.353Z</time></trkpt><trkpt lat="41.5890458" lon="2.0471365"><ele>363.0</ele><time>2026-04-03T18:39:16.382Z</time></trkpt><trkpt lat="41.5889366" lon="2.047296"><ele>363.0</ele><time>2026-04-03T18:39:17.356Z</time></trkpt><trkpt lat="41.5888267" lon="2.0474543"><ele>362.6666666666667</ele><time>2026-04-03T18:39:18.351Z</time></trkpt><trkpt lat="41.5887205" lon="2.0476085"><ele>362.33333333333337</ele><time>2026-04-03T18:39:19.348Z</time></trkpt><trkpt lat="41.5886139" lon="2.0477603"><ele>362.0</ele><time>2026-04-03T18:39:20.39Z</time></trkpt><trkpt lat="41.5885177" lon="2.0478998"><ele>361.5</ele><time>2026-04-03T18:39:21.361Z</time></trkpt><trkpt lat="41.5884216" lon="2.0480413"><ele>361.0</ele><time>2026-04-03T18:39:22.369Z</time></trkpt><trkpt lat="41.588334" lon="2.048179"><ele>360.5</ele><time>2026-04-03T18:39:23.356Z</time></trkpt><trkpt lat="41.5882442" lon="2.0483176"><ele>360.0</ele><time>2026-04-03T18:39:24.384Z</time></trkpt><trkpt lat="41.5881605" lon="2.048443"><ele>359.75</ele><time>2026-04-03T18:39:25.352Z</time></trkpt><trkpt lat="41.5880595" lon="2.0485888"><ele>359.5</ele><time>2026-04-03T18:39:26.489Z</time></trkpt><trkpt lat="41.5879799" lon="2.0487047"><ele>359.25</ele><time>2026-04-03T18:39:27.4Z</time></trkpt><trkpt lat="41.5878928" lon="2.0488279"><ele>359.0</ele><time>2026-04-03T18:39:28.362Z</time></trkpt><trkpt lat="41.5878022" lon="2.0489567"><ele>358.0</ele><time>2026-04-03T18:39:29.357Z</time></trkpt><trkpt lat="41.5876994" lon="2.0491025"><ele>357.0</ele><time>2026-04-03T18:39:30.475Z</time></trkpt><trkpt lat="41.5875302" lon="2.0493545"><ele>356.0</ele><time>2026-04-03T18:39:32.334Z</time></trkpt><trkpt lat="41.5874334" lon="2.0494964"><ele>356.0</ele><time>2026-04-03T18:39:33.363Z</time></trkpt><trkpt lat="41.5873376" lon="2.0496369"><ele>356.0</ele><time>2026-04-03T18:39:34.374Z</time></trkpt><trkpt lat="41.5872409" lon="2.0497802"><ele>356.0</ele><time>2026-04-03T18:39:35.367Z</time></trkpt><trkpt lat="41.587144" lon="2.0499312"><ele>356.0</ele><time>2026-04-03T18:39:36.379Z</time></trkpt><trkpt lat="41.5870528" lon="2.0500848"><ele>354.33333333333337</ele><time>2026-04-03T18:39:37.353Z</time></trkpt><trkpt lat="41.5869683" lon="2.0502576"><ele>352.6666666666667</ele><time>2026-04-03T18:39:38.366Z</time></trkpt><trkpt lat="41.5868935" lon="2.0504434"><ele>351.0</ele><time>2026-04-03T18:39:39.348Z</time></trkpt><trkpt lat="41.5868197" lon="2.0506582"><ele>350.6666666666667</ele><time>2026-04-03T18:39:40.415Z</time></trkpt><trkpt lat="41.5867565" lon="2.0508504"><ele>350.33333333333337</ele><time>2026-04-03T18:39:41.374Z</time></trkpt><trkpt lat="41.58669" lon="2.0510548"><ele>350.0</ele><time>2026-04-03T18:39:42.386Z</time></trkpt><trkpt lat="41.5866244" lon="2.0512468"><ele>350.0</ele><time>2026-04-03T18:39:43.35Z</time></trkpt><trkpt lat="41.5865589" lon="2.0514455"><ele>350.0</ele><time>2026-04-03T18:39:44.356Z</time></trkpt><trkpt lat="41.586492" lon="2.0516443"><ele>350.0</ele><time>2026-04-03T18:39:45.385Z</time></trkpt><trkpt lat="41.5864328" lon="2.0518315"><ele>349.6666666666667</ele><time>2026-04-03T18:39:46.348Z</time></trkpt><trkpt lat="41.58637" lon="2.0520218"><ele>349.3333333333333</ele><time>2026-04-03T18:39:47.382Z</time></trkpt><trkpt lat="41.5863029" lon="2.0522086"><ele>349.0</ele><time>2026-04-03T18:39:48.4Z</time></trkpt><trkpt lat="41.5862427" lon="2.0523813"><ele>349.0</ele><time>2026-04-03T18:39:49.362Z</time></trkpt><trkpt lat="41.5861801" lon="2.0525584"><ele>349.0</ele><time>2026-04-03T18:39:50.369Z</time></trkpt><trkpt lat="41.5861216" lon="2.0527316"><ele>349.0</ele><time>2026-04-03T18:39:51.353Z</time></trkpt><trkpt lat="41.5860614" lon="2.0529088"><ele>349.0</ele><time>2026-04-03T18:39:52.363Z</time></trkpt><trkpt lat="41.586003" lon="2.0530841"><ele>349.0</ele><time>2026-04-03T18:39:53.37Z</time></trkpt><trkpt lat="41.5859468" lon="2.0532535"><ele>349.0</ele><time>2026-04-03T18:39:54.361Z</time></trkpt><trkpt lat="41.5858908" lon="2.0534186"><ele>349.0</ele><time>2026-04-03T18:39:55.332Z</time></trkpt><trkpt lat="41.5858302" lon="2.0535983"><ele>349.0</ele><time>2026-04-03T18:39:56.407Z</time></trkpt><trkpt lat="41.5857758" lon="2.0537612"><ele>348.5</ele><time>2026-04-03T18:39:57.388Z</time></trkpt><trkpt lat="41.5857175" lon="2.0539408"><ele>348.0</ele><time>2026-04-03T18:39:58.454Z</time></trkpt><trkpt lat="41.5856649" lon="2.0541045"><ele>347.5</ele><time>2026-04-03T18:39:59.407Z</time></trkpt><trkpt lat="41.5856122" lon="2.0542755"><ele>347.0</ele><time>2026-04-03T18:40:00.411Z</time></trkpt><trkpt lat="41.5855589" lon="2.0544379"><ele>346.0</ele><time>2026-04-03T18:40:01.393Z</time></trkpt><trkpt lat="41.5855034" lon="2.0545988"><ele>345.0</ele><time>2026-04-03T18:40:02.393Z</time></trkpt><trkpt lat="41.5854471" lon="2.0547643"><ele>344.0</ele><time>2026-04-03T18:40:03.404Z</time></trkpt><trkpt lat="41.5853924" lon="2.0549289"><ele>343.0</ele><time>2026-04-03T18:40:04.394Z</time></trkpt><trkpt lat="41.5853185" lon="2.0551545"><ele>340.0</ele><time>2026-04-03T18:40:05.722Z</time></trkpt><trkpt lat="41.5852269" lon="2.0554603"><ele>337.0</ele><time>2026-04-03T18:40:07.407Z</time></trkpt><trkpt lat="41.585195" lon="2.0556549"><ele>334.0</ele><time>2026-04-03T18:40:08.388Z</time></trkpt><trkpt lat="41.5851752" lon="2.0558715"><ele>334.0</ele><time>2026-04-03T18:40:09.408Z</time></trkpt><trkpt lat="41.5851598" lon="2.0560931"><ele>334.0</ele><time>2026-04-03T18:40:10.454Z</time></trkpt><trkpt lat="41.5851512" lon="2.0562714"><ele>334.0</ele><time>2026-04-03T18:40:11.377Z</time></trkpt><trkpt lat="41.5851429" lon="2.0564656"><ele>334.0</ele><time>2026-04-03T18:40:12.41Z</time></trkpt><trkpt lat="41.5851364" lon="2.0566433"><ele>333.25</ele><time>2026-04-03T18:40:13.379Z</time></trkpt><trkpt lat="41.5851335" lon="2.0568347"><ele>332.5</ele><time>2026-04-03T18:40:14.406Z</time></trkpt><trkpt lat="41.5851286" lon="2.0570344"><ele>331.75</ele><time>2026-04-03T18:40:15.47Z</time></trkpt><trkpt lat="41.5851234" lon="2.0572077"><ele>331.0</ele><time>2026-04-03T18:40:16.381Z</time></trkpt><trkpt lat="41.5851151" lon="2.0574132"><ele>331.5</ele><time>2026-04-03T18:40:17.478Z</time></trkpt><trkpt lat="41.5851089" lon="2.0575855"><ele>332.0</ele><time>2026-04-03T18:40:18.395Z</time></trkpt><trkpt lat="41.5851005" lon="2.0577805"><ele>332.5</ele><time>2026-04-03T18:40:19.419Z</time></trkpt><trkpt lat="41.5850928" lon="2.0579634"><ele>333.0</ele><time>2026-04-03T18:40:20.387Z</time></trkpt><trkpt lat="41.5850855" lon="2.0581469"><ele>333.5</ele><time>2026-04-03T18:40:21.363Z</time></trkpt><trkpt lat="41.5850802" lon="2.058342"><ele>334.0</ele><time>2026-04-03T18:40:22.389Z</time></trkpt><trkpt lat="41.5850708" lon="2.0585337"><ele>334.5</ele><time>2026-04-03T18:40:23.381Z</time></trkpt><trkpt lat="41.5850539" lon="2.058728"><ele>335.0</ele><time>2026-04-03T18:40:24.392Z</time></trkpt><trkpt lat="41.5850298" lon="2.0589199"><ele>334.0</ele><time>2026-04-03T18:40:25.372Z</time></trkpt><trkpt lat="41.5849867" lon="2.0591304"><ele>333.0</ele><time>2026-04-03T18:40:26.386Z</time></trkpt><trkpt lat="41.584927" lon="2.0593489"><ele>332.0</ele><time>2026-04-03T18:40:27.363Z</time></trkpt><trkpt lat="41.584842" lon="2.05959"><ele>332.0</ele><time>2026-04-03T18:40:28.408Z</time></trkpt><trkpt lat="41.5847519" lon="2.0598293"><ele>332.0</ele><time>2026-04-03T18:40:29.387Z</time></trkpt><trkpt lat="41.5846565" lon="2.0600782"><ele>332.0</ele><time>2026-04-03T18:40:30.359Z</time></trkpt><trkpt lat="41.5845541" lon="2.060338"><ele>326.0</ele><time>2026-04-03T18:40:31.366Z</time></trkpt><trkpt lat="41.5844449" lon="2.0606161"><ele>320.0</ele><time>2026-04-03T18:40:32.402Z</time></trkpt><trkpt lat="41.5843421" lon="2.0608752"><ele>320.0</ele><time>2026-04-03T18:40:33.383Z</time></trkpt><trkpt lat="41.5842479" lon="2.0611204"><ele>320.0</ele><time>2026-04-03T18:40:34.373Z</time></trkpt><trkpt lat="41.5841503" lon="2.0613717"><ele>320.0</ele><time>2026-04-03T18:40:35.41Z</time></trkpt><trkpt lat="41.5840605" lon="2.0616015"><ele>320.0</ele><time>2026-04-03T18:40:36.404Z</time></trkpt><trkpt lat="41.5839719" lon="2.061826"><ele>320.0</ele><time>2026-04-03T18:40:37.389Z</time></trkpt><trkpt lat="41.5838824" lon="2.0620541"><ele>320.0</ele><time>2026-04-03T18:40:38.386Z</time></trkpt><trkpt lat="41.5837938" lon="2.0622883"><ele>320.0</ele><time>2026-04-03T18:40:39.387Z</time></trkpt><trkpt lat="41.5836992" lon="2.0625322"><ele>320.0</ele><time>2026-04-03T18:40:40.424Z</time></trkpt><trkpt lat="41.5836091" lon="2.0627665"><ele>320.0</ele><time>2026-04-03T18:40:41.408Z</time></trkpt><trkpt lat="41.5835162" lon="2.0630117"><ele>319.33333333333337</ele><time>2026-04-03T18:40:42.426Z</time></trkpt><trkpt lat="41.5834291" lon="2.0632445"><ele>318.6666666666667</ele><time>2026-04-03T18:40:43.396Z</time></trkpt><trkpt lat="41.5833381" lon="2.063488"><ele>318.0</ele><time>2026-04-03T18:40:44.422Z</time></trkpt><trkpt lat="41.5832554" lon="2.0637092"><ele>318.0</ele><time>2026-04-03T18:40:45.378Z</time></trkpt><trkpt lat="41.5831686" lon="2.0639384"><ele>318.0</ele><time>2026-04-03T18:40:46.392Z</time></trkpt><trkpt lat="41.5830852" lon="2.0641573"><ele>318.0</ele><time>2026-04-03T18:40:47.382Z</time></trkpt><trkpt lat="41.5830048" lon="2.0643695"><ele>317.0</ele><time>2026-04-03T18:40:48.39Z</time></trkpt><trkpt lat="41.5829264" lon="2.064576"><ele>316.0</ele><time>2026-04-03T18:40:49.396Z</time></trkpt><trkpt lat="41.5828481" lon="2.0647784"><ele>315.0</ele><time>2026-04-03T18:40:50.388Z</time></trkpt><trkpt lat="41.5827689" lon="2.0649751"><ele>314.0</ele><time>2026-04-03T18:40:51.371Z</time></trkpt><trkpt lat="41.5826862" lon="2.065179"><ele>313.0</ele><time>2026-04-03T18:40:52.38Z</time></trkpt><trkpt lat="41.5826008" lon="2.0653938"><ele>312.0</ele><time>2026-04-03T18:40:53.426Z</time></trkpt><trkpt lat="41.5825286" lon="2.0655837"><ele>310.6666666666667</ele><time>2026-04-03T18:40:54.351Z</time></trkpt><trkpt lat="41.582448" lon="2.0657967"><ele>309.33333333333337</ele><time>2026-04-03T18:40:55.38Z</time></trkpt><trkpt lat="41.5823685" lon="2.066004"><ele>308.0</ele><time>2026-04-03T18:40:56.382Z</time></trkpt><trkpt lat="41.5822925" lon="2.0662071"><ele>308.0</ele><time>2026-04-03T18:40:57.414Z</time></trkpt><trkpt lat="41.5822232" lon="2.0663891"><ele>308.0</ele><time>2026-04-03T18:40:58.416Z</time></trkpt><trkpt lat="41.5821563" lon="2.0665623"><ele>308.0</ele><time>2026-04-03T18:40:59.425Z</time></trkpt><trkpt lat="41.582096" lon="2.0667246"><ele>308.0</ele><time>2026-04-03T18:41:00.397Z</time></trkpt><trkpt lat="41.5820349" lon="2.0668832"><ele>307.0</ele><time>2026-04-03T18:41:01.43Z</time></trkpt><trkpt lat="41.5819785" lon="2.0670283"><ele>306.0</ele><time>2026-04-03T18:41:02.429Z</time></trkpt><trkpt lat="41.5819205" lon="2.0671781"><ele>305.0</ele><time>2026-04-03T18:41:03.492Z</time></trkpt><trkpt lat="41.5818166" lon="2.0674518"><ele>304.75</ele><time>2026-04-03T18:41:05.378Z</time></trkpt><trkpt lat="41.5817582" lon="2.067602"><ele>304.5</ele><time>2026-04-03T18:41:06.405Z</time></trkpt><trkpt lat="41.5816989" lon="2.0677529"><ele>304.25</ele><time>2026-04-03T18:41:07.412Z</time></trkpt><trkpt lat="41.5816371" lon="2.0679077"><ele>304.0</ele><time>2026-04-03T18:41:08.419Z</time></trkpt><trkpt lat="41.5815736" lon="2.0680705"><ele>304.0</ele><time>2026-04-03T18:41:09.403Z</time></trkpt><trkpt lat="41.5815122" lon="2.0682344"><ele>304.0</ele><time>2026-04-03T18:41:10.353Z</time></trkpt><trkpt lat="41.581442" lon="2.0684194"><ele>304.0</ele><time>2026-04-03T18:41:11.386Z</time></trkpt><trkpt lat="41.5813688" lon="2.068611"><ele>304.0</ele><time>2026-04-03T18:41:12.384Z</time></trkpt><trkpt lat="41.5812886" lon="2.0688162"><ele>304.0</ele><time>2026-04-03T18:41:13.406Z</time></trkpt><trkpt lat="41.5812123" lon="2.0690117"><ele>304.0</ele><time>2026-04-03T18:41:14.364Z</time></trkpt><trkpt lat="41.5811311" lon="2.0692265"><ele>303.3333333333333</ele><time>2026-04-03T18:41:15.367Z</time></trkpt><trkpt lat="41.5810484" lon="2.0694468"><ele>302.6666666666667</ele><time>2026-04-03T18:41:16.422Z</time></trkpt><trkpt lat="41.5809758" lon="2.0696374"><ele>302.0</ele><time>2026-04-03T18:41:17.385Z</time></trkpt><trkpt lat="41.5809045" lon="2.069826"><ele>300.75</ele><time>2026-04-03T18:41:18.381Z</time></trkpt><trkpt lat="41.5808381" lon="2.0700019"><ele>299.5</ele><time>2026-04-03T18:41:19.372Z</time></trkpt><trkpt lat="41.5807724" lon="2.0701763"><ele>298.25</ele><time>2026-04-03T18:41:20.388Z</time></trkpt><trkpt lat="41.5807096" lon="2.0703379"><ele>297.0</ele><time>2026-04-03T18:41:21.389Z</time></trkpt><trkpt lat="41.5806472" lon="2.0704957"><ele>297.0</ele><time>2026-04-03T18:41:22.41Z</time></trkpt><trkpt lat="41.5805886" lon="2.0706327"><ele>297.0</ele><time>2026-04-03T18:41:23.378Z</time></trkpt><trkpt lat="41.5805218" lon="2.0707681"><ele>297.0</ele><time>2026-04-03T18:41:24.403Z</time></trkpt><trkpt lat="41.5804519" lon="2.0708915"><ele>297.0</ele><time>2026-04-03T18:41:25.373Z</time></trkpt><trkpt lat="41.5803654" lon="2.0710195"><ele>297.0</ele><time>2026-04-03T18:41:26.365Z</time></trkpt><trkpt lat="41.5802619" lon="2.0711585"><ele>297.0</ele><time>2026-04-03T18:41:27.388Z</time></trkpt><trkpt lat="41.5801557" lon="2.0712969"><ele>297.0</ele><time>2026-04-03T18:41:28.39Z</time></trkpt><trkpt lat="41.580049" lon="2.0714334"><ele>297.0</ele><time>2026-04-03T18:41:29.36Z</time></trkpt><trkpt lat="41.5799387" lon="2.0715711"><ele>295.5</ele><time>2026-04-03T18:41:30.372Z</time></trkpt><trkpt lat="41.579836" lon="2.0717029"><ele>294.0</ele><time>2026-04-03T18:41:31.372Z</time></trkpt><trkpt lat="41.5797391" lon="2.0718308"><ele>292.5</ele><time>2026-04-03T18:41:32.406Z</time></trkpt><trkpt lat="41.5796528" lon="2.0719439"><ele>291.0</ele><time>2026-04-03T18:41:33.378Z</time></trkpt><trkpt lat="41.5795697" lon="2.0720505"><ele>290.5</ele><time>2026-04-03T18:41:34.352Z</time></trkpt><trkpt lat="41.5794857" lon="2.072155"><ele>290.0</ele><time>2026-04-03T18:41:35.377Z</time></trkpt><trkpt lat="41.579396" lon="2.0722649"><ele>289.5</ele><time>2026-04-03T18:41:36.373Z</time></trkpt><trkpt lat="41.579284" lon="2.0724071"><ele>289.0</ele><time>2026-04-03T18:41:37.474Z</time></trkpt><trkpt lat="41.5791902" lon="2.0725331"><ele>289.0</ele><time>2026-04-03T18:41:38.383Z</time></trkpt><trkpt lat="41.5790774" lon="2.0726743"><ele>289.0</ele><time>2026-04-03T18:41:39.386Z</time></trkpt><trkpt lat="41.5789666" lon="2.0728146"><ele>289.0</ele><time>2026-04-03T18:41:40.402Z</time></trkpt><trkpt lat="41.578867" lon="2.0729422"><ele>289.0</ele><time>2026-04-03T18:41:41.379Z</time></trkpt><trkpt lat="41.5787679" lon="2.0730686"><ele>288.75</ele><time>2026-04-03T18:41:42.401Z</time></trkpt><trkpt lat="41.5786753" lon="2.0731854"><ele>288.5</ele><time>2026-04-03T18:41:43.409Z</time></trkpt><trkpt lat="41.5785913" lon="2.073293"><ele>288.25</ele><time>2026-04-03T18:41:44.376Z</time></trkpt><trkpt lat="41.5785082" lon="2.073398"><ele>288.0</ele><time>2026-04-03T18:41:45.376Z</time></trkpt><trkpt lat="41.5784319" lon="2.0734939"><ele>288.0</ele><time>2026-04-03T18:41:46.362Z</time></trkpt><trkpt lat="41.5783581" lon="2.0735896"><ele>288.0</ele><time>2026-04-03T18:41:47.399Z</time></trkpt><trkpt lat="41.5782911" lon="2.0736769"><ele>288.0</ele><time>2026-04-03T18:41:48.376Z</time></trkpt><trkpt lat="41.5782176" lon="2.0737714"><ele>288.0</ele><time>2026-04-03T18:41:49.374Z</time></trkpt><trkpt lat="41.5781275" lon="2.0738847"><ele>288.0</ele><time>2026-04-03T18:41:50.403Z</time></trkpt><trkpt lat="41.5780281" lon="2.0740112"><ele>287.75</ele><time>2026-04-03T18:41:51.41Z</time></trkpt><trkpt lat="41.5779254" lon="2.0741424"><ele>287.5</ele><time>2026-04-03T18:41:52.383Z</time></trkpt><trkpt lat="41.577815" lon="2.074283"><ele>287.25</ele><time>2026-04-03T18:41:53.389Z</time></trkpt><trkpt lat="41.5777032" lon="2.0744264"><ele>287.0</ele><time>2026-04-03T18:41:54.378Z</time></trkpt><trkpt lat="41.5775918" lon="2.0745692"><ele>285.6666666666667</ele><time>2026-04-03T18:41:55.379Z</time></trkpt><trkpt lat="41.5774801" lon="2.07471"><ele>284.3333333333333</ele><time>2026-04-03T18:41:56.381Z</time></trkpt><trkpt lat="41.5773677" lon="2.0748537"><ele>283.0</ele><time>2026-04-03T18:41:57.383Z</time></trkpt><trkpt lat="41.5772576" lon="2.0749926"><ele>282.0</ele><time>2026-04-03T18:41:58.376Z</time></trkpt><trkpt lat="41.5771503" lon="2.0751299"><ele>281.0</ele><time>2026-04-03T18:41:59.364Z</time></trkpt><trkpt lat="41.5770361" lon="2.0752756"><ele>280.0</ele><time>2026-04-03T18:42:00.419Z</time></trkpt><trkpt lat="41.5769306" lon="2.0754111"><ele>278.3333333333333</ele><time>2026-04-03T18:42:01.39Z</time></trkpt><trkpt lat="41.5768214" lon="2.0755508"><ele>276.6666666666667</ele><time>2026-04-03T18:42:02.39Z</time></trkpt><trkpt lat="41.5767083" lon="2.0756963"><ele>275.0</ele><time>2026-04-03T18:42:03.421Z</time></trkpt><trkpt lat="41.5766011" lon="2.0758332"><ele>274.75</ele><time>2026-04-03T18:42:04.393Z</time></trkpt><trkpt lat="41.5764955" lon="2.0759684"><ele>274.5</ele><time>2026-04-03T18:42:05.398Z</time></trkpt><trkpt lat="41.5763948" lon="2.076098"><ele>274.25</ele><time>2026-04-03T18:42:06.397Z</time></trkpt><trkpt lat="41.5763003" lon="2.0762188"><ele>274.0</ele><time>2026-04-03T18:42:07.382Z</time></trkpt><trkpt lat="41.5762072" lon="2.0763336"><ele>273.25</ele><time>2026-04-03T18:42:08.391Z</time></trkpt><trkpt lat="41.5761178" lon="2.0764436"><ele>272.5</ele><time>2026-04-03T18:42:09.395Z</time></trkpt><trkpt lat="41.5760326" lon="2.0765531"><ele>271.75</ele><time>2026-04-03T18:42:10.391Z</time></trkpt><trkpt lat="41.5759421" lon="2.0766696"><ele>271.0</ele><time>2026-04-03T18:42:11.399Z</time></trkpt><trkpt lat="41.5758416" lon="2.0768002"><ele>270.75</ele><time>2026-04-03T18:42:12.419Z</time></trkpt><trkpt lat="41.575738" lon="2.076936"><ele>270.5</ele><time>2026-04-03T18:42:13.406Z</time></trkpt><trkpt lat="41.5756355" lon="2.0770681"><ele>270.25</ele><time>2026-04-03T18:42:14.41Z</time></trkpt><trkpt lat="41.5755407" lon="2.0771912"><ele>270.0</ele><time>2026-04-03T18:42:15.415Z</time></trkpt><trkpt lat="41.5754503" lon="2.077303"><ele>270.0</ele><time>2026-04-03T18:42:16.41Z</time></trkpt><trkpt lat="41.5753676" lon="2.0774089"><ele>270.0</ele><time>2026-04-03T18:42:17.397Z</time></trkpt><trkpt lat="41.5752892" lon="2.0775079"><ele>270.0</ele><time>2026-04-03T18:42:18.385Z</time></trkpt><trkpt lat="41.5752122" lon="2.0776026"><ele>270.0</ele><time>2026-04-03T18:42:19.387Z</time></trkpt><trkpt lat="41.5751302" lon="2.077706"><ele>270.0</ele><time>2026-04-03T18:42:20.393Z</time></trkpt><trkpt lat="41.5750288" lon="2.0778326"><ele>269.5</ele><time>2026-04-03T18:42:21.494Z</time></trkpt><trkpt lat="41.5749381" lon="2.0779395"><ele>269.0</ele><time>2026-04-03T18:42:22.404Z</time></trkpt><trkpt lat="41.5748325" lon="2.0780568"><ele>268.5</ele><time>2026-04-03T18:42:23.402Z</time></trkpt><trkpt lat="41.5747171" lon="2.0781819"><ele>268.0</ele><time>2026-04-03T18:42:24.399Z</time></trkpt><trkpt lat="41.5745972" lon="2.078313"><ele>266.66666666666663</ele><time>2026-04-03T18:42:25.41Z</time></trkpt><trkpt lat="41.5744764" lon="2.0784453"><ele>265.3333333333333</ele><time>2026-04-03T18:42:26.409Z</time></trkpt><trkpt lat="41.5743557" lon="2.0785809"><ele>264.0</ele><time>2026-04-03T18:42:27.419Z</time></trkpt><trkpt lat="41.5742412" lon="2.0787135"><ele>264.0</ele><time>2026-04-03T18:42:28.421Z</time></trkpt><trkpt lat="41.5741403" lon="2.0788373"><ele>264.0</ele><time>2026-04-03T18:42:29.39Z</time></trkpt><trkpt lat="41.5740388" lon="2.0789646"><ele>264.0</ele><time>2026-04-03T18:42:30.433Z</time></trkpt><trkpt lat="41.5739506" lon="2.0790751"><ele>264.0</ele><time>2026-04-03T18:42:31.41Z</time></trkpt><trkpt lat="41.5738645" lon="2.0791812"><ele>264.25</ele><time>2026-04-03T18:42:32.402Z</time></trkpt><trkpt lat="41.5737812" lon="2.0792868"><ele>264.5</ele><time>2026-04-03T18:42:33.386Z</time></trkpt><trkpt lat="41.5736969" lon="2.0793965"><ele>264.75</ele><time>2026-04-03T18:42:34.41Z</time></trkpt><trkpt lat="41.5736136" lon="2.0795048"><ele>265.0</ele><time>2026-04-03T18:42:35.451Z</time></trkpt><trkpt lat="41.5735408" lon="2.0796014"><ele>264.66666666666663</ele><time>2026-04-03T18:42:36.381Z</time></trkpt><trkpt lat="41.5734651" lon="2.0796981"><ele>264.3333333333333</ele><time>2026-04-03T18:42:37.386Z</time></trkpt><trkpt lat="41.5733947" lon="2.0797849"><ele>264.0</ele><time>2026-04-03T18:42:38.377Z</time></trkpt><trkpt lat="41.5733299" lon="2.0798692"><ele>263.6666666666667</ele><time>2026-04-03T18:42:39.377Z</time></trkpt><trkpt lat="41.5732721" lon="2.0799453"><ele>263.33333333333337</ele><time>2026-04-03T18:42:40.389Z</time></trkpt><trkpt lat="41.5732263" lon="2.0800042"><ele>263.0</ele><time>2026-04-03T18:42:41.401Z</time></trkpt><trkpt lat="41.5731708" lon="2.0800763"><ele>263.0</ele><time>2026-04-03T18:42:43.359Z</time></trkpt><trkpt lat="41.5731127" lon="2.0801753"><ele>263.0</ele><time>2026-04-03T18:42:46.394Z</time></trkpt><trkpt lat="41.5730684" lon="2.0802547"><ele>263.0</ele><time>2026-04-03T18:42:48.394Z</time></trkpt><trkpt lat="41.5730206" lon="2.0803153"><ele>263.0</ele><time>2026-04-03T18:42:51.446Z</time></trkpt><trkpt lat="41.5729116" lon="2.0803765"><ele>263.0</ele><time>2026-04-03T18:43:01.37Z</time></trkpt><trkpt lat="41.5727833" lon="2.0804424"><ele>262.8</ele><time>2026-04-03T18:43:03.381Z</time></trkpt><trkpt lat="41.5727146" lon="2.0805172"><ele>262.6</ele><time>2026-04-03T18:43:04.423Z</time></trkpt><trkpt lat="41.5726527" lon="2.0806057"><ele>262.4</ele><time>2026-04-03T18:43:05.39Z</time></trkpt><trkpt lat="41.5725891" lon="2.0806962"><ele>262.2</ele><time>2026-04-03T18:43:06.383Z</time></trkpt><trkpt lat="41.572524" lon="2.0808053"><ele>262.0</ele><time>2026-04-03T18:43:07.437Z</time></trkpt><trkpt lat="41.5724731" lon="2.0809114"><ele>262.0</ele><time>2026-04-03T18:43:08.351Z</time></trkpt><trkpt lat="41.5724295" lon="2.0810342"><ele>262.0</ele><time>2026-04-03T18:43:09.402Z</time></trkpt><trkpt lat="41.5723921" lon="2.0811116"><ele>262.0</ele><time>2026-04-03T18:43:10.378Z</time></trkpt><trkpt lat="41.5723279" lon="2.0812236"><ele>262.0</ele><time>2026-04-03T18:43:12.387Z</time></trkpt><trkpt lat="41.5722711" lon="2.0813132"><ele>262.0</ele><time>2026-04-03T18:43:14.414Z</time></trkpt><trkpt lat="41.5722284" lon="2.0813841"><ele>262.0</ele><time>2026-04-03T18:43:17.412Z</time></trkpt><trkpt lat="41.5722284" lon="2.0813841"><ele>262.0</ele><time>2026-04-03T18:43:17.412Z</time></trkpt></trkseg></trk></gpx>